ECMWFNIL_500_spd_000.txt.gz
Wind_Speed
24 24 24 23 23 23 22 22 22 22 22 22 22 21 20 19 19 19 19 19 20 21 22 23 23 23 23 24 24 24 24 23 23 22 23 24 24 24 25 25 26 26
25 26 26 26 25 24 23 23 23 23 23 23 23 22 20 19 19 19 19 19 20 21 22 23 23 24 24 25 25 25 25 25 25 24 23 23 24 25 25 25 26 27
25 26 27 27 27 26 25 24 23 23 24 24 24 23 22 21 20 20 19 20 20 21 21 22 23 24 24 25 26 26 26 26 26 27 26 25 25 26 26 27 27 27
24 25 27 28 28 28 27 26 25 24 25 25 25 25 24 22 22 21 21 21 21 22 22 23 23 24 24 25 26 26 27 27 27 28 29 29 29 29 29 30 30 30
23 24 25 26 27 28 29 29 28 27 27 27 27 27 26 25 25 24 24 24 24 24 25 25 25 26 26 27 27 28 28 28 29 30 30 31 31 31 32 32 33 34
25 25 25 26 26 26 27 28 29 29 29 29 29 30 29 29 28 27 27 27 27 27 27 28 28 28 29 29 29 29 30 30 31 31 32 32 33 33 34 35 35 36
29 29 29 28 28 27 26 27 28 28 28 29 30 31 32 32 32 32 31 31 30 31 31 31 31 31 31 31 31 31 31 32 33 33 34 34 35 35 35 36 37 38
32 32 33 32 31 31 30 30 30 29 29 28 29 30 31 32 33 34 35 35 34 34 34 35 35 34 34 34 34 34 34 35 35 36 36 36 37 37 37 37 38 39
34 34 36 36 35 35 35 35 35 34 34 33 32 31 32 33 34 34 35 35 35 34 35 36 36 36 36 36 35 35 35 36 36 37 37 38 38 38 39 39 39 39
36 36 36 36 37 37 38 39 40 39 38 37 36 34 32 32 34 35 36 35 34 33 33 34 36 36 35 35 35 34 34 35 35 36 37 37 38 38 38 38 38 38
36 36 35 35 36 37 37 38 40 42 41 39 38 35 32 31 33 34 35 35 36 35 35 34 35 36 35 34 34 33 32 32 33 34 35 36 36 36 35 35 34 34
36 37 38 38 37 37 39 40 41 42 42 41 40 39 36 35 33 33 34 34 35 36 37 36 36 36 36 35 34 33 32 32 32 33 33 34 34 33 31 30 30 30
39 39 40 40 39 39 41 43 44 44 44 43 42 41 40 38 36 37 38 38 37 37 37 37 38 38 37 37 36 34 33 32 31 31 31 31 30 29 28 28 28 29
42 41 41 41 41 41 41 44 47 47 46 46 45 44 42 41 39 39 39 39 40 40 40 39 39 40 39 39 38 37 36 34 32 31 31 30 30 30 29 29 29 30
43 44 44 44 44 44 44 46 48 48 48 47 48 47 45 44 44 43 42 41 40 41 42 43 43 43 41 40 40 40 39 37 35 33 33 32 32 32 32 31 32 32
45 44 45 45 45 45 46 46 47 48 49 50 51 50 49 49 50 48 47 46 44 42 43 44 44 45 45 43 42 41 41 40 38 37 36 35 35 34 34 34 34 34
48 47 45 45 45 45 46 46 47 48 49 52 53 52 52 53 54 53 51 50 46 43 42 42 43 44 45 45 43 42 41 40 40 40 39 38 37 37 36 36 36 36
51 50 48 47 45 45 45 46 47 49 51 53 54 54 54 54 55 55 53 50 47 44 41 40 40 41 42 43 43 43 42 40 40 41 41 41 41 40 39 37 37 37
52 52 51 49 47 45 46 48 50 51 51 52 53 54 53 53 55 55 52 50 49 45 42 42 42 42 43 44 43 44 44 43 41 41 42 44 44 43 41 39 38 38
54 52 52 51 50 48 47 50 52 52 51 51 51 53 53 54 55 52 52 53 49 43 41 44 46 46 46 46 45 45 46 48 47 44 44 46 46 44 42 40 39 39
56 54 53 52 52 50 50 52 53 52 51 49 49 51 54 56 55 52 52 52 48 42 41 44 48 50 49 48 48 47 46 47 48 48 48 48 47 46 44 43 42 43
59 58 56 54 54 52 52 54 55 54 52 51 52 54 56 57 58 56 55 54 51 46 45 45 47 50 51 51 51 49 47 45 46 47 48 48 47 47 47 46 46 46
60 60 59 58 57 56 56 57 57 56 54 54 56 58 60 61 61 59 59 58 55 52 50 47 45 45 46 49 50 51 51 49 46 46 47 47 48 48 48 47 48 49
59 59 60 60 60 60 59 59 59 58 54 53 54 56 58 59 58 57 57 56 55 54 52 46 41 39 40 43 46 49 51 50 48 46 46 46 47 47 47 48 49 52
58 58 59 60 60 61 61 60 60 60 59 58 59 59 59 58 56 55 55 56 56 54 46 40 38 37 38 40 43 46 48 48 48 46 44 44 45 46 47 50 52 55
58 57 58 59 60 60 61 61 61 62 63 63 62 61 60 59 58 57 56 58 57 51 43 39 38 39 39 40 41 43 45 47 48 47 46 45 46 47 49 51 54 56

ECMWFNIL_500_spd_003.txt.gz
Wind_Speed
22 22 22 21 20 19 19 19 20 20 21 21 21 21 21 20 20 20 20 20 20 21 21 21 21 21 20 20 19 19 20 20 21 21 21 22 23 23 23 23 23 24
23 23 23 22 22 21 20 19 20 20 21 21 22 21 20 19 19 19 19 19 19 19 20 21 21 21 21 20 20 20 20 20 20 21 21 22 22 23 23 23 23 23
22 22 22 22 21 21 21 20 20 20 21 22 22 22 21 20 19 19 19 19 19 19 19 19 20 21 21 21 21 21 21 21 21 22 22 22 22 23 23 24 23 23
22 22 23 23 22 21 21 20 20 20 21 22 22 22 22 21 20 19 18 19 19 19 19 19 20 20 21 22 22 23 23 23 23 24 24 25 25 24 24 25 25 25
22 22 22 23 23 23 22 22 21 21 21 21 22 23 23 22 22 21 20 20 20 20 20 20 20 21 21 22 22 23 24 25 25 26 26 27 27 27 27 27 28 28
24 23 22 22 23 23 23 23 23 22 21 21 21 21 22 23 23 23 23 23 23 23 23 23 23 23 23 23 24 24 25 26 27 27 28 29 29 29 30 30 30 30
28 28 27 27 27 26 25 26 25 25 24 22 21 21 20 21 22 23 24 24 24 25 25 26 27 27 27 27 27 27 27 28 29 29 30 31 31 32 32 32 33 33
29 30 30 30 30 28 28 28 28 28 27 26 24 24 23 22 22 23 24 25 26 26 26 27 28 28 29 30 30 30 30 31 31 32 32 33 33 34 34 34 35 35
28 29 31 32 32 31 30 30 30 30 30 30 29 28 28 27 28 28 27 27 27 28 28 29 29 29 29 29 30 31 31 32 33 34 34 35 35 35 36 36 36 37
29 30 32 34 34 34 33 32 32 32 32 32 31 31 31 32 32 31 31 31 29 28 29 30 31 31 30 30 31 31 32 32 33 34 35 36 36 37 37 37 37 38
33 34 35 35 35 35 34 33 33 34 33 33 32 32 32 32 32 32 33 34 33 32 31 30 30 31 32 33 33 33 34 34 34 35 36 36 37 37 38 38 38 38
36 36 36 36 35 34 34 33 34 36 36 35 35 35 35 35 34 34 34 34 34 35 34 32 31 33 33 34 34 34 35 36 37 37 37 37 37 37 37 37 37 37
37 36 35 36 36 36 36 36 37 37 37 37 36 37 37 37 37 37 37 37 37 37 37 34 34 35 36 36 36 36 36 37 38 39 40 39 39 38 38 37 37 37
38 36 36 37 38 38 39 39 40 40 39 39 39 39 40 40 40 40 39 40 40 40 39 37 37 37 38 38 37 37 39 39 39 40 42 42 42 41 40 38 38 38
41 39 39 39 40 41 41 41 41 41 41 41 41 42 44 43 43 44 44 43 44 42 40 39 39 40 40 40 38 38 40 41 42 42 43 44 44 43 42 41 40 39
47 46 45 43 43 43 43 43 42 43 43 44 43 45 47 46 45 46 46 45 45 44 42 42 42 43 43 43 42 42 43 44 44 45 45 45 45 45 45 44 43 42
52 51 49 47 45 45 45 44 44 44 44 45 45 47 49 48 46 47 48 47 48 47 47 46 46 46 46 46 44 44 44 45 45 45 45 46 45 46 46 45 44 44
56 55 52 49 48 48 47 46 46 45 46 46 47 49 52 51 48 47 47 49 50 49 48 49 49 49 48 46 44 43 42 41 41 42 44 45 45 45 45 45 44 44
58 57 55 52 51 50 50 50 50 49 49 49 50 51 53 53 50 48 48 50 51 49 49 50 50 50 49 48 46 44 43 41 40 41 42 43 44 44 44 45 45 45
59 58 57 56 55 54 53 53 53 53 52 51 52 53 54 54 53 51 51 52 52 51 52 52 51 50 51 51 49 47 45 44 42 43 44 44 44 45 45 46 46 47
59 59 59 59 59 58 57 56 56 55 54 53 53 54 55 55 55 54 53 52 51 51 53 53 52 52 52 51 48 47 47 45 43 43 44 45 45 46 47 48 48 48
60 60 60 60 60 60 59 59 57 56 56 55 55 56 56 56 56 55 53 52 51 52 53 53 52 52 53 52 51 51 51 50 47 44 43 44 45 47 49 51 52 52
59 59 59 59 59 59 59 59 59 58 57 57 57 57 57 58 58 57 55 54 55 55 56 55 54 54 55 55 54 54 54 52 50 49 47 46 46 47 50 52 54 54
58 58 59 59 58 58 58 59 59 58 58 58 58 59 59 59 59 57 55 55 55 55 54 53 53 53 53 54 54 55 52 49 47 49 50 49 47 48 50 52 54 55
57 57 57 58 58 57 57 57 57 57 57 56 56 57 58 58 58 56 55 55 54 53 53 53 54 55 56 57 58 59 57 51 48 49 50 48 48 47 48 49 51 53
56 56 56 56 56 56 56 55 55 54 54 54 54 53 53 54 56 56 56 56 54 55 57 58 59 60 60 60 60 60 58 56 53 51 51 49 48 46 45 46 47 49

ECMWFNIL_500_spd_006.txt.gz
Wind_Speed
20 21 21 22 22 22 21 21 21 21 21 20 19 17 16 16 16 16 15 15 16 17 18 19 20 21 21 20 20 19 18 18 18 18 18 18 19 20 20 20 20 21
17 18 18 19 20 21 21 21 21 21 21 20 19 18 17 16 16 16 15 14 14 14 15 17 18 19 20 20 20 20 19 19 19 18 18 18 18 19 20 20 20 20
17 17 17 18 19 19 19 19 19 20 20 20 20 19 18 17 17 16 16 15 14 14 14 15 16 18 19 20 20 20 21 20 20 20 20 20 20 20 20 20 21 21
18 17 18 18 18 19 20 20 19 19 18 19 19 19 19 18 18 18 17 17 16 15 15 15 15 16 17 19 20 21 21 21 21 22 22 22 22 21 21 21 21 22
21 21 20 20 19 18 18 18 18 18 17 17 17 18 18 18 18 18 18 18 18 18 18 18 17 18 18 19 20 21 21 21 22 22 23 23 23 23 23 23 23 23
25 24 23 22 21 20 20 19 19 19 19 19 18 17 17 17 17 17 18 18 19 19 20 20 21 21 21 21 22 22 23 23 23 23 23 24 24 25 25 25 25 24
25 25 25 25 25 24 24 25 25 24 23 23 22 21 20 19 18 17 17 17 18 19 19 20 21 22 23 24 25 26 26 26 26 26 26 26 25 26 26 27 27 27
26 26 26 26 26 26 27 29 30 30 28 27 26 25 24 23 22 21 20 20 21 21 21 21 22 23 24 25 27 28 29 29 29 30 30 29 29 29 29 29 29 29
30 30 29 28 27 27 28 29 31 32 32 30 29 27 26 25 25 24 24 24 25 25 25 25 25 25 26 27 29 29 30 30 31 32 32 32 32 32 32 32 32 32
33 34 34 32 30 28 29 30 31 31 32 32 31 30 30 29 28 27 27 27 27 27 27 26 26 27 27 29 30 31 31 31 31 32 33 33 33 33 33 34 34 34
35 36 37 37 34 32 31 32 33 33 33 33 34 33 33 32 31 30 29 28 28 28 27 27 27 28 28 29 31 32 32 32 32 32 33 33 33 33 33 34 35 35
38 38 39 39 37 35 33 33 33 34 34 35 36 36 35 34 33 33 32 30 30 30 30 30 30 30 29 30 31 32 33 34 34 33 33 32 33 32 32 33 35 36
42 41 40 38 35 35 36 35 35 35 35 36 38 38 38 36 35 35 35 35 34 34 34 34 33 33 32 32 33 34 34 34 35 35 35 34 34 34 33 34 34 36
45 44 42 39 37 37 38 38 37 37 36 37 38 39 40 39 37 36 37 37 37 36 36 36 36 36 36 37 37 36 36 36 36 37 37 37 37 36 36 36 35 36
43 42 41 39 38 39 40 40 40 39 39 39 39 40 41 41 39 38 39 40 39 37 37 38 38 38 40 41 40 39 37 37 37 38 38 38 38 39 40 39 39 38
46 44 42 41 40 41 43 43 43 42 42 41 41 42 43 43 42 41 41 42 41 40 39 39 39 40 41 43 43 42 40 39 39 39 39 39 40 41 43 43 43 43
52 51 49 47 46 45 46 46 46 45 45 44 44 44 45 46 46 45 45 44 44 43 43 43 42 42 43 44 45 44 44 43 43 43 43 43 42 43 43 43 43 44
55 54 54 53 52 51 51 51 50 49 49 49 49 49 49 48 48 48 48 47 46 45 45 45 45 45 44 45 46 46 47 46 45 44 45 45 44 43 43 43 42 43
55 56 56 56 56 56 56 56 55 55 54 53 53 54 53 52 50 49 49 49 48 48 48 47 47 47 47 47 47 49 50 50 47 46 46 46 46 45 44 45 45 44
58 59 59 59 59 59 58 58 58 58 58 57 57 57 57 56 54 52 51 50 51 51 51 50 49 49 49 49 50 52 53 53 51 49 48 48 47 47 47 46 46 46
61 61 61 60 60 60 59 59 59 59 59 59 58 58 58 58 57 56 54 54 53 54 54 52 50 50 50 51 53 53 53 52 52 50 49 48 47 47 47 46 46 46
60 60 60 60 60 60 59 59 58 58 58 58 58 58 58 58 58 58 57 57 57 56 56 54 53 52 51 52 54 53 52 52 52 51 51 50 49 49 49 48 47 47
58 58 58 58 58 58 58 58 57 57 57 57 57 57 57 57 58 58 58 59 59 58 58 57 55 54 53 54 55 54 53 53 53 53 53 53 52 52 51 49 48 48
56 56 57 57 57 57 56 56 56 55 55 56 56 57 57 57 58 58 58 58 59 58 58 57 56 56 56 55 54 52 51 51 51 52 53 53 53 53 52 51 50 50
53 54 54 54 55 55 55 55 54 54 54 54 55 55 56 56 56 57 57 57 56 56 57 57 57 57 56 55 54 53 54 53 53 53 54 55 56 55 54 54 55 54
52 52 52 52 53 53 53 53 53 53 53 53 54 54 54 54 55 55 55 55 55 55 55 56 56 55 54 54 54 56 57 57 56 55 56 57 58 58 58 58 58 57

ECMWFNIL_500_spd_009.txt.gz
Wind_Speed
21 20 21 21 21 21 21 20 19 19 19 18 18 18 18 18 18 17 16 16 16 16 17 18 19 20 20 21 21 21 21 20 19 20 20 21 21 21 21 21 21 21
21 19 19 20 20 20 20 20 19 19 19 18 18 18 18 18 17 17 16 15 15 15 16 16 17 18 18 18 19 19 19 19 18 18 19 19 20 20 20 20 20 19
21 20 19 19 19 19 19 19 18 18 18 17 17 17 17 17 17 17 16 15 15 15 15 16 17 17 17 17 17 17 17 17 17 17 18 18 19 19 20 20 20 19
23 22 21 21 20 19 19 19 18 18 18 19 18 18 17 17 17 18 18 17 16 16 16 16 17 17 18 18 17 17 17 16 16 17 17 18 19 19 19 19 19 19
24 24 24 23 22 21 20 20 20 20 21 21 20 20 19 18 18 18 19 18 18 18 18 18 18 18 19 19 19 18 18 18 17 17 17 17 18 19 19 19 19 19
26 26 25 25 25 24 23 23 23 23 22 22 21 20 19 18 18 18 18 18 18 18 19 19 20 20 20 20 20 20 20 20 20 20 20 19 19 19 19 20 20 20
26 26 25 25 25 24 24 24 24 24 23 23 23 22 21 20 19 18 18 19 19 19 19 19 19 20 20 21 21 21 21 21 22 22 23 23 22 22 22 22 22 22
28 27 26 25 24 23 23 24 24 24 24 25 25 26 26 25 24 23 22 21 21 21 21 21 21 20 21 22 22 22 22 22 22 23 24 24 24 24 24 25 25 25
30 28 27 26 27 27 26 25 26 26 27 27 27 28 29 29 29 28 27 25 23 23 24 24 24 24 24 25 25 26 26 25 25 26 26 26 26 25 25 26 26 27
32 31 30 29 29 31 31 29 30 30 30 30 30 30 31 31 32 31 29 28 26 24 25 25 25 26 26 26 27 27 27 27 28 28 28 28 28 27 27 27 27 28
34 33 33 32 31 34 35 33 33 33 32 32 33 32 31 30 30 30 29 29 28 27 26 26 26 26 27 27 27 28 28 28 28 29 29 30 30 29 29 29 29 29
37 36 35 34 34 34 36 35 35 34 34 34 34 33 32 30 29 29 28 27 28 28 27 28 29 29 29 29 30 30 30 29 29 29 29 30 31 31 31 31 31 31
39 38 38 39 39 39 41 41 38 35 35 37 36 34 34 34 33 32 30 29 30 30 29 30 31 32 32 32 33 33 33 32 31 31 31 31 32 33 33 33 33 33
38 37 39 42 44 45 46 44 40 38 39 41 38 35 35 37 38 37 34 32 33 33 34 34 33 34 35 35 35 35 36 36 36 35 34 34 35 35 35 35 35 35
42 39 40 42 43 44 44 43 42 43 44 43 41 38 37 38 40 39 37 36 36 37 38 37 36 36 37 37 37 36 37 37 37 37 37 36 36 37 37 37 37 37
49 47 46 45 45 45 45 43 43 43 42 40 39 38 39 40 41 41 41 42 41 41 41 40 38 38 39 39 39 40 39 37 36 38 39 39 39 39 38 37 38 39
50 51 51 51 51 51 51 49 48 47 45 43 40 38 38 40 42 43 44 45 46 45 45 44 42 40 41 42 43 44 43 41 40 40 40 40 41 42 41 39 39 40
51 51 51 51 52 54 54 54 53 54 54 52 49 45 43 42 43 45 45 47 48 47 48 48 46 43 43 44 46 46 45 45 45 44 42 42 42 43 44 43 43 43
53 52 51 50 50 51 52 52 52 53 54 53 52 50 48 47 47 48 49 50 51 50 51 51 48 48 48 48 48 48 47 48 49 48 46 47 47 47 47 47 47 47
54 54 54 53 52 52 53 52 53 53 53 53 53 52 51 50 50 50 52 53 53 54 56 54 52 52 53 53 52 52 51 52 53 52 50 50 50 50 49 49 50 50
56 56 56 57 57 56 56 56 57 56 56 56 55 55 54 53 53 53 53 54 55 56 58 57 55 55 55 55 55 55 54 54 55 55 53 53 52 52 51 51 51 51
55 55 56 56 57 58 58 58 58 58 58 57 56 56 56 55 55 55 55 55 55 57 59 57 55 55 55 56 57 56 55 55 55 55 55 55 54 54 53 52 53 53
53 54 54 55 56 56 56 57 57 57 57 57 56 56 55 54 54 53 54 56 56 57 58 56 54 54 56 56 56 55 55 54 54 54 55 55 54 54 53 54 54 54
53 53 54 54 55 55 56 55 55 55 55 55 54 54 53 53 53 52 53 55 55 56 56 54 53 55 56 55 54 54 53 54 54 55 55 54 54 54 54 55 55 54
53 53 53 54 54 54 55 55 55 54 54 53 52 52 52 52 52 51 52 54 54 54 54 54 55 56 55 54 53 53 53 53 54 55 55 54 54 54 55 55 55 55
52 52 52 52 52 53 53 53 54 54 53 53 52 51 52 52 52 53 53 53 52 52 53 53 54 54 54 53 53 52 52 53 53 54 54 54 54 54 54 54 55 55

ECMWFNIL_500_spd_012.txt.gz
Wind_Speed
18 17 15 16 18 19 19 19 19 19 19 19 20 20 20 19 19 19 18 18 18 18 19 19 19 19 19 19 18 18 18 17 17 16 15 15 16 16 16 17 18 18
19 17 16 16 18 19 18 19 19 19 19 19 19 19 19 19 19 19 18 18 18 18 18 18 18 18 17 17 18 17 17 17 17 16 16 15 15 16 16 16 17 17
20 18 16 17 19 19 19 19 19 19 19 19 18 18 18 18 17 18 18 18 18 18 19 19 18 17 17 16 16 16 16 16 16 16 16 15 14 15 16 16 16 17
21 19 18 18 20 21 21 21 21 21 21 20 19 18 17 17 16 16 17 17 18 19 19 19 19 19 18 17 16 16 16 15 15 15 15 15 14 14 15 16 17 17
22 20 20 20 21 22 23 23 23 22 22 21 19 18 17 17 17 16 17 17 18 19 19 20 20 19 19 18 18 18 17 17 17 16 16 15 15 15 15 16 17 17
23 22 22 22 22 24 24 24 23 22 22 22 20 19 18 17 17 17 17 17 17 18 19 19 20 20 19 19 19 19 19 19 19 19 18 18 18 18 17 17 18 18
25 25 25 23 24 25 25 24 23 23 23 23 22 21 20 19 18 19 19 19 18 18 19 19 19 19 19 19 19 19 19 19 19 19 19 19 18 18 19 19 20 20
28 28 28 25 25 27 27 25 24 25 25 24 22 22 21 21 20 21 21 21 21 20 20 21 21 21 21 21 21 21 21 20 20 20 20 20 20 19 19 20 20 21
31 31 31 29 28 29 30 28 26 27 27 25 23 23 23 23 22 23 23 23 23 23 22 23 23 24 24 24 24 24 24 24 24 23 23 23 23 22 22 22 22 22
35 36 35 33 32 33 32 30 28 28 27 26 27 27 26 25 24 24 23 24 24 25 25 25 25 25 25 25 24 23 24 24 25 25 26 26 25 25 25 25 24 24
37 39 39 37 35 35 34 32 30 29 29 30 30 30 30 29 26 25 24 25 26 27 27 28 27 26 25 26 25 25 24 24 24 25 26 26 27 27 27 27 27 27
40 41 43 42 39 37 35 33 32 32 32 32 32 32 33 33 30 27 26 26 27 28 27 26 27 27 26 26 26 26 26 26 25 26 27 27 28 29 29 30 30 30
43 42 42 43 43 41 39 36 36 37 36 35 35 35 35 37 36 32 30 30 30 30 28 25 25 26 27 27 28 27 28 28 28 28 29 29 30 31 32 33 33 33
45 43 40 38 39 39 39 38 38 39 39 37 38 37 35 34 33 31 30 29 28 28 30 30 29 29 29 28 28 28 30 30 30 31 31 31 32 33 34 34 35 35
47 46 44 41 39 39 39 40 39 39 39 38 38 39 38 38 38 37 34 33 33 31 30 31 32 33 32 31 28 29 31 32 32 32 32 32 33 34 35 36 36 37
49 49 48 46 45 45 45 45 44 44 43 42 41 40 41 42 44 42 38 38 40 39 33 31 32 33 34 34 31 29 32 34 34 34 34 35 36 37 37 38 39 39
53 53 51 50 49 48 48 49 49 48 48 49 48 46 44 44 45 45 42 39 40 41 39 37 38 38 38 38 36 32 32 34 35 36 36 38 39 40 40 39 40 41
55 55 54 54 52 51 50 50 50 49 50 50 51 50 49 48 48 49 49 48 46 46 45 43 43 43 43 43 42 40 38 37 37 38 38 40 41 42 42 42 42 44
55 55 56 55 54 53 52 51 51 50 50 51 52 52 52 51 50 49 50 52 53 52 51 50 50 51 50 49 49 48 45 43 43 43 43 43 43 44 45 46 47 48
53 54 55 55 55 54 53 54 53 52 51 51 52 53 54 54 53 52 52 53 55 55 55 54 55 55 54 53 53 52 51 50 49 48 48 47 46 47 48 50 51 52
51 52 53 54 54 54 54 55 55 54 53 53 54 54 55 55 56 56 55 55 57 57 58 57 55 54 52 51 52 52 52 52 52 52 51 50 49 50 51 52 53 54
50 50 51 52 53 54 55 55 56 56 56 57 57 57 57 57 57 58 58 58 59 60 61 59 55 53 50 49 49 50 51 52 52 52 52 51 51 51 51 52 53 54
50 50 51 52 52 53 54 54 55 56 57 57 58 58 58 58 58 58 59 59 59 61 62 60 57 54 50 47 47 48 50 50 50 50 50 50 50 50 50 51 52 53
50 51 51 52 52 53 53 54 54 55 55 56 56 57 57 57 57 57 57 58 59 60 61 59 57 54 50 47 47 48 48 48 47 47 47 47 48 49 49 49 50 51
51 51 52 52 53 53 54 54 54 55 55 55 56 56 56 56 56 56 56 57 57 57 56 55 53 52 51 49 48 47 47 47 46 45 46 47 48 48 48 48 49 50
52 52 53 53 53 54 54 55 55 55 55 55 55 56 56 56 56 56 56 55 54 53 52 52 51 51 51 50 49 48 47 46 46 46 47 48 48 48 48 49 49 50

ECMWFNIL_500_spd_015.txt.gz
Wind_Speed
25 22 22 21 19 19 18 17 16 15 15 16 17 17 17 17 17 17 17 17 16 16 15 15 14 14 14 14 14 12 11 10 9 9 9 9 10 11 12 13 13 13
25 21 21 20 19 18 18 17 15 14 14 14 15 16 16 16 16 16 16 16 16 15 15 14 14 13 13 13 13 13 11 10 9 8 8 8 8 9 10 11 11 12
25 22 21 20 18 17 17 17 15 13 14 14 15 15 15 16 16 15 15 14 14 14 13 13 13 13 13 13 13 13 12 11 10 9 8 8 8 8 8 9 10 10
25 23 22 20 19 17 17 17 16 14 15 16 16 16 16 16 16 15 14 14 13 13 13 13 13 13 14 14 13 13 13 13 12 11 10 9 9 9 9 9 10 11
26 25 24 22 20 18 18 17 17 17 17 17 18 18 17 16 16 15 15 14 14 13 13 13 13 13 14 14 14 14 14 14 14 13 12 11 11 10 10 10 11 11
27 26 26 25 23 21 20 19 19 19 18 18 19 18 18 17 16 16 16 15 14 13 14 14 13 13 13 14 14 15 15 15 15 15 14 14 13 13 12 13 13 13
29 28 29 29 26 23 22 21 20 20 19 19 19 19 19 18 18 18 18 17 16 15 15 16 15 15 15 14 14 14 14 15 15 15 15 14 14 14 13 13 14 14
31 32 33 33 28 23 22 21 20 21 20 20 19 19 20 20 20 20 20 20 19 19 19 19 19 19 18 18 17 16 16 16 16 16 16 16 16 16 16 15 15 15
32 32 34 34 29 25 24 23 22 23 23 22 21 21 22 23 23 22 21 22 22 22 23 23 23 23 22 21 20 20 19 19 18 18 19 19 19 19 19 19 18 17
34 33 33 34 33 32 31 28 25 26 27 25 24 23 23 23 24 24 24 24 25 25 25 26 27 27 26 24 23 22 22 21 20 19 19 20 20 20 21 21 21 20
34 35 35 36 37 38 34 29 27 27 28 28 27 26 26 25 25 26 26 27 27 28 29 29 29 30 29 27 25 24 23 23 22 21 21 21 22 21 21 22 23 22
34 34 35 37 38 38 35 31 29 29 29 31 32 31 29 28 28 28 29 30 30 31 32 32 32 31 30 30 28 26 25 24 24 23 23 23 23 23 23 24 25 25
37 35 35 37 39 39 37 34 33 32 32 33 34 34 32 32 32 31 31 32 32 33 34 36 35 32 30 31 29 26 25 24 24 25 26 25 25 24 24 25 26 27
40 39 38 39 40 40 39 37 36 36 35 34 33 34 34 35 36 35 35 35 36 35 34 33 33 32 30 30 28 26 26 25 26 27 28 28 27 27 27 27 27 28
44 44 43 42 42 43 43 43 42 41 40 38 37 36 35 36 37 36 35 35 36 37 33 29 29 30 30 28 28 28 28 27 28 30 30 30 29 29 29 28 28 29
47 48 48 47 46 46 45 45 45 44 44 44 43 42 41 40 39 38 38 38 37 37 36 33 33 33 33 32 32 31 31 31 30 30 31 31 32 32 31 31 31 32
50 51 51 51 51 50 49 48 47 47 47 48 47 47 46 45 45 45 45 45 42 40 40 40 40 39 38 37 36 35 35 35 34 33 32 32 33 33 33 33 34 34
52 54 54 55 55 55 54 53 52 51 51 52 51 51 50 50 49 49 49 49 47 45 45 45 45 44 44 44 42 41 40 40 40 41 39 38 37 37 38 39 38 39
50 52 54 55 56 57 58 58 58 57 56 56 55 54 54 53 53 52 51 50 49 48 48 49 49 49 49 49 48 47 47 46 46 47 47 46 46 46 46 46 45 45
47 48 50 52 53 55 56 57 58 58 58 58 57 56 55 55 55 54 54 52 51 51 51 51 52 53 52 51 50 50 50 50 50 51 51 52 52 52 51 50 49 49
48 49 49 50 51 52 53 53 54 54 55 55 55 54 54 54 54 54 54 54 54 53 52 51 52 53 53 52 52 51 50 50 50 51 52 53 54 55 54 53 52 51
50 50 50 51 51 52 52 51 51 51 52 52 52 53 53 53 53 53 53 53 53 52 51 51 51 52 52 51 51 51 52 52 51 52 52 51 51 51 52 51 51 51
52 52 52 52 52 52 52 51 51 51 51 51 51 52 52 52 52 53 52 52 52 51 51 50 50 50 49 49 49 49 50 50 50 51 51 50 49 50 49 49 49 49
54 53 52 52 52 52 52 51 50 50 50 51 51 52 52 52 52 52 51 51 51 51 51 50 50 49 48 48 47 47 47 47 47 47 48 48 49 50 49 49 48 47
54 53 51 51 51 52 52 51 51 51 51 51 51 52 52 53 53 53 52 51 50 51 51 51 51 51 50 48 48 47 47 46 46 45 46 46 47 47 47 47 47 46
54 53 52 51 51 51 51 51 51 52 52 52 53 53 53 54 54 54 53 53 52 52 52 52 53 52 51 50 50 48 47 47 46 45 45 45 45 46 46 46 45 45

ECMWFNIL_500_spd_018.txt.gz
Wind_Speed
25 23 19 17 20 22 21 19 18 16 14 12 9 7 7 8 9 10 11 11 11 11 11 11 12 12 12 11 11 10 10 10 10 10 11 11 11 11 11 11 11 10
22 22 19 18 20 22 21 19 17 16 14 12 10 7 7 8 9 9 10 10 11 10 10 10 10 11 11 11 11 10 10 9 9 9 10 11 11 11 11 11 11 10
22 22 21 21 21 22 22 20 17 16 15 13 11 10 8 9 9 10 10 10 10 10 10 10 10 10 10 10 10 11 11 10 10 10 10 10 11 11 11 11 11 11
22 21 22 23 22 22 22 21 18 17 16 15 13 12 10 10 10 10 10 10 10 10 10 10 10 11 11 11 11 11 11 11 11 11 11 11 12 12 12 12 12 12
20 21 21 23 24 22 20 21 20 19 18 16 15 14 12 12 12 12 12 12 11 11 11 11 11 11 11 11 12 12 12 12 12 13 13 13 13 13 13 13 13 13
21 21 21 24 25 23 19 20 21 20 19 18 16 15 14 14 14 14 14 14 14 14 14 13 12 12 11 11 12 13 13 13 13 13 14 14 14 14 15 15 15 15
21 21 22 24 25 24 21 20 21 21 20 19 18 17 17 17 17 17 16 16 17 17 17 17 16 15 13 13 13 14 15 15 15 15 15 15 15 15 15 15 15 16
21 21 22 23 24 25 23 21 22 22 21 19 20 19 19 20 19 19 19 18 18 19 19 19 19 18 17 16 16 16 17 17 18 18 18 18 18 18 17 17 17 16
22 21 23 23 24 26 26 24 23 24 23 21 20 21 22 22 22 21 21 20 20 21 21 21 20 20 20 20 20 19 19 19 20 21 22 22 22 22 21 20 19 19
23 23 25 25 25 26 27 26 25 26 27 25 23 23 24 25 25 24 23 22 22 23 23 23 22 22 22 22 23 23 22 23 23 23 24 25 25 25 24 23 21 21
25 26 28 28 26 26 26 25 25 27 28 27 26 26 26 26 27 27 26 25 25 25 25 25 24 24 24 25 25 25 26 26 26 26 26 26 26 26 26 25 24 22
28 28 29 29 29 29 27 27 28 28 28 28 27 26 25 26 27 27 28 28 28 28 27 28 27 26 27 28 28 29 29 30 30 29 28 27 28 27 27 26 26 25
32 31 31 32 32 32 30 30 31 31 30 30 29 27 25 24 24 25 27 29 31 31 30 30 29 28 29 32 33 34 34 34 33 31 29 29 29 28 28 28 28 28
35 35 35 36 36 35 34 32 32 33 32 32 33 32 29 27 28 28 27 27 29 32 33 33 32 31 32 34 36 37 37 35 33 32 31 31 30 28 28 28 29 30
38 39 39 40 39 39 37 35 33 34 34 34 35 36 36 35 35 34 32 31 30 30 31 33 34 34 35 35 35 35 33 30 29 31 32 32 31 30 30 30 31 32
39 40 40 41 42 42 41 39 37 37 37 38 39 40 41 41 39 38 37 37 36 35 34 34 35 37 37 36 35 34 33 32 32 32 31 32 33 33 33 34 34 34
40 39 40 41 42 43 43 42 42 42 42 42 43 44 45 45 44 42 41 40 40 40 39 39 39 40 40 40 39 39 38 38 39 39 36 34 35 35 36 36 36 35
39 39 40 41 42 43 43 42 42 42 42 43 43 44 45 46 45 45 45 44 44 44 44 44 44 43 43 43 43 42 41 41 42 43 42 40 40 40 41 41 41 40
39 39 39 40 41 41 41 40 40 41 41 41 41 42 42 43 44 44 45 46 46 47 48 48 48 47 46 45 44 43 43 44 44 45 45 44 44 45 45 45 46 47
41 40 39 39 39 39 39 40 40 41 42 42 42 42 42 42 42 43 44 45 45 46 46 47 47 47 46 45 44 43 43 44 45 46 47 47 47 47 47 47 47 48
45 43 41 40 40 40 41 43 44 44 44 44 44 44 44 44 44 44 44 44 44 45 44 44 44 44 44 44 43 43 43 43 44 45 46 47 47 47 48 48 48 48
47 45 43 41 42 43 45 47 48 48 47 47 48 48 48 48 47 46 45 45 45 45 44 44 44 44 43 43 44 43 43 43 43 44 45 46 47 47 47 48 47 46
46 45 45 44 45 46 48 49 50 50 51 51 51 51 51 51 50 49 48 47 46 46 45 45 45 45 45 44 44 44 44 44 44 44 45 46 46 47 46 46 46 45
47 47 48 49 50 50 51 52 52 52 53 53 53 53 52 52 51 51 50 49 48 48 47 46 45 45 45 45 45 45 45 45 44 44 44 45 45 45 45 45 44 45
52 53 53 54 54 54 53 53 53 53 54 54 54 53 52 51 51 51 51 50 50 49 48 48 47 46 46 46 46 46 46 46 46 45 45 46 46 46 46 45 44 45
57 57 56 55 55 54 54 53 54 54 55 54 53 52 51 50 49 50 51 51 51 51 51 51 50 50 49 48 48 48 48 47 47 47 47 47 48 48 47 46 46 46

ECMWFNIL_500_spd_021.txt.gz
Wind_Speed
25 26 27 24 19 20 21 20 19 18 16 16 16 15 14 13 12 11 10 10 10 10 10 10 10 10 10 10 11 11 12 12 13 13 14 14 15 15 16 16 17 17
18 19 18 17 17 19 20 19 18 18 17 17 16 15 15 14 13 12 11 10 9 8 8 8 8 9 9 9 9 9 10 10 11 11 12 12 13 13 14 15 15 15
17 16 15 15 16 18 18 18 19 19 19 18 16 15 15 15 15 14 12 11 9 8 8 8 8 8 8 8 8 8 8 8 9 10 10 11 12 12 13 14 14 14
16 16 15 15 16 16 17 18 20 21 21 20 18 16 16 15 15 15 14 13 10 9 8 8 8 8 9 9 9 9 8 8 8 9 10 10 11 12 12 13 14 14
14 15 15 15 16 16 17 18 20 21 22 22 20 17 17 16 16 16 16 15 13 11 10 10 10 10 10 10 10 10 10 9 9 9 10 11 11 12 13 13 14 14
15 15 15 15 16 17 17 17 20 22 24 23 21 19 17 17 17 16 16 16 16 15 13 12 12 11 11 11 11 11 11 10 10 10 10 11 12 13 14 14 15 15
18 18 16 15 16 16 17 17 19 21 21 19 20 19 19 19 19 18 18 17 17 17 15 14 14 13 13 13 13 13 12 12 12 12 12 13 13 14 14 15 15 16
17 17 16 16 16 16 16 17 17 16 16 17 20 21 21 21 21 19 19 18 18 17 16 15 15 15 15 15 15 15 15 14 14 15 15 15 16 16 16 17 17 18
16 16 16 16 16 16 16 17 16 16 17 19 22 23 24 23 22 21 20 20 19 19 19 17 16 16 16 16 16 17 18 18 17 17 17 18 19 19 20 20 20 20
19 18 17 17 18 18 18 18 18 18 17 18 22 24 24 23 22 21 20 19 19 19 20 20 19 18 18 18 18 19 20 20 20 20 20 20 21 22 22 23 23 23
21 20 20 21 21 20 19 19 19 20 19 19 20 20 20 21 22 22 21 20 20 20 20 21 21 20 19 20 21 22 22 22 22 22 22 22 23 24 25 26 26 25
22 23 23 23 22 21 21 21 21 21 20 21 21 22 23 24 23 23 23 24 25 25 25 25 25 24 23 23 24 24 24 24 24 24 24 24 25 26 29 30 31 29
25 25 24 24 23 22 23 23 22 21 21 23 25 26 26 26 25 26 26 26 27 27 27 27 28 27 28 28 28 28 27 27 26 26 25 25 26 28 30 32 33 31
27 27 27 25 24 23 23 24 24 24 25 25 26 27 26 26 27 28 26 25 26 27 26 26 26 27 28 29 30 31 30 30 29 29 29 27 26 26 28 30 31 32
31 30 29 28 26 25 26 26 25 26 27 26 26 27 27 26 26 26 26 25 25 26 26 26 27 28 28 29 29 29 30 30 31 32 32 31 28 27 26 27 28 30
34 33 32 31 30 28 28 28 26 26 27 27 26 28 29 29 30 30 30 30 30 30 31 32 33 32 31 31 31 30 30 31 32 33 34 34 33 32 31 30 30 31
38 37 36 36 34 32 31 30 28 28 30 29 29 30 31 31 32 32 32 32 33 34 36 37 36 33 32 33 33 33 33 33 34 34 35 36 36 35 36 35 34 36
41 40 39 38 37 36 34 32 31 32 33 32 31 32 33 33 33 33 33 33 34 34 36 36 33 32 32 33 34 35 36 36 37 37 38 39 38 38 38 39 39 40
43 42 41 40 40 39 38 37 35 34 34 34 33 34 35 35 34 33 32 32 33 34 36 35 33 32 33 34 35 36 37 38 39 39 39 40 41 41 42 42 42 44
45 44 43 42 41 41 41 40 39 38 37 36 36 36 36 36 35 35 34 35 37 38 37 37 36 36 36 36 37 37 37 38 38 39 39 39 40 42 42 43 44 45
46 45 44 43 42 42 41 41 40 40 39 39 39 38 38 37 37 38 38 39 40 40 40 40 40 40 40 40 39 39 39 39 39 39 39 39 40 40 41 42 44 45
43 43 42 42 42 42 42 42 42 42 42 41 40 40 39 39 40 41 42 42 43 43 43 43 44 44 44 43 42 41 41 40 40 40 41 41 41 41 41 42 43 44
43 43 43 44 44 44 45 45 44 44 44 43 42 41 41 41 42 43 44 44 45 45 45 45 46 47 47 46 44 43 43 42 42 42 42 42 43 43 43 43 43 44
45 45 45 46 46 46 45 45 45 45 44 44 43 42 42 43 44 45 46 46 46 46 46 46 47 48 48 47 45 45 44 44 44 44 43 43 43 43 43 44 44 45
42 43 43 42 43 43 44 45 46 46 46 46 45 45 45 47 48 48 48 48 47 47 47 47 48 48 47 47 46 46 46 46 45 45 44 44 44 44 44 45 45 45
44 44 45 45 45 45 45 45 46 48 49 49 49 50 51 51 50 49 48 48 47 47 47 48 48 48 48 48 48 47 47 47 47 46 46 46 45 45 45 45 45 45

ECMWFNIL_500_spd_024.txt.gz
Wind_Speed
24 24 24 24 23 24 25 23 21 18 14 12 12 12 12 13 14 15 15 17 18 20 21 21 21 21 20 18 16 14 13 12 12 13 13 14 14 15 15 16 17 18
24 22 20 19 18 18 15 15 15 15 13 13 12 12 12 12 13 14 15 15 17 19 20 20 20 20 20 19 17 16 14 13 12 12 12 12 11 11 11 12 12 13
19 17 16 15 16 16 14 13 15 15 14 14 13 13 13 12 13 14 15 15 16 17 18 19 19 19 19 18 18 17 17 16 15 14 13 12 11 10 9 9 9 9
13 13 12 12 13 13 13 14 15 16 15 14 15 15 14 13 14 15 16 16 16 17 17 17 18 18 17 17 17 17 17 17 17 16 15 14 13 11 10 9 9 9
10 10 10 10 11 12 13 14 15 15 14 15 16 17 16 16 16 16 17 18 17 17 17 17 17 17 17 17 17 17 17 17 17 16 16 15 14 13 12 11 10 10
10 10 11 12 12 12 13 14 14 14 14 15 17 19 20 18 16 16 17 18 18 18 18 17 17 17 17 17 17 17 17 17 17 16 16 15 14 13 12 11 11 10
11 11 11 11 11 12 12 13 13 14 14 15 17 18 17 15 14 15 16 17 18 19 19 18 18 18 18 18 18 18 18 17 17 17 16 15 14 13 12 12 11 11
11 10 8 8 9 10 10 12 13 13 14 15 14 14 14 15 16 16 16 17 19 19 20 19 18 18 17 18 18 19 19 19 19 18 17 16 15 14 13 13 13 14
12 11 10 10 11 11 10 10 12 13 13 14 14 15 16 18 18 18 18 18 19 20 20 20 19 19 18 18 18 19 20 20 20 20 20 19 18 16 15 15 15 15
16 15 14 13 13 12 11 11 13 13 14 14 14 15 17 18 19 19 19 18 17 18 20 20 20 19 19 20 20 20 20 20 21 21 22 22 21 19 19 18 18 18
18 17 16 15 14 13 13 13 13 14 14 15 15 16 17 19 19 18 17 16 16 17 18 20 20 20 21 21 21 21 20 20 20 21 23 23 23 22 22 21 21 20
19 18 17 17 15 14 13 14 14 15 16 17 17 17 17 18 19 19 20 20 20 19 19 20 22 23 23 23 22 21 20 20 21 22 24 25 25 24 23 23 22 22
21 21 20 19 18 17 16 16 17 17 18 18 18 17 18 19 21 23 23 23 22 21 21 21 23 24 25 25 25 24 23 23 23 23 25 27 27 27 25 24 24 25
26 26 26 25 25 25 24 22 20 20 19 19 20 21 22 22 23 24 25 23 22 23 24 24 25 25 26 27 27 26 25 24 22 23 25 26 27 28 27 26 26 26
31 31 31 31 31 31 30 28 25 23 22 22 23 25 25 24 24 25 24 23 23 24 24 24 23 23 24 26 28 27 26 24 24 26 27 27 28 28 28 28 27 27
35 34 34 33 34 34 33 31 29 27 25 25 26 27 26 25 25 24 23 23 26 26 24 23 25 25 25 27 27 28 28 29 30 31 31 32 33 33 32 31 30 28
38 38 37 36 36 36 35 34 32 30 29 29 28 28 27 26 26 27 28 28 29 28 25 25 28 29 28 28 29 31 32 34 33 32 32 34 35 36 36 35 35 33
40 40 39 38 37 37 37 36 33 31 31 31 31 31 31 29 29 30 31 31 30 31 30 30 31 32 32 34 35 35 34 32 31 31 33 34 34 35 36 37 37 38
43 42 41 39 38 38 37 36 34 34 35 34 34 33 33 31 30 29 29 30 31 33 34 34 34 35 35 36 36 34 32 31 32 33 34 35 35 36 37 38 38 39
44 42 41 40 40 40 39 39 39 40 40 38 37 37 35 34 34 33 33 33 34 35 36 36 35 35 35 34 33 33 34 35 36 36 35 35 36 37 38 39 39 40
43 42 41 42 42 42 42 43 43 43 43 41 40 41 41 40 39 38 37 36 36 36 36 36 35 34 34 34 34 35 36 38 38 38 38 37 37 37 38 39 40 41
44 44 43 43 43 44 44 44 43 41 40 40 39 40 41 41 40 39 37 36 36 36 36 36 35 35 35 36 37 38 39 40 41 41 40 39 39 39 39 39 40 41
42 42 41 41 42 42 41 40 38 37 37 37 38 39 40 41 41 40 38 37 37 36 36 37 37 37 37 38 40 41 42 43 43 43 42 42 42 42 41 40 40 41
39 38 39 40 40 40 40 39 40 41 41 41 42 42 43 43 42 41 39 38 38 38 38 38 39 39 40 41 42 43 44 44 44 44 44 44 44 43 43 42 42 42
38 39 40 41 40 40 40 40 41 41 41 41 40 41 41 41 40 39 39 38 39 39 40 40 41 42 42 43 44 45 44 44 44 44 44 45 45 44 44 43 43 43
37 38 38 39 39 39 39 38 37 38 39 38 38 39 39 40 40 39 39 40 41 42 42 43 43 44 44 45 46 45 45 45 45 45 46 45 45 44 44 44 44 44

ECMWFNIL_500_spd_027.txt.gz
Wind_Speed
23 23 24 24 24 24 24 24 25 25 26 26 25 23 22 22 21 19 17 16 15 15 15 15 17 18 20 22 24 25 27 27 28 28 27 27 26 24 23 23 22 21
21 21 22 22 21 19 19 20 21 20 19 18 17 17 18 20 19 17 15 15 14 14 14 15 16 17 19 21 22 24 25 26 27 27 26 26 26 25 24 23 23 22
18 18 16 16 15 14 14 15 17 16 14 14 14 15 17 18 17 15 14 14 13 14 14 15 16 17 18 19 21 22 23 24 24 24 24 24 24 24 23 22 22 21
16 14 12 11 11 11 12 13 14 14 14 14 14 14 16 16 15 14 13 13 13 14 15 16 16 17 18 19 20 20 21 21 21 21 21 21 21 21 21 20 20 19
13 12 11 11 11 11 11 12 13 13 14 15 14 14 15 15 14 13 12 13 14 15 15 16 17 17 17 18 18 19 19 19 19 19 19 19 19 19 19 19 18 18
11 12 11 11 12 13 13 13 13 15 15 15 15 15 15 14 14 13 14 14 14 14 14 15 16 17 18 18 18 18 18 18 18 18 18 18 18 18 18 18 18 17
11 12 12 12 12 13 14 14 15 15 16 16 16 16 15 14 13 14 14 14 13 13 13 14 15 17 18 18 18 18 18 19 19 19 19 19 19 19 19 19 18 18
12 13 13 14 14 13 13 14 15 15 16 17 17 17 16 14 13 13 13 13 14 14 14 14 15 16 17 18 19 19 19 19 19 19 19 20 20 20 20 20 19 19
13 13 14 15 15 15 15 15 15 15 16 17 16 16 16 16 15 15 15 15 16 16 16 16 16 17 17 17 18 19 19 20 19 19 19 20 21 21 21 21 20 20
13 13 14 15 16 17 17 17 17 17 17 17 16 15 16 17 17 17 16 17 17 18 17 17 17 18 18 19 20 21 21 21 21 21 21 21 21 21 22 22 22 21
15 14 15 16 17 17 17 18 18 18 17 17 16 16 16 17 18 18 18 18 19 18 18 17 17 18 19 20 20 21 21 21 22 22 22 22 22 21 22 22 23 23
18 17 16 15 16 17 17 17 18 17 16 15 15 16 16 18 19 19 20 20 20 19 19 19 20 20 20 20 21 22 22 22 22 23 23 23 22 22 22 22 23 23
21 20 19 18 17 17 17 17 17 18 17 17 18 18 18 19 20 21 21 21 21 22 22 23 23 23 22 22 22 23 23 23 22 22 23 24 24 24 24 24 25 25
21 22 23 22 22 22 22 22 22 23 24 23 22 21 21 22 22 23 23 24 25 25 25 25 25 24 22 22 23 24 24 24 23 23 25 26 27 27 26 25 25 26
25 25 26 26 27 27 28 29 29 29 29 28 26 25 25 25 26 27 28 28 28 27 27 27 26 25 23 23 24 24 25 26 26 26 26 28 30 28 26 24 24 25
29 29 30 30 31 31 32 33 33 33 33 32 31 30 29 30 31 31 31 30 28 29 29 28 26 24 24 25 26 25 26 26 27 28 29 31 31 29 28 27 28 28
33 34 34 34 34 34 35 35 35 35 35 35 35 35 35 35 34 33 32 30 28 30 30 29 28 25 24 27 29 29 29 28 29 30 31 31 31 30 30 32 33 33
38 38 38 38 38 38 38 38 38 38 37 38 38 38 39 38 36 33 32 30 29 31 32 32 32 30 27 30 33 32 32 31 31 31 31 31 32 32 33 34 35 34
41 41 41 41 41 42 42 41 41 40 40 40 40 40 40 38 36 35 34 33 31 33 35 35 36 35 33 34 35 35 34 33 32 33 34 35 36 35 34 35 34 34
43 43 43 43 44 45 45 44 43 42 42 42 41 42 42 40 37 35 34 34 33 34 34 35 36 36 34 34 36 36 37 36 36 37 37 37 37 35 35 36 36 36
43 43 43 43 44 44 44 45 44 43 43 43 42 43 44 42 39 37 37 37 37 37 37 37 37 36 36 36 37 37 38 38 38 39 38 37 37 37 37 37 37 37
46 46 44 42 41 41 42 43 43 43 43 43 43 45 46 45 44 43 43 43 43 42 41 41 40 39 39 39 38 38 38 38 38 38 39 38 38 38 38 38 38 39
49 46 44 42 41 41 40 41 41 42 43 43 44 45 46 47 46 46 46 46 46 46 45 44 43 42 41 40 39 39 39 38 38 39 40 40 39 39 38 38 39 40
48 45 44 42 40 40 40 40 40 41 42 42 44 45 46 46 46 45 43 41 42 43 43 43 43 42 41 41 41 41 40 40 40 41 41 41 40 39 39 39 40 40
49 46 44 43 42 42 43 44 44 43 42 41 41 42 43 43 43 42 40 39 39 41 42 42 43 43 43 44 43 42 42 42 42 43 43 43 42 42 42 42 42 42
54 52 51 51 51 51 51 51 49 47 45 44 43 42 43 43 42 43 43 43 42 42 43 43 43 43 43 43 42 41 41 42 42 43 43 44 44 45 45 45 44 44

ECMWFNIL_500_spd_030.txt.gz
Wind_Speed
18 19 20 20 21 22 23 24 24 25 25 25 25 25 26 26 24 24 23 21 20 19 19 19 17 16 15 15 15 15 15 16 18 20 21 23 24 25 25 24 24 24
20 20 20 20 20 21 22 22 22 22 21 21 21 22 22 22 21 20 18 17 17 17 18 17 16 15 15 14 14 14 14 15 16 18 20 21 22 23 22 22 21 21
21 20 19 18 17 17 18 18 18 18 18 18 18 19 19 18 17 16 16 16 16 17 17 16 15 15 14 14 14 14 14 14 15 17 18 19 20 20 20 19 18 18
22 21 19 18 17 16 17 16 16 16 17 18 18 18 18 17 16 16 17 17 17 17 16 16 15 15 14 13 13 13 13 14 14 16 17 17 18 18 18 17 17 16
21 20 18 16 16 16 16 16 16 15 16 17 17 17 16 16 16 17 18 18 18 18 17 16 16 15 14 13 13 13 13 13 14 15 16 16 17 17 17 17 16 16
18 17 16 16 16 16 15 15 15 15 16 17 17 17 16 16 16 17 18 18 19 19 18 17 17 16 16 14 13 12 12 13 14 15 15 16 16 16 16 16 17 17
17 17 16 16 16 15 15 15 15 15 16 17 18 18 18 17 17 17 18 19 20 20 20 19 18 17 17 16 15 14 13 14 15 15 16 16 16 16 16 17 17 17
17 17 17 17 16 15 15 15 15 15 15 15 15 16 17 18 18 18 18 19 20 21 21 21 19 18 17 17 17 16 15 15 15 16 17 18 18 18 18 18 18 17
17 17 17 17 17 16 16 15 15 15 15 14 14 15 16 18 20 20 19 19 19 19 19 19 19 18 18 18 18 18 18 18 17 18 18 19 19 19 20 20 19 19
16 17 17 18 18 18 18 17 17 17 16 15 15 15 16 18 19 19 19 19 19 20 20 20 20 19 19 20 20 20 21 21 20 19 19 19 19 20 20 21 21 21
17 17 17 18 18 19 19 19 19 19 18 17 16 16 16 17 18 19 19 20 20 20 21 21 21 20 20 20 21 21 22 22 21 20 20 20 21 21 21 22 22 23
20 20 20 20 20 20 20 20 21 21 20 19 18 18 17 17 17 17 18 19 20 20 21 21 21 20 20 20 21 21 21 21 21 21 21 22 22 23 24 24 25 25
22 22 23 23 22 21 21 21 22 22 22 21 20 20 19 19 18 18 18 19 20 21 21 21 20 20 20 21 23 24 24 24 24 24 24 24 25 26 26 27 27 27
21 21 23 23 23 22 22 22 22 23 23 22 21 21 21 22 22 23 24 23 23 22 23 23 22 22 22 23 25 27 28 28 27 26 27 27 28 28 29 29 28 28
21 21 22 22 23 23 23 23 24 25 25 25 25 25 26 27 28 28 29 28 27 26 25 26 27 27 26 27 28 28 29 29 29 29 28 28 29 30 30 30 30 31
25 24 24 24 25 25 25 26 27 28 29 29 30 30 30 31 31 32 32 32 31 30 30 30 31 31 30 30 29 30 29 29 29 29 28 27 29 31 31 31 31 32
30 29 29 28 28 29 29 30 31 31 32 33 33 33 34 34 34 34 35 35 35 35 35 35 35 34 34 33 33 33 32 30 30 29 28 29 30 32 32 32 32 33
34 34 34 33 33 33 34 34 35 35 35 36 36 37 37 38 38 39 38 38 38 38 38 38 38 38 37 37 36 35 33 31 30 30 30 31 33 34 35 35 34 34
37 37 37 37 37 37 37 38 38 38 38 39 39 39 40 41 42 43 42 41 40 40 41 41 41 39 38 38 38 37 35 33 32 32 32 33 35 36 37 37 36 35
40 41 41 41 41 41 42 41 41 41 41 41 40 40 42 44 45 45 45 44 43 42 42 42 41 40 40 40 40 40 39 37 36 35 35 37 39 39 39 39 38 37
44 44 44 43 42 42 42 42 42 41 40 40 41 42 43 44 45 46 46 45 44 44 44 43 43 42 42 42 42 42 41 40 39 37 37 38 39 39 39 39 39 40
44 43 42 41 40 40 40 41 41 41 42 44 45 44 44 44 46 47 47 47 46 45 46 46 45 44 43 42 41 41 40 39 38 38 39 40 39 38 38 39 40 41
46 46 46 46 46 46 46 45 45 46 48 49 47 46 46 46 47 48 49 49 48 47 47 47 46 45 44 43 43 42 42 42 42 42 43 45 44 43 42 41 41 41
52 52 52 52 52 51 50 50 50 50 51 50 48 47 47 47 47 48 49 49 47 46 46 48 48 47 47 47 47 47 47 48 48 48 48 49 48 47 45 44 43 44
56 56 56 56 56 55 55 54 53 52 51 50 48 48 48 49 48 48 48 46 45 44 44 46 48 49 50 50 50 50 50 51 51 51 51 50 49 48 47 46 46 45
60 60 60 60 59 59 59 58 57 55 53 51 49 49 49 49 49 48 47 46 45 45 45 46 48 49 49 49 49 49 49 49 49 49 49 48 48 47 47 47 46 46

ECMWFNIL_500_spd_033.txt.gz
Wind_Speed
20 20 19 18 17 17 18 18 18 18 18 18 17 17 17 17 18 17 17 17 18 19 20 20 20 19 19 18 18 18 18 18 18 18 17 16 15 14 14 13 14 15
21 21 21 20 20 19 19 19 18 17 15 14 13 14 14 15 16 16 16 16 16 17 18 18 17 17 17 17 18 18 18 18 18 17 16 15 14 13 13 13 14 14
22 23 23 23 22 21 20 19 17 15 14 14 14 14 14 15 16 17 17 17 16 16 16 16 16 16 17 17 18 18 18 18 17 16 15 14 13 13 13 13 13 14
22 24 25 25 23 22 21 19 17 16 16 15 15 15 15 15 15 16 17 17 17 17 17 16 16 17 17 17 18 18 18 18 18 17 15 14 13 13 13 13 13 13
25 25 25 24 24 23 22 20 17 17 17 16 16 16 15 15 15 15 15 15 15 16 17 17 17 17 17 18 18 19 19 19 19 18 16 15 14 13 13 13 12 13
26 24 22 22 22 22 21 20 18 18 18 17 16 16 16 16 16 15 15 15 15 15 16 17 17 17 17 18 18 19 19 19 19 19 17 16 16 15 15 14 14 13
27 24 22 22 22 22 21 20 19 19 19 17 17 17 16 16 16 16 16 16 16 16 16 17 17 18 18 19 19 19 19 18 19 19 18 18 17 17 16 15 15 15
28 25 24 24 24 23 22 21 20 19 19 18 18 17 16 16 15 15 15 15 15 15 16 17 17 18 18 18 18 18 18 18 18 19 19 19 19 18 17 16 16 16
29 26 24 24 24 24 23 21 21 21 20 20 19 18 17 16 15 15 14 14 15 15 15 16 17 17 16 16 17 18 18 18 19 19 20 20 20 19 19 18 18 18
26 24 23 23 23 24 23 22 22 22 22 21 20 19 18 18 17 16 16 15 15 15 15 15 16 17 17 18 19 20 20 21 21 21 21 21 21 20 20 21 21 21
23 22 22 23 23 24 24 24 24 23 23 22 22 20 20 20 20 19 18 18 17 16 16 16 16 17 17 19 20 20 21 21 21 22 22 21 21 21 22 23 23 23
23 23 23 24 24 25 25 25 25 24 24 23 23 22 22 22 21 21 21 20 20 19 17 16 16 16 17 18 19 20 20 20 20 21 22 22 22 22 23 24 25 26
24 24 24 24 24 25 25 25 25 25 24 24 23 23 24 24 24 23 23 22 21 19 17 15 15 15 16 17 19 20 20 20 20 21 22 23 24 25 25 26 27 27
23 24 24 24 25 26 27 27 26 25 25 25 24 24 25 25 24 24 23 23 21 20 19 18 18 19 19 19 20 21 22 22 23 24 25 26 26 27 27 28 30 30
23 24 24 24 25 26 26 27 27 27 26 26 25 24 24 24 24 23 23 23 24 25 25 24 24 24 23 23 23 24 25 27 28 29 29 29 29 29 29 30 32 33
24 25 24 24 25 25 25 26 26 26 27 27 26 26 26 26 26 26 26 27 28 29 29 29 29 29 28 28 28 28 29 31 32 33 33 32 32 32 32 32 34 35
26 26 25 26 26 26 27 27 26 27 27 28 29 29 29 30 30 30 30 31 31 32 32 32 33 33 33 33 33 32 33 34 35 35 36 35 35 35 35 35 35 35
28 28 29 29 29 29 30 30 30 30 30 31 32 32 33 33 33 33 34 34 35 35 35 35 36 38 37 37 37 36 36 37 38 38 38 38 38 38 37 37 36 36
32 32 33 33 34 34 34 34 34 35 35 35 35 36 37 37 37 37 37 38 38 38 38 38 39 40 39 39 39 39 39 40 41 41 41 40 40 39 38 38 38 39
36 36 36 37 37 37 37 38 38 38 38 38 38 39 40 40 40 40 40 40 40 40 40 40 40 41 41 40 40 41 42 42 42 43 42 41 40 39 39 38 39 41
39 39 39 39 39 40 40 40 41 41 41 42 43 43 44 44 44 44 44 44 43 43 41 41 42 42 42 41 41 42 43 44 44 45 44 43 42 42 42 41 41 43
41 42 42 43 42 42 42 42 42 41 41 42 43 44 44 44 44 43 43 43 44 44 43 43 44 43 43 43 43 43 45 46 47 47 46 45 45 45 45 46 45 45
47 47 48 48 47 46 45 44 43 42 42 41 41 41 41 42 42 43 43 44 45 47 47 48 47 46 45 45 46 47 48 48 49 49 48 48 47 46 46 46 45 45
52 51 50 49 48 48 47 47 47 47 47 47 46 46 47 47 48 49 49 49 49 50 51 51 50 48 48 47 48 49 49 49 49 50 49 48 47 47 47 47 46 46
52 51 51 51 51 52 52 53 53 53 53 52 51 52 52 53 53 53 53 53 53 53 53 53 52 50 49 49 48 48 48 48 49 49 50 50 50 50 50 50 50 51
56 56 57 57 58 58 58 58 57 57 56 55 55 54 55 55 56 56 56 56 56 56 56 55 52 49 49 49 49 48 49 49 48 48 49 50 51 52 52 52 53 53

ECMWFNIL_500_spd_036.txt.gz
Wind_Speed
15 16 15 14 13 14 15 14 13 12 11 11 11 10 9 9 9 8 8 9 10 12 12 12 13 14 15 16 16 16 15 15 15 15 14 14 14 13 12 12 11 11
17 17 17 16 15 16 17 16 16 15 12 12 10 9 9 9 8 8 8 8 10 11 12 12 12 13 14 14 14 14 15 15 16 16 16 16 16 15 14 13 12 12
18 18 19 18 17 19 20 20 18 17 14 13 11 10 11 11 10 10 9 9 10 11 12 12 12 12 12 13 13 14 14 15 16 17 17 17 17 17 17 16 15 15
19 19 20 20 19 20 21 22 21 19 16 14 13 13 13 13 12 12 11 10 10 11 11 11 11 11 11 11 12 12 13 14 15 16 16 17 17 17 17 17 16 15
24 21 21 23 22 22 22 23 23 21 19 17 16 16 15 15 14 13 12 12 11 11 11 11 10 10 10 10 10 10 11 12 13 14 15 16 17 17 17 17 16 15
28 24 22 25 26 25 23 24 24 23 21 20 18 17 17 16 16 15 14 14 13 13 13 12 12 12 12 11 11 10 10 11 12 13 14 15 16 17 17 17 17 16
27 25 24 26 28 27 25 24 24 23 22 21 19 19 18 17 17 16 15 15 15 14 14 14 14 14 14 14 13 12 11 12 12 13 13 14 14 15 16 17 18 18
25 25 25 27 27 26 26 25 25 24 22 21 20 19 18 17 17 17 16 16 16 15 15 14 14 14 15 15 15 14 12 11 11 11 12 13 14 15 16 17 18 18
24 25 25 27 27 26 25 26 26 26 24 22 21 19 18 18 18 18 18 18 18 17 16 15 15 14 14 15 15 14 13 12 11 11 12 13 14 15 16 17 18 18
23 25 26 27 26 26 27 28 28 27 25 23 21 20 20 20 20 20 20 20 19 18 17 17 16 15 14 14 14 14 14 13 13 13 13 14 14 15 15 16 17 18
20 22 26 27 28 29 30 29 29 27 25 24 23 23 22 22 22 22 22 22 21 19 19 20 18 16 15 14 14 14 14 14 14 14 14 14 14 14 14 15 17 18
17 18 23 25 27 29 30 29 28 26 25 25 24 24 24 24 24 23 23 23 22 21 21 21 20 18 16 15 14 14 14 15 15 15 15 14 14 14 14 16 17 19
17 17 20 22 23 25 26 27 26 25 25 25 25 25 26 26 25 25 24 23 22 22 22 21 20 19 17 14 13 14 15 16 17 17 16 16 16 16 17 18 20 21
18 19 21 21 20 21 23 24 25 25 25 25 25 26 26 26 26 25 24 23 23 22 22 21 20 19 18 16 15 16 16 17 18 18 19 19 20 20 21 22 23 24
17 19 20 20 20 21 22 24 25 25 26 25 25 25 27 27 26 25 25 26 25 24 24 23 23 22 21 21 21 21 20 20 21 22 22 23 24 25 26 27 28 29
15 16 17 18 19 20 22 23 24 25 26 27 25 24 25 27 27 26 27 28 27 27 26 26 25 25 25 25 25 26 25 25 25 26 26 27 28 29 31 32 33 33
16 16 17 17 18 19 21 22 23 24 26 28 26 23 23 25 25 25 26 27 28 28 28 28 28 28 29 28 29 30 30 30 30 30 30 31 31 32 34 35 37 36
19 19 20 20 21 22 22 23 24 26 27 28 28 27 26 25 25 25 26 26 28 28 29 30 31 31 32 33 33 33 33 33 33 33 34 35 35 35 36 37 37 36
23 23 24 25 25 26 26 26 28 29 29 29 31 32 30 28 27 27 28 29 30 31 32 33 33 34 35 36 37 36 36 36 36 37 37 37 38 38 38 40 41 40
26 27 28 29 29 30 29 30 31 32 31 31 31 32 31 31 30 31 32 33 33 34 35 35 36 37 38 40 40 39 39 39 39 39 40 40 40 40 41 44 44 42
30 31 32 33 34 34 33 33 34 35 34 34 34 35 36 36 36 36 37 37 37 38 39 39 39 41 42 44 44 44 42 41 40 39 39 40 41 41 42 44 43 43
34 35 36 37 38 38 38 37 37 37 38 38 39 39 40 40 40 41 41 41 41 42 43 43 42 43 45 47 47 46 44 43 41 40 40 42 43 43 45 46 46 46
39 40 40 41 42 42 42 42 42 42 42 41 41 42 43 44 45 44 43 44 44 44 44 44 43 44 45 46 46 45 44 44 44 45 45 46 47 48 48 49 49 50
43 44 43 43 44 45 44 44 45 45 44 44 44 46 48 48 48 47 46 46 46 45 45 45 45 46 47 48 47 47 48 49 49 49 50 50 50 50 50 51 51 51
43 44 44 44 45 46 46 45 46 47 47 48 49 47 47 47 48 48 47 47 48 48 50 51 51 51 51 52 52 52 52 52 52 52 53 52 52 52 51 50 50 50
45 46 46 46 45 46 46 47 48 49 50 51 50 49 50 51 52 53 54 55 55 55 56 56 54 53 53 53 54 54 53 52 52 52 53 53 52 51 49 47 47 49

ECMWFNIL_500_spd_039.txt.gz
Wind_Speed
11 12 14 14 14 16 17 17 15 13 12 11 11 11 11 11 11 11 11 11 11 10 10 9 9 8 8 8 9 9 9 9 8 8 7 7 7 7 8 9 10 12
12 13 13 14 16 18 19 17 16 14 13 12 12 11 11 11 11 10 10 9 9 9 8 7 7 6 6 6 6 7 7 8 8 7 7 7 7 7 7 7 9 10
15 13 11 12 15 19 21 20 17 16 15 14 13 12 11 12 13 12 10 10 9 9 7 6 5 5 4 5 5 6 7 7 7 7 6 6 6 6 6 7 8 9
16 15 14 14 15 18 22 22 19 16 16 16 15 14 13 14 15 14 12 11 11 10 8 6 5 5 5 5 5 5 6 6 6 6 6 5 5 6 6 7 8 8
16 16 16 18 18 17 20 23 21 17 15 15 15 15 15 15 16 16 14 13 12 11 10 8 7 6 6 6 6 6 6 6 6 6 6 6 6 7 7 7 7 7
15 17 18 19 19 18 18 21 23 20 17 15 15 16 17 18 18 18 17 15 14 13 12 11 10 9 8 7 7 7 8 8 8 7 7 7 6 7 7 7 7 7
11 14 18 19 19 18 18 19 22 23 22 20 17 17 18 19 19 19 17 16 15 14 14 13 13 11 11 10 9 9 8 8 8 7 7 7 6 7 7 7 7 7
12 13 16 18 18 19 19 19 20 23 24 23 20 18 18 18 19 18 17 16 16 15 15 15 14 14 13 12 11 10 9 8 8 7 7 7 7 7 7 7 7 8
18 16 17 18 18 19 20 20 20 21 22 23 21 19 18 17 17 17 17 17 16 16 15 15 15 14 14 13 12 10 9 9 9 9 9 9 9 9 9 9 9 9
23 21 19 18 18 19 19 19 19 20 21 22 20 19 18 18 18 18 18 17 16 16 15 14 14 14 14 14 13 11 10 11 11 11 11 11 11 11 11 11 11 11
21 22 21 18 16 16 17 17 18 19 20 21 21 20 20 20 20 20 19 18 17 16 16 15 15 14 14 13 13 12 11 12 12 12 12 12 12 12 12 12 11 10
20 22 21 17 13 12 13 14 16 19 21 23 24 23 22 22 21 20 19 18 17 18 17 17 16 14 13 13 12 12 11 11 12 12 13 13 14 14 14 13 12 11
20 21 19 17 14 13 14 15 16 18 21 23 23 24 24 23 22 20 19 18 18 19 18 17 16 14 12 12 11 10 10 10 11 12 13 14 15 15 15 15 15 15
17 18 17 16 16 15 16 17 17 17 19 20 21 22 23 23 22 21 20 20 20 20 19 18 16 14 13 12 11 11 11 11 12 14 14 15 16 16 16 17 17 19
16 16 15 15 15 15 16 17 17 17 18 20 21 22 22 22 21 21 21 22 21 21 19 19 17 15 14 14 14 15 15 16 16 17 18 19 19 19 19 18 19 21
15 16 16 16 15 14 13 15 18 19 20 20 21 21 21 22 21 21 22 23 23 23 21 21 20 19 18 17 17 18 19 20 21 22 23 24 24 24 23 23 23 25
15 16 15 15 14 13 13 12 15 19 19 19 20 20 21 22 22 22 22 21 22 23 23 23 23 22 22 21 21 22 23 24 25 26 27 28 28 28 29 29 29 31
17 17 16 16 15 15 15 14 15 18 18 17 19 20 21 22 23 23 22 21 20 21 22 22 22 23 23 24 24 25 26 27 28 29 30 30 30 31 32 33 34 35
19 20 22 22 21 20 21 22 23 23 21 20 21 22 23 24 24 24 25 23 22 23 23 23 24 24 25 26 27 28 29 30 31 31 32 32 33 34 35 36 37 37
22 23 24 25 25 26 27 28 28 26 25 24 25 25 26 27 27 27 27 26 26 26 26 26 27 27 28 29 30 31 32 33 33 34 34 35 36 37 38 39 39 39
27 28 28 29 29 30 30 30 30 29 28 28 28 29 30 31 31 31 30 29 28 28 29 30 30 30 31 32 33 33 34 35 36 37 37 37 37 37 39 41 41 41
31 31 32 32 33 33 33 33 33 33 32 32 32 33 35 36 36 35 34 33 32 31 32 32 32 33 34 35 36 36 38 39 40 40 40 39 38 38 39 41 43 44
33 33 34 35 35 35 35 35 35 35 35 36 36 38 38 39 39 39 38 37 35 34 34 35 35 36 37 38 39 40 41 42 42 42 42 41 41 42 43 44 45 46
36 36 36 36 37 37 37 37 37 37 37 38 39 41 42 43 43 44 44 43 41 39 39 39 38 39 40 40 41 42 42 42 43 43 44 45 46 47 48 47 47 48
38 38 38 38 39 39 39 40 40 40 40 41 42 43 44 45 47 48 49 49 48 47 47 45 43 42 42 41 41 42 43 44 44 46 48 50 51 52 51 50 49 51
41 41 41 41 42 42 42 43 43 43 43 44 44 45 45 46 47 48 49 50 50 50 51 50 49 48 46 45 44 46 47 48 50 52 54 56 55 54 53 53 52 53

ECMWFNIL_500_spd_042.txt.gz
Wind_Speed
14 14 13 13 12 12 13 14 14 13 13 13 13 14 14 14 15 15 15 16 17 18 20 20 19 19 18 18 17 17 16 15 14 13 13 13 13 12 12 11 11 10
14 15 14 14 14 14 15 16 16 15 14 14 15 15 14 14 14 14 14 14 14 15 16 17 17 17 17 16 16 15 13 11 10 11 12 12 12 12 12 11 10 9
13 15 16 15 15 15 16 17 17 16 16 16 17 17 15 14 14 14 14 14 13 13 14 14 15 15 15 14 14 13 11 10 10 10 11 12 13 13 13 11 11 10
14 16 18 18 17 16 17 17 17 17 17 18 18 18 17 16 15 15 15 15 14 14 14 14 14 13 13 13 13 13 12 11 12 12 12 12 13 13 13 13 12 11
17 17 18 19 19 19 19 18 17 16 18 18 18 19 19 18 17 16 16 16 15 15 14 14 13 13 12 13 13 14 14 14 14 13 13 13 14 14 14 14 13 12
19 19 18 19 21 22 22 21 19 17 17 19 19 18 18 17 17 17 17 17 16 16 16 15 14 13 13 13 14 14 15 15 15 15 15 15 15 15 14 14 13 13
20 20 20 21 22 24 24 22 20 18 17 19 21 20 18 16 16 17 18 18 18 17 16 16 15 14 14 15 15 15 16 16 16 16 16 16 16 15 14 14 13 13
21 21 20 19 19 20 22 20 18 17 16 18 22 23 20 18 16 16 17 18 18 17 16 16 16 15 15 15 15 15 16 16 15 16 16 16 15 14 14 14 13 13
23 23 21 18 16 15 17 17 16 16 17 19 22 24 23 20 17 16 16 16 17 17 17 16 16 16 16 15 15 15 15 15 15 15 14 14 14 14 14 13 13 13
23 26 24 20 17 15 15 15 15 16 18 20 22 23 22 20 17 16 16 16 17 17 17 16 16 17 17 16 16 15 15 15 15 14 14 14 14 13 13 12 12 12
20 23 23 23 23 19 16 15 16 17 18 19 21 22 22 20 18 17 17 18 18 17 16 16 16 16 16 16 16 15 16 15 15 15 15 15 14 13 12 11 11 10
17 19 21 26 27 22 16 14 15 16 17 18 20 22 22 20 19 19 19 19 18 17 16 15 15 15 16 16 16 16 16 16 16 17 17 16 15 13 12 11 10 10
18 18 19 23 25 21 16 14 14 15 15 16 19 22 23 23 22 20 19 19 19 18 17 16 15 15 16 16 16 16 17 17 17 17 17 16 15 13 11 11 11 12
19 17 16 18 20 20 18 17 16 17 16 17 19 22 23 23 22 20 19 19 19 19 18 18 17 16 16 17 17 17 17 17 17 17 17 17 15 14 13 13 14 15
16 15 15 16 18 19 18 17 18 19 20 21 21 22 22 23 21 20 19 19 19 19 18 18 17 17 17 17 17 17 17 17 18 18 18 18 17 17 17 17 18 19
14 16 17 17 17 17 17 17 17 17 20 22 23 21 21 23 22 21 20 20 19 19 18 18 18 18 18 18 19 19 19 19 20 19 19 19 19 19 19 20 21 22
14 15 15 16 16 16 16 16 15 16 17 19 22 23 22 23 23 22 21 21 21 21 20 20 20 21 21 21 21 22 22 22 22 22 21 21 21 21 21 22 23 23
14 13 14 14 15 15 15 15 15 17 18 18 21 23 22 22 23 23 22 22 23 22 22 21 21 21 22 23 24 24 24 24 24 24 24 23 23 23 24 24 25 25
19 19 19 18 17 16 17 18 18 19 20 19 19 20 22 22 22 23 23 24 24 24 23 23 22 22 23 24 25 25 25 25 25 25 25 25 25 26 26 27 28 28
22 23 23 23 22 21 21 22 21 20 21 21 19 20 22 23 22 23 24 24 24 25 25 25 25 25 25 26 26 27 27 27 27 27 27 27 27 28 29 30 32 33
23 23 23 24 24 25 25 25 24 22 23 24 22 21 22 22 22 24 26 26 27 27 27 28 29 29 29 29 30 30 31 31 31 30 30 30 30 30 31 33 33 33
24 25 25 25 25 25 26 27 27 27 28 29 27 26 27 27 28 29 29 30 31 31 31 32 33 33 33 33 33 34 35 35 35 34 33 33 33 33 34 33 32 32
27 27 28 28 28 28 29 29 30 31 32 33 34 35 35 36 34 33 33 34 35 36 36 36 37 37 37 37 37 38 39 39 39 38 37 37 36 37 38 37 37 38
30 31 31 32 33 33 33 33 33 34 35 36 37 38 39 39 38 37 38 38 39 40 40 40 40 40 40 40 41 41 42 42 42 42 41 41 40 41 43 43 42 42
35 35 35 36 36 36 37 37 36 36 37 37 38 39 40 41 41 41 41 41 42 43 44 44 45 45 44 44 45 45 46 45 45 45 46 45 44 44 45 45 44 43
37 38 39 39 40 40 40 41 41 40 40 40 40 41 42 42 43 43 44 44 45 46 47 48 49 50 50 50 50 51 51 51 51 50 50 50 49 47 46 46 46 47

ECMWFNIL_500_spd_045.txt.gz
Wind_Speed
25 24 22 18 15 14 14 14 15 15 15 15 14 15 14 15 16 17 17 17 17 16 16 17 17 17 18 18 19 20 20 20 20 19 18 17 16 16 15 14 13 13
26 25 23 20 17 16 16 16 15 14 14 15 15 16 16 16 16 17 18 18 17 16 16 16 16 17 18 18 19 20 20 20 20 19 18 17 17 16 14 13 12 13
25 25 24 21 19 18 18 16 14 13 14 15 16 17 18 18 17 17 18 18 17 16 15 13 13 14 15 16 18 19 20 20 19 18 17 17 16 15 13 13 13 13
21 22 22 21 19 19 18 16 15 14 13 15 17 18 20 20 19 18 18 18 18 17 15 13 12 12 14 15 17 18 19 19 18 18 17 17 16 15 14 14 14 14
15 16 17 19 19 20 19 17 17 15 13 14 16 18 20 21 20 19 18 18 18 17 15 13 12 12 13 14 16 17 17 17 17 17 17 17 16 16 15 15 15 15
14 14 17 19 20 20 20 20 19 17 15 14 15 18 21 21 21 20 19 19 19 18 16 15 13 13 13 14 14 15 15 15 16 16 17 17 17 17 16 16 16 17
15 16 18 20 20 20 21 21 20 19 18 17 17 18 20 22 21 20 20 20 20 20 19 16 15 14 14 13 14 14 14 14 15 15 16 16 17 17 17 17 18 18
17 18 20 20 20 20 20 20 20 20 20 20 20 20 21 23 23 21 20 20 20 20 20 18 17 16 15 15 14 14 14 14 15 16 16 17 17 17 18 18 19 19
17 19 20 21 22 21 20 20 19 18 18 19 20 21 21 23 25 24 22 20 19 19 19 20 19 18 17 17 16 15 15 15 15 16 17 17 18 18 18 19 19 19
18 20 21 22 24 24 23 20 17 15 16 18 19 20 21 23 25 26 26 23 21 19 20 20 20 19 19 18 18 17 16 16 16 16 17 17 18 18 18 18 18 18
18 20 21 22 24 25 25 23 19 16 17 17 18 19 21 22 23 26 28 26 23 21 21 21 20 20 19 19 19 18 17 17 16 16 16 16 17 17 17 17 17 18
19 19 21 22 21 22 25 27 24 20 17 17 17 18 20 21 23 24 26 26 25 23 22 21 20 20 21 21 20 19 18 18 17 17 17 16 16 17 17 17 18 19
22 22 23 24 24 22 24 30 30 24 17 15 16 17 18 20 22 23 24 25 24 24 23 22 22 22 22 22 21 21 20 19 19 18 17 16 16 17 17 17 18 18
21 23 24 24 25 24 24 28 30 25 18 16 17 17 17 18 19 21 23 24 25 25 25 24 24 24 23 23 23 22 22 21 21 19 17 17 17 18 18 18 18 18
19 21 23 22 22 22 21 21 23 23 20 19 20 19 18 18 18 20 22 23 24 25 25 25 25 25 24 24 23 23 22 21 20 19 18 18 18 18 18 18 18 18
18 19 21 22 21 21 20 18 20 22 21 21 21 21 20 20 21 22 22 22 23 23 24 25 25 24 24 23 23 22 21 21 20 20 19 19 19 19 20 20 20 20
18 18 20 21 21 21 22 22 21 21 21 21 21 20 20 20 21 22 23 23 22 22 23 22 22 22 22 22 22 22 22 22 22 21 21 21 22 22 23 23 23 23
21 21 22 22 22 22 22 22 21 19 20 21 21 20 19 18 20 22 24 23 22 22 22 22 21 22 22 22 22 23 23 24 24 24 24 24 24 25 25 25 26 26
24 24 25 26 25 23 21 20 20 19 21 21 21 21 21 19 20 22 24 24 23 22 22 23 23 23 23 23 23 23 23 24 25 25 26 26 26 26 26 27 28 27
26 27 28 28 28 26 23 22 22 21 22 21 20 21 22 21 20 20 21 22 23 22 22 23 23 24 24 24 24 24 25 25 26 26 27 28 28 28 29 29 30 30
25 27 27 27 27 27 26 25 24 24 24 24 23 24 24 24 24 22 21 21 23 23 22 23 23 25 26 27 27 27 28 28 29 29 29 30 30 31 32 32 33 33
24 24 24 24 25 26 26 26 25 25 25 25 25 26 26 26 26 25 23 23 24 24 23 24 26 29 31 32 32 32 32 32 32 33 33 33 34 35 35 36 37 37
25 25 25 25 25 26 26 26 27 27 27 26 26 28 28 28 28 28 28 27 27 28 29 31 32 34 35 36 36 36 36 35 36 36 36 37 37 37 38 39 41 42
28 28 28 28 28 28 28 28 28 29 29 28 29 31 31 31 32 32 33 33 33 35 37 39 39 39 39 39 39 39 39 39 39 40 41 41 42 41 41 42 43 42
30 31 31 31 31 31 30 30 30 31 31 32 32 33 34 35 36 36 37 38 39 40 42 43 43 43 43 43 43 43 43 42 42 43 44 45 45 45 45 45 44 43
34 34 33 33 32 32 32 33 34 34 35 36 36 37 37 38 38 40 40 41 42 43 44 44 45 46 47 47 47 47 46 46 46 47 47 48 48 48 48 49 49 50

ECMWFNIL_500_spd_048.txt.gz
Wind_Speed
30 29 27 26 24 23 21 21 21 21 21 21 20 19 19 18 17 16 14 14 14 14 14 14 14 14 15 16 16 17 16 16 16 15 15 14 15 16 16 15 14 14
29 28 27 25 24 23 22 21 20 19 19 19 18 18 17 17 16 15 15 14 14 14 14 14 15 15 16 17 17 18 18 18 18 17 16 15 15 16 16 16 15 15
27 27 26 26 25 24 23 21 19 18 17 16 15 16 16 16 16 16 16 16 15 15 15 15 16 16 17 17 18 18 18 18 18 17 16 15 15 15 16 15 15 15
26 26 26 27 26 25 23 21 18 16 16 15 15 15 16 17 17 18 18 17 17 16 16 16 17 17 16 16 16 16 16 17 17 17 17 17 16 16 15 15 15 15
21 22 23 23 24 24 23 20 16 15 16 15 15 16 16 17 18 18 18 19 18 18 17 17 18 17 16 16 14 14 14 15 15 16 16 16 16 16 16 16 16 16
16 18 20 21 23 23 21 19 16 16 16 15 14 16 16 17 18 19 19 20 20 19 19 19 18 17 17 16 14 13 13 14 14 15 15 14 14 15 16 16 16 16
15 16 18 19 21 21 20 20 18 17 17 15 15 16 17 16 17 18 20 21 21 21 20 20 20 19 17 16 15 13 13 13 14 14 13 13 13 14 15 15 16 15
15 16 17 18 19 19 20 21 20 18 17 17 18 19 20 19 18 18 19 21 22 22 22 22 22 21 19 17 16 15 14 14 14 14 14 14 14 14 15 16 16 16
15 16 18 19 20 21 21 22 21 19 17 17 20 22 23 23 21 20 20 21 22 23 23 23 23 22 21 19 18 17 16 16 16 16 15 15 15 16 16 17 17 17
15 16 18 20 21 22 23 23 23 20 18 18 20 22 23 23 22 21 20 20 21 23 23 23 22 21 21 20 19 19 18 18 18 17 17 16 16 17 17 18 18 19
15 17 19 20 21 21 22 23 22 22 21 19 19 21 21 21 21 20 19 19 20 22 24 24 23 21 21 21 21 21 21 21 20 19 18 17 17 17 18 18 18 19
18 18 20 20 21 21 21 21 22 22 23 22 21 20 19 19 20 19 18 18 18 21 24 26 26 25 24 23 23 24 23 22 21 21 20 19 18 18 18 18 19 20
21 20 20 20 22 22 21 20 20 21 21 21 23 22 19 18 19 18 18 18 19 21 23 26 27 28 27 26 26 25 24 23 22 21 21 20 19 19 19 19 20 20
24 23 22 21 22 24 25 24 25 26 25 23 24 25 20 18 17 16 17 17 17 19 22 23 25 27 27 26 26 25 24 23 23 22 22 21 21 20 20 20 21 21
26 25 24 23 23 23 25 26 27 28 27 25 26 26 22 18 18 17 16 16 15 17 19 21 23 25 25 26 26 25 24 24 23 23 23 23 22 21 21 21 22 22
23 22 21 21 22 21 21 22 22 20 18 17 19 23 21 18 20 20 18 17 17 17 19 21 22 24 25 26 26 26 25 25 24 24 24 23 23 22 22 23 23 23
20 19 19 20 21 21 20 21 22 20 16 13 13 17 19 20 22 21 19 18 18 19 21 22 23 23 24 24 25 26 26 26 25 24 23 23 23 23 24 24 24 24
20 20 19 19 19 19 19 19 20 20 18 17 16 17 19 22 22 20 18 16 16 18 21 23 23 23 22 23 24 24 25 25 24 23 23 23 24 24 25 25 25 26
20 20 20 20 20 20 19 19 20 20 20 20 20 20 20 21 21 20 18 16 15 17 19 21 23 23 22 22 22 23 23 23 23 23 23 24 25 25 26 26 27 28
19 20 20 20 21 21 22 22 22 22 22 23 23 22 21 20 20 20 20 20 18 17 18 20 22 24 24 24 23 23 23 23 23 24 24 25 25 26 27 28 29 30
20 20 20 21 21 21 22 23 23 23 23 23 23 23 22 23 23 23 23 23 22 21 21 21 22 24 26 26 26 25 24 24 24 25 25 26 26 27 28 29 30 31
21 21 22 22 22 22 22 22 22 22 21 22 23 23 24 25 25 25 24 25 26 27 26 24 24 25 27 28 28 27 27 26 26 26 26 27 28 29 30 31 32 33
23 24 24 24 24 24 24 24 25 25 24 24 25 24 23 25 27 28 29 29 28 29 28 27 27 27 28 30 30 30 29 29 28 29 30 31 31 32 33 34 35 36
26 27 27 27 27 27 27 27 29 29 28 28 28 26 26 28 31 31 32 31 30 30 30 30 30 31 31 32 33 34 33 33 33 33 34 35 36 37 38 39 40 41
28 29 29 30 29 29 30 30 30 30 31 31 31 30 31 33 34 34 34 33 32 33 33 34 35 35 35 36 36 37 38 39 40 40 40 40 41 41 42 43 44 45
29 30 31 32 31 31 32 32 32 32 33 33 33 34 35 35 36 37 37 37 37 37 37 38 39 40 41 41 41 42 44 45 46 47 47 46 46 46 46 47 48 48

ECMWFNIL_500_spd_051.txt.gz
Wind_Speed
28 26 25 26 27 27 27 26 26 25 25 25 25 24 23 22 21 20 19 19 19 18 17 16 16 15 15 16 16 17 17 17 16 16 15 14 14 15 15 16 16 16
28 26 25 26 26 26 25 25 25 24 24 24 23 22 22 21 20 19 18 18 18 18 18 18 17 16 15 15 15 16 17 17 17 17 17 16 16 15 16 16 16 16
28 27 26 27 27 26 26 26 24 23 23 22 20 19 20 19 19 18 17 17 18 19 19 19 18 17 15 15 15 16 16 17 18 18 18 17 16 15 15 15 15 16
26 27 27 27 27 27 27 25 23 22 20 19 17 17 17 17 17 17 17 17 18 18 19 19 19 17 16 16 16 16 16 16 16 17 16 16 15 14 14 14 14 15
21 24 25 26 26 26 25 23 22 20 18 16 15 15 15 16 17 17 17 17 17 17 18 19 19 18 17 16 16 16 15 15 15 14 14 13 13 13 13 13 13 15
19 21 22 24 24 23 22 21 22 21 18 15 14 15 15 16 17 17 17 17 17 18 19 19 19 19 18 17 16 16 15 15 13 12 12 12 12 13 13 13 13 14
20 19 19 20 20 20 19 20 21 20 18 16 15 15 16 17 18 18 17 16 16 17 19 20 20 20 19 18 17 16 16 15 13 11 11 11 12 13 13 13 13 14
18 16 17 18 19 19 19 19 19 19 18 17 16 16 16 17 18 18 18 16 16 17 18 21 22 22 21 20 19 17 17 16 14 12 12 12 13 13 13 14 14 14
17 16 17 18 19 19 19 18 18 19 19 18 18 18 19 19 20 20 20 20 19 19 19 21 23 23 23 22 21 19 18 17 16 15 14 14 14 15 15 15 15 15
17 16 17 17 18 19 18 18 18 18 19 19 19 19 20 21 21 22 23 24 23 22 21 22 23 24 24 23 22 21 20 18 18 18 17 17 17 17 17 17 17 17
17 15 16 16 18 19 18 18 18 19 20 20 20 20 21 21 21 22 23 24 24 23 22 22 22 23 24 23 22 21 20 19 19 20 20 20 20 19 19 19 19 19
16 16 16 17 19 19 19 18 18 18 19 21 22 23 23 22 21 21 21 22 22 22 21 21 20 22 23 24 22 21 20 19 19 20 20 21 21 22 22 22 21 22
18 19 19 19 19 19 19 19 18 18 19 20 22 24 24 24 23 22 20 20 20 20 20 19 19 20 22 24 24 23 22 21 21 21 22 22 23 23 23 23 23 23
20 20 21 22 21 20 19 18 18 18 19 20 21 23 24 25 26 25 22 19 19 19 19 18 18 19 21 22 24 24 24 24 24 24 23 23 23 23 23 23 23 23
20 21 23 24 24 23 20 18 19 21 21 21 23 25 26 27 27 25 23 21 19 18 18 17 17 18 20 21 22 22 23 23 24 24 24 23 23 23 23 23 24 24
21 23 24 24 24 24 24 23 24 25 22 20 19 20 22 25 28 28 25 22 20 19 18 18 18 18 19 19 19 20 21 22 23 24 24 24 24 24 24 24 24 24
23 23 23 23 23 24 24 26 27 25 20 17 16 15 15 17 24 28 27 23 22 21 20 20 20 20 20 19 19 19 20 22 23 24 25 25 25 25 24 24 24 24
24 23 22 21 21 21 20 22 23 21 18 16 15 14 13 13 15 20 24 24 23 23 22 22 22 22 22 21 21 21 21 22 23 24 25 26 26 25 25 25 25 25
21 19 18 17 17 18 18 18 18 17 16 15 13 13 13 13 13 15 19 22 24 25 24 24 23 23 24 23 22 22 22 23 24 25 26 26 26 25 25 25 25 25
19 18 17 16 17 18 18 18 18 18 18 17 17 16 16 16 16 17 19 22 25 26 25 24 24 25 24 23 23 23 24 25 25 26 26 27 27 26 26 26 27 27
21 20 18 18 18 18 19 20 20 20 20 20 20 20 19 18 18 18 19 21 23 24 24 24 25 26 26 24 24 24 25 26 27 28 28 28 28 29 29 29 29 29
22 21 20 20 20 21 21 21 20 20 20 20 21 21 20 20 19 18 18 20 22 24 25 26 27 28 27 26 25 25 25 26 28 29 30 31 31 31 31 31 31 31
24 23 22 22 23 23 23 22 22 21 20 21 21 20 20 20 19 20 21 23 25 27 28 29 29 29 29 29 29 29 28 28 29 31 32 33 33 33 33 33 33 33
26 25 25 25 25 25 24 23 23 23 23 23 23 23 23 21 18 20 24 26 27 29 30 31 32 32 32 33 33 33 32 31 31 31 32 33 35 35 36 36 36 36
27 27 26 26 26 26 25 24 24 23 24 25 26 27 27 25 22 23 27 30 30 31 32 33 34 35 36 36 36 35 35 34 33 33 34 35 36 37 39 40 40 40
28 28 27 27 26 26 25 25 25 25 26 27 29 30 31 30 29 30 33 35 36 37 38 38 38 39 39 40 40 39 39 39 38 38 38 39 40 41 42 43 45 46

ECMWFNIL_500_spd_054.txt.gz
Wind_Speed
29 29 29 28 27 26 24 24 25 24 23 22 22 23 24 24 23 22 21 21 21 21 20 21 21 20 20 20 20 20 20 20 19 19 18 17 16 16 16 15 15 16
31 29 28 28 28 26 23 23 24 24 24 24 23 23 24 24 23 22 22 22 21 21 20 20 20 20 19 19 19 20 20 21 20 20 20 19 18 18 18 17 17 17
31 30 28 28 28 25 21 21 24 25 26 25 23 23 24 24 24 23 22 22 21 21 20 19 19 19 19 19 19 19 19 20 20 20 20 20 20 20 19 19 18 18
29 30 28 28 27 24 20 22 26 26 25 23 22 23 23 23 24 23 22 22 21 20 19 19 19 19 20 20 19 19 19 19 19 19 20 20 20 20 20 20 19 17
28 29 27 27 26 24 23 25 26 25 22 21 21 23 23 22 21 21 21 20 20 19 18 18 18 19 20 21 20 20 19 18 17 18 18 19 19 19 19 19 18 17
27 26 24 24 25 25 24 24 23 22 20 20 21 22 21 19 18 19 19 18 18 19 19 18 18 18 19 20 20 20 19 18 17 17 17 17 18 18 18 18 17 17
23 22 21 20 21 23 23 22 21 20 20 20 21 21 19 17 18 19 19 18 18 19 19 19 18 18 18 19 19 19 19 19 18 17 17 16 17 17 17 16 16 16
23 22 20 19 19 21 21 21 20 20 20 20 21 20 18 18 19 20 20 19 19 19 19 19 18 18 19 19 20 20 20 20 19 18 17 17 17 16 16 15 15 15
24 21 20 19 19 19 19 18 18 17 18 20 21 21 20 19 20 21 20 19 19 19 19 18 18 17 19 20 21 22 21 21 20 18 18 17 17 16 15 15 15 15
22 20 20 19 19 19 17 16 16 17 18 20 21 22 22 22 21 21 21 20 20 20 20 19 18 18 19 20 21 23 23 23 22 20 19 18 18 17 17 17 16 16
21 20 20 19 18 17 16 16 16 17 19 20 22 23 23 23 22 22 23 23 22 22 23 23 22 21 21 20 21 23 24 24 23 22 20 19 19 19 19 19 18 19
20 20 20 18 17 16 16 16 16 17 19 20 22 23 23 23 22 23 25 25 23 23 24 24 23 23 22 21 21 22 23 24 24 23 21 20 20 20 20 20 20 21
19 20 19 17 16 17 17 17 17 18 20 22 23 23 23 23 24 25 27 26 24 22 22 22 21 21 22 21 21 22 23 24 24 23 22 21 20 20 20 21 21 22
19 19 18 17 17 17 17 17 17 19 21 22 23 24 23 24 25 26 28 28 26 24 22 20 19 19 20 21 21 21 22 23 24 24 24 23 23 22 22 22 23 23
19 19 18 18 19 19 18 18 18 20 21 22 23 24 23 23 23 25 27 28 27 26 24 21 19 19 20 21 21 22 22 23 25 26 26 26 26 25 25 25 24 24
21 20 20 21 21 21 20 20 21 21 22 23 24 24 23 22 22 23 25 28 28 27 25 23 21 20 20 21 21 22 22 23 24 25 26 26 26 26 25 25 25 25
22 21 22 22 22 21 21 21 23 23 24 26 27 26 23 21 20 20 21 25 28 28 27 26 24 21 20 20 21 21 22 22 23 24 24 25 25 25 25 25 26 26
23 23 24 23 22 22 21 22 22 23 25 28 28 25 21 18 17 17 18 20 24 28 30 28 25 23 21 21 22 22 23 23 23 24 24 24 24 25 26 27 27 27
25 25 25 24 23 22 22 22 22 22 24 25 21 18 16 16 16 15 15 16 18 23 27 28 25 23 22 23 24 24 24 25 25 26 25 25 25 26 27 28 29 29
26 25 25 25 24 22 21 20 20 20 20 19 16 14 15 15 15 14 15 15 15 16 19 22 22 23 24 26 26 25 25 25 26 26 26 26 27 28 29 29 30 31
26 25 25 24 23 22 21 21 20 20 19 19 18 17 17 16 16 17 17 18 17 16 17 19 21 24 25 26 26 25 24 24 25 26 26 27 28 29 30 30 31 32
26 25 25 24 23 23 22 22 21 21 21 21 21 21 21 20 20 20 20 19 19 19 19 19 21 23 24 24 24 23 23 24 26 27 28 28 29 29 30 31 32 34
27 27 26 25 24 24 24 23 23 22 22 22 22 22 22 21 21 21 20 19 19 19 20 21 22 23 23 24 24 24 25 27 28 30 30 30 30 31 32 33 34 35
27 26 26 26 26 26 25 25 24 24 24 24 24 23 22 22 21 21 20 20 20 20 21 22 23 24 25 26 27 27 29 30 31 32 33 33 34 35 35 36 36 37
25 25 26 27 27 27 27 26 25 25 26 25 25 24 24 23 23 22 22 22 23 23 23 24 24 25 26 27 28 30 31 32 33 34 35 37 38 39 39 40 39 39
25 26 27 28 29 29 28 28 27 27 27 26 26 25 25 25 24 24 24 25 25 26 26 27 28 28 29 30 32 33 34 35 36 37 38 40 41 42 43 43 43 43

ECMWFNIL_500_spd_057.txt.gz
Wind_Speed
24 26 27 27 25 26 29 29 24 21 21 21 20 20 20 20 19 18 18 18 19 19 18 18 19 20 20 20 19 19 18 18 19 19 19 17 17 16 16 16 16 15
27 27 28 30 27 26 29 30 27 24 23 22 22 21 21 20 19 19 19 19 19 19 19 19 20 21 21 21 20 19 19 19 20 20 19 18 18 17 17 18 18 17
29 28 29 30 28 26 29 29 27 26 24 23 23 22 22 21 20 20 19 19 19 19 20 20 21 21 21 21 21 20 19 20 20 20 20 19 19 19 19 19 19 18
30 30 31 29 27 25 27 28 27 26 24 23 23 23 22 22 20 19 19 19 19 19 20 21 21 21 21 21 21 19 19 19 20 20 19 19 18 19 19 19 19 19
30 30 26 27 28 27 27 27 26 25 24 22 23 23 23 22 20 19 18 19 19 20 21 21 21 21 21 21 21 20 19 19 19 20 19 18 18 18 19 19 19 19
29 26 21 27 31 31 28 27 25 24 22 21 23 24 24 20 18 18 18 18 19 20 20 20 20 20 21 21 21 20 20 20 20 21 20 19 18 18 17 18 18 18
27 24 21 27 30 30 28 26 24 23 21 22 24 24 21 18 17 17 17 18 19 19 19 20 20 20 21 21 20 20 20 21 21 21 21 20 18 17 16 16 17 17
26 23 23 26 27 27 26 23 22 21 22 22 22 20 18 17 17 17 17 18 18 18 18 19 19 20 20 20 20 20 21 21 21 21 21 20 19 18 16 16 16 16
26 23 23 25 25 24 22 20 20 21 21 20 18 18 17 17 17 17 18 18 18 18 18 18 19 20 20 21 20 21 21 22 22 22 21 20 19 19 18 16 16 15
26 24 24 24 23 22 20 19 20 21 20 18 18 18 18 18 19 19 19 19 19 18 18 19 19 20 20 21 20 20 20 21 22 22 22 21 21 20 19 17 17 17
24 24 25 25 24 22 20 20 20 20 19 19 18 18 18 19 19 19 19 20 19 19 20 20 20 20 21 21 20 20 20 21 22 22 23 23 22 22 20 18 18 18
24 24 26 27 24 21 21 21 20 20 19 20 19 19 19 19 19 20 21 21 20 21 21 21 21 21 22 22 23 23 23 23 23 23 23 23 23 23 22 20 19 20
20 23 25 25 22 21 20 19 20 20 19 20 20 20 21 20 21 22 22 21 22 22 23 22 23 23 23 24 25 26 26 26 25 24 23 23 23 23 23 22 21 21
17 22 24 22 19 18 18 17 18 19 18 19 20 22 22 22 22 22 22 22 22 23 24 24 23 23 23 23 24 25 26 26 25 24 23 23 23 24 24 24 24 23
18 21 23 22 19 16 15 16 17 18 18 19 21 22 22 22 23 22 22 23 23 24 26 26 25 25 24 23 22 23 23 24 24 23 23 23 24 24 24 25 26 26
18 18 19 19 16 14 14 16 17 18 19 20 20 21 21 22 23 23 23 23 24 25 26 27 27 27 26 25 24 23 23 23 23 22 22 22 23 24 25 26 28 28
19 19 18 18 17 16 16 16 17 19 19 20 20 21 22 22 24 24 24 23 24 25 26 27 27 28 28 27 26 25 24 23 23 22 22 22 23 24 25 27 28 29
23 23 22 20 19 18 18 18 19 19 20 21 22 23 23 24 25 25 25 25 25 24 24 25 27 28 28 28 28 27 24 23 22 21 21 22 23 24 25 26 28 29
25 25 23 21 20 19 19 20 20 20 20 21 22 23 24 25 26 26 28 28 25 22 20 20 22 24 26 28 29 28 25 22 20 20 21 22 23 24 25 25 26 27
26 25 25 23 23 21 20 20 21 21 22 23 24 23 23 23 22 21 23 23 21 20 18 16 16 18 21 26 29 28 24 22 21 21 22 23 23 23 23 24 25 25
27 27 27 25 25 23 22 23 24 24 23 23 23 22 21 20 17 15 16 18 19 19 18 16 16 15 16 19 24 24 22 22 22 23 23 23 22 21 21 22 23 24
28 28 28 27 26 25 25 25 26 25 24 24 23 22 21 19 17 17 17 18 19 19 18 18 18 16 15 16 19 22 22 23 24 24 24 23 22 22 22 24 25 26
30 29 29 27 26 27 26 25 24 25 26 26 25 24 23 21 20 20 20 20 20 19 19 19 18 17 17 17 19 21 23 24 24 24 24 24 24 25 26 26 27 28
29 29 28 26 26 27 27 25 24 25 26 26 26 25 24 23 22 22 21 21 20 19 18 18 18 18 18 19 20 21 23 24 25 25 26 27 28 28 28 28 28 30
27 27 27 27 27 28 28 28 27 27 27 27 27 26 25 24 24 23 23 22 20 19 18 18 19 19 20 20 21 23 24 25 26 27 29 30 30 31 31 30 30 32
25 27 28 28 29 30 30 30 30 29 29 28 27 26 26 26 26 26 25 24 22 21 21 22 22 22 22 22 23 24 25 26 27 29 30 31 32 32 33 34 35 36

ECMWFNIL_500_spd_060.txt.gz
Wind_Speed
18 16 18 18 16 16 19 20 20 20 21 22 22 22 20 18 17 17 17 18 18 17 16 15 14 14 14 14 14 14 14 14 14 14 14 14 14 14 14 15 16 16
27 21 19 18 18 18 18 20 22 21 22 23 24 22 19 18 17 17 19 19 18 17 16 15 15 15 15 16 16 15 15 15 15 15 15 15 15 15 15 16 16 16
29 24 20 19 20 20 20 20 22 23 23 23 24 20 18 18 18 18 19 19 18 17 17 16 16 16 16 16 16 16 16 16 16 15 15 15 15 15 16 17 17 16
25 23 21 20 21 22 22 22 22 23 23 26 26 20 18 19 18 18 20 20 19 18 17 18 17 17 17 17 17 17 16 16 16 15 15 15 15 15 15 16 16 16
22 23 22 21 22 23 24 25 25 24 24 30 30 24 20 20 19 19 21 20 20 18 18 18 18 17 18 18 18 17 17 16 15 15 15 15 14 14 15 15 15 16
21 22 22 22 23 24 25 27 26 24 25 30 31 27 23 21 20 20 21 21 21 19 19 19 19 18 18 18 18 18 17 17 16 16 15 15 15 14 15 16 16 16
22 22 23 23 24 23 25 26 23 24 26 28 28 26 22 20 20 21 23 23 21 20 19 19 19 19 19 18 18 18 17 17 17 16 16 16 16 16 16 16 17 17
23 21 22 24 22 22 26 26 25 25 24 25 25 24 21 20 21 23 24 23 21 21 20 20 20 19 18 18 17 17 17 17 16 16 16 17 17 17 17 18 17 18
24 22 22 22 21 22 25 25 26 22 19 22 22 21 20 21 23 23 23 23 22 21 21 20 19 18 17 17 17 17 17 17 17 17 17 17 18 18 19 19 18 17
26 23 21 21 20 20 20 21 23 20 20 21 20 20 21 21 22 22 22 22 22 22 20 19 18 17 17 16 16 17 18 18 18 17 17 18 18 18 19 20 19 18
26 25 23 21 20 19 19 19 21 23 23 21 20 20 21 20 20 20 21 22 22 21 19 18 17 17 17 17 18 18 19 19 18 18 17 17 17 17 19 20 21 20
24 24 23 21 19 20 22 23 24 24 22 21 20 20 19 19 20 20 21 21 22 21 19 18 17 17 18 19 19 19 19 19 18 18 18 18 18 18 19 20 22 22
21 22 21 18 19 23 24 25 25 23 23 22 21 20 19 19 20 20 21 22 22 22 20 19 19 19 20 20 20 20 20 20 20 20 20 21 22 22 21 21 22 23
17 19 18 18 22 27 27 27 26 25 24 22 20 20 20 20 20 21 22 23 24 23 21 21 21 21 21 21 21 21 21 21 21 21 23 24 24 24 23 22 21 23
16 18 20 22 26 27 25 25 25 23 22 20 20 21 20 21 22 22 23 23 22 21 21 22 23 22 22 22 22 23 22 21 20 21 21 22 23 23 23 21 21 22
15 18 22 24 24 22 20 22 23 21 21 21 21 21 21 21 21 20 20 20 20 20 22 23 23 24 24 24 24 23 23 22 21 20 20 21 22 23 23 21 20 21
15 16 18 20 21 18 17 19 20 19 20 20 20 19 19 19 19 18 18 19 20 22 22 23 24 25 26 25 25 25 25 25 25 23 22 22 22 23 23 21 20 20
16 16 17 18 19 17 16 16 16 16 17 18 18 18 18 18 18 19 20 21 22 22 23 24 25 25 26 26 26 26 27 27 27 26 25 24 22 22 22 21 20 20
17 17 18 19 20 20 18 16 15 16 17 17 18 18 18 19 20 21 21 22 23 23 24 24 24 25 26 27 27 27 27 28 28 28 27 25 22 21 20 20 19 20
18 18 19 21 21 21 19 18 18 18 18 18 18 19 20 21 21 22 22 23 23 24 24 25 27 28 27 25 24 24 25 27 28 29 27 25 22 20 20 20 20 20
20 20 21 23 23 22 21 21 21 21 20 20 20 20 21 22 22 22 22 22 21 21 21 22 24 25 24 21 19 19 21 23 26 28 27 25 22 21 20 21 21 21
19 21 22 24 24 23 21 22 21 21 21 22 21 21 20 20 21 21 21 20 18 17 17 18 18 19 20 19 18 18 18 20 22 23 23 22 21 21 22 23 22 21
17 19 20 22 24 24 23 23 23 24 25 25 24 24 22 22 22 22 22 20 18 17 17 17 17 18 19 19 19 19 19 18 17 18 19 20 22 23 24 24 24 24
22 21 20 21 22 24 25 26 27 28 28 27 27 27 25 24 25 25 24 22 20 19 19 20 20 20 20 20 20 19 18 17 16 17 20 23 25 26 25 25 26 26
29 28 28 27 26 26 27 27 29 29 28 28 28 27 25 24 25 25 25 23 22 21 21 21 22 22 21 21 20 19 18 17 17 19 22 25 26 26 26 26 27 27
28 29 31 31 31 31 30 30 30 29 27 26 26 26 25 25 25 25 25 24 23 23 22 22 23 23 22 21 20 20 20 20 21 23 25 26 26 27 27 27 28 28

ECMWFNIL_500_spd_063.txt.gz
Wind_Speed
17 20 24 22 15 11 12 15 18 19 19 17 16 16 17 18 19 20 21 20 19 19 20 19 18 16 15 14 14 13 12 12 12 12 12 11 10 10 9 8 9 9
15 17 22 24 20 16 13 14 17 18 18 18 16 15 16 19 20 21 21 20 19 20 21 20 18 17 15 15 15 14 13 12 12 12 12 12 12 11 10 9 10 10
14 15 20 22 23 21 17 16 18 18 18 17 17 16 16 18 21 22 22 20 20 21 21 20 19 17 16 16 16 15 14 13 13 13 13 13 13 12 11 11 11 11
13 15 18 21 21 22 21 19 19 20 19 17 17 18 17 19 22 24 22 21 21 22 22 21 19 18 16 16 17 16 16 15 14 14 14 14 14 13 12 12 11 12
14 15 18 20 22 23 22 20 19 21 20 18 18 18 18 20 25 25 23 22 23 23 23 21 19 18 17 18 18 18 17 16 16 15 15 15 15 14 13 12 12 12
16 18 20 21 22 23 22 19 18 19 20 20 20 20 19 22 26 25 22 23 24 24 23 21 19 18 18 19 20 20 19 18 17 16 15 15 15 14 13 12 12 12
19 21 21 21 21 21 19 18 18 19 20 21 22 22 22 24 28 24 21 22 24 24 23 21 19 19 19 20 20 21 21 20 18 16 15 15 15 14 14 13 13 14
22 23 23 22 20 20 18 16 17 19 20 21 21 22 24 28 31 28 23 22 24 24 23 22 20 19 20 21 21 21 21 19 18 17 16 15 15 15 15 15 15 15
25 26 26 23 21 20 18 17 18 19 21 20 19 22 26 29 31 30 26 24 24 25 24 22 21 21 21 22 22 21 20 18 18 18 17 16 16 16 16 15 16 16
26 26 25 23 23 21 18 17 18 20 21 20 19 23 26 26 27 28 26 25 25 24 23 23 22 22 22 22 21 20 19 18 18 18 17 17 17 17 16 15 15 16
25 24 23 23 23 21 17 17 18 20 21 21 22 23 23 24 26 26 25 24 24 23 23 23 23 23 23 22 20 20 19 18 18 18 17 17 17 17 16 15 15 16
24 22 22 22 22 19 18 18 18 18 18 19 21 21 22 24 26 26 25 25 24 23 23 24 24 24 23 21 20 20 18 17 17 17 17 17 17 17 17 15 15 16
25 23 22 22 22 21 21 20 18 17 16 18 18 19 22 25 25 26 26 25 23 22 23 24 25 24 23 21 20 20 18 17 17 17 17 17 17 18 18 17 17 18
22 21 21 20 22 23 22 21 20 20 19 18 18 20 22 26 27 26 24 22 21 21 22 24 25 24 23 21 20 19 18 18 19 19 19 18 18 20 20 20 21 21
19 18 18 20 21 22 22 21 21 23 22 20 20 22 24 26 26 24 21 20 21 22 24 25 24 23 22 21 21 21 20 20 21 20 20 20 20 20 21 22 23 23
20 18 19 19 20 22 23 21 21 24 24 22 21 21 23 24 22 19 19 20 22 23 23 23 23 23 22 21 22 22 22 22 22 21 21 21 21 20 20 21 22 22
19 19 20 21 21 23 25 26 28 29 25 22 21 22 22 21 20 19 20 21 21 21 21 21 22 23 23 23 23 23 23 23 23 22 21 22 22 21 20 21 22 21
15 16 19 23 26 26 26 29 30 27 22 21 22 23 22 20 20 19 19 19 19 20 20 22 23 23 23 24 24 24 24 23 24 23 23 24 24 24 23 23 22 21
14 13 15 20 26 26 24 24 22 20 20 20 22 21 19 19 19 19 19 19 19 20 21 22 22 22 23 24 25 26 25 25 24 24 25 26 26 26 26 26 25 23
15 15 14 15 21 25 24 21 20 19 19 18 18 18 18 19 19 19 19 19 20 21 21 21 22 23 23 25 26 26 26 26 25 25 26 27 27 27 27 27 26 23
15 16 15 14 19 24 24 22 20 17 15 16 17 18 19 19 19 19 19 20 20 21 21 21 22 22 23 25 26 27 28 29 28 27 26 26 27 28 27 27 25 23
16 16 16 15 18 23 23 21 19 16 15 17 18 18 19 19 19 20 20 20 21 20 21 21 21 21 23 24 26 27 28 29 28 26 24 24 26 27 28 27 25 24
19 18 18 18 20 24 25 23 20 19 18 19 20 20 21 21 21 20 20 20 20 21 21 20 20 21 22 22 22 22 22 23 24 24 23 23 24 26 27 27 26 25
20 21 22 22 22 25 25 24 23 23 23 24 24 23 22 21 21 21 21 21 21 21 21 20 20 21 21 21 20 19 20 21 23 24 23 23 24 24 25 25 25 25
19 20 21 23 24 25 25 25 26 27 27 27 25 24 22 21 21 23 24 24 23 23 23 23 22 22 22 22 21 21 22 23 24 24 24 24 23 23 22 23 23 24
20 20 21 22 24 26 27 27 28 27 25 25 26 26 26 24 24 26 28 27 26 25 24 24 24 23 23 24 24 24 25 25 25 25 24 24 23 22 21 22 23 25

ECMWFNIL_500_spd_066.txt.gz
Wind_Speed
20 23 26 24 20 17 15 16 19 18 17 16 17 19 20 21 21 21 22 24 25 23 21 21 21 20 21 22 22 22 21 21 19 18 17 17 16 15 14 15 14 13
19 20 23 25 23 19 15 15 17 16 16 16 16 17 19 20 21 21 21 23 24 22 21 22 22 21 21 22 22 22 21 21 20 18 17 17 16 16 15 15 15 14
17 16 19 22 23 22 18 17 16 14 14 15 15 16 19 20 21 21 22 24 24 23 22 23 22 21 21 21 22 22 22 21 20 18 17 17 17 17 16 16 16 16
15 14 17 19 20 21 20 20 19 17 16 16 16 17 18 20 21 22 22 24 25 24 23 23 21 21 21 22 22 23 22 21 20 20 19 19 18 17 17 17 17 17
13 15 19 18 18 20 21 21 21 20 19 19 20 19 19 20 22 23 22 23 25 26 24 23 22 22 22 22 23 23 22 21 21 21 21 20 19 18 17 17 17 18
15 18 20 19 18 17 19 21 21 21 22 23 23 22 21 22 23 23 22 22 25 27 25 24 23 23 23 23 23 23 23 22 22 22 21 21 20 18 18 18 18 18
15 17 18 20 20 19 19 22 22 23 25 26 25 23 24 25 24 23 22 22 26 29 26 25 25 24 24 24 23 23 23 23 23 23 22 21 20 19 18 18 18 18
15 18 19 20 22 23 22 23 24 25 26 27 25 23 24 26 25 24 23 23 28 31 28 26 26 25 25 24 24 24 24 24 24 23 22 21 20 19 19 18 19 19
18 19 20 21 21 22 23 23 24 27 26 25 25 24 25 27 26 25 25 26 30 32 29 27 26 25 26 26 25 25 24 25 25 24 22 21 20 20 20 20 20 19
20 19 20 22 22 22 22 23 25 26 25 24 25 26 28 29 27 25 27 30 33 34 30 27 27 26 26 26 25 25 25 25 26 24 22 21 21 21 21 21 20 19
21 21 21 22 23 22 22 23 25 26 25 25 27 28 28 28 26 26 29 33 35 33 29 27 27 26 26 26 26 26 25 26 25 23 22 22 21 21 20 20 19 19
20 21 21 23 24 23 20 22 24 25 25 25 27 28 27 26 26 28 30 33 34 31 27 26 26 25 25 26 27 26 26 26 25 23 22 22 21 20 20 19 19 19
20 21 21 22 23 22 21 22 24 25 24 25 29 29 28 27 27 29 30 31 32 31 27 24 24 24 26 27 28 27 26 25 24 22 21 20 20 20 20 19 19 19
21 21 22 23 22 21 22 22 24 26 25 28 31 30 30 27 27 31 32 32 34 33 28 25 25 26 27 28 28 27 25 24 22 21 20 20 20 21 19 19 20 21
20 20 22 22 21 22 24 23 25 28 27 28 30 30 28 25 27 31 35 35 35 33 28 26 27 27 27 27 26 25 24 23 22 21 20 20 21 21 19 19 21 22
20 19 20 20 20 22 23 22 26 29 28 26 27 28 24 23 25 32 36 35 33 31 28 27 26 26 26 26 25 24 24 23 22 21 21 21 22 22 21 21 22 23
19 18 19 21 22 22 21 21 25 30 29 25 26 26 24 24 28 34 36 33 30 29 28 26 26 26 26 26 25 25 24 24 23 23 23 23 24 24 23 23 24 23
19 18 19 22 24 23 22 21 24 32 32 27 27 28 27 25 30 35 34 30 29 28 27 26 27 27 26 25 25 25 25 25 24 24 24 24 24 24 25 25 24 24
18 18 20 24 25 23 22 22 27 35 34 28 27 31 30 27 29 33 32 31 29 27 27 27 27 27 25 25 25 25 25 25 24 24 24 24 24 25 26 26 25 25
18 17 17 20 23 23 24 27 34 40 36 28 29 34 33 31 32 32 32 30 27 26 26 26 26 25 24 24 24 24 24 24 24 24 24 24 25 25 26 27 26 26
18 17 15 16 18 22 27 34 40 41 35 30 31 34 33 31 32 32 30 27 25 25 25 25 24 23 22 23 23 24 24 24 24 24 24 25 25 25 26 27 27 27
18 17 17 17 18 19 25 31 34 34 31 29 29 31 29 27 28 27 26 25 24 24 23 23 22 22 22 23 23 23 24 25 26 26 26 27 27 26 26 27 28 29
18 19 18 19 20 19 22 26 28 28 27 26 26 26 25 25 25 24 24 24 23 22 22 22 22 22 23 23 23 23 24 25 25 26 26 26 26 26 25 26 27 28
18 20 21 20 21 20 20 23 26 26 25 25 23 23 24 24 23 23 23 23 22 22 22 21 22 23 23 23 23 23 23 23 23 23 22 22 22 22 22 24 26 28
18 21 23 22 22 21 20 23 26 25 25 26 24 22 22 22 22 23 23 23 23 22 21 21 22 23 22 22 23 23 23 23 23 22 22 21 21 21 23 25 26 27
22 23 24 24 25 24 22 24 29 29 26 25 24 22 23 23 24 25 25 24 23 22 22 23 24 23 22 23 24 24 24 24 24 24 24 24 24 25 25 27 27 26

ECMWFNIL_500_spd_069.txt.gz
Wind_Speed
21 20 19 20 22 24 26 26 25 24 24 24 25 25 26 27 27 28 27 24 23 23 24 25 25 26 27 27 26 26 26 26 25 24 22 21 21 20 20 19 19 19
23 22 21 21 20 23 26 26 24 24 23 21 22 23 25 25 25 26 26 24 23 25 27 27 26 27 27 27 26 26 27 26 25 24 23 22 21 21 20 20 20 20
26 26 24 22 21 23 24 25 24 23 22 21 20 21 22 23 23 24 25 24 24 27 29 29 28 29 29 27 26 27 27 27 25 24 22 21 21 21 20 20 20 20
28 26 24 20 20 22 22 24 25 22 21 20 20 21 21 22 23 24 25 25 25 28 29 29 29 31 30 27 26 27 28 27 25 24 23 22 21 21 21 21 21 21
25 22 19 18 19 20 21 26 27 23 22 22 22 22 21 22 22 23 24 25 25 27 28 28 28 30 29 27 27 28 28 27 25 24 23 22 22 22 22 22 21 21
21 19 20 20 20 18 20 24 26 25 25 25 25 24 22 21 21 21 23 25 25 26 28 27 28 30 29 28 27 28 28 27 25 24 23 22 22 22 22 22 22 22
20 21 21 21 21 20 19 21 22 24 26 27 27 25 23 22 21 22 24 25 25 27 27 26 28 31 30 28 28 28 28 27 25 24 23 22 22 23 23 23 23 22
21 22 21 21 21 20 19 18 20 22 24 28 28 25 25 26 25 23 24 26 26 27 27 27 28 31 31 30 29 29 28 27 26 25 24 23 23 23 24 24 23 23
21 21 22 21 19 19 18 18 19 20 23 28 27 26 27 28 26 25 26 28 28 27 27 28 28 30 32 31 29 29 29 27 27 26 24 24 24 24 24 25 24 23
22 23 24 22 20 20 19 19 20 20 23 26 27 28 29 29 27 26 27 29 29 27 27 28 28 30 32 32 30 29 29 28 27 26 25 25 24 25 25 25 25 24
24 25 25 24 23 22 21 22 23 22 23 26 27 29 30 29 28 27 27 30 31 29 28 28 28 30 33 32 30 30 30 29 28 27 26 25 25 25 26 25 25 24
25 25 25 25 24 24 24 26 25 24 25 27 27 29 29 29 29 28 28 31 32 28 27 27 28 31 33 33 31 31 31 30 29 27 26 26 26 26 25 25 24 24
25 26 24 22 22 23 25 27 28 27 28 27 27 30 30 29 30 30 30 32 30 26 26 28 29 31 33 34 32 32 32 30 29 28 27 27 26 25 25 24 24 24
25 24 22 21 23 25 26 27 28 29 29 26 25 29 31 31 32 32 33 33 27 25 26 27 29 31 34 35 33 32 32 30 28 28 28 28 26 25 24 23 24 24
24 23 20 21 25 27 27 27 27 28 28 26 25 29 31 32 31 31 34 33 26 25 26 27 28 30 34 34 32 31 30 29 28 29 29 27 26 24 23 22 22 23
24 23 22 23 26 27 26 25 25 26 27 26 27 31 33 32 30 32 35 32 27 27 27 28 29 30 32 32 30 29 29 28 28 29 28 27 25 23 22 22 22 23
25 24 23 23 24 25 24 25 25 25 26 26 29 33 34 30 29 33 34 29 29 28 28 29 30 30 31 31 30 29 28 27 28 28 27 25 23 23 22 22 23 24
25 25 24 23 23 23 24 25 24 23 25 27 30 32 32 29 30 34 33 29 29 28 29 30 30 31 31 32 32 31 29 28 28 27 25 23 23 23 23 23 24 25
24 24 23 22 21 22 23 23 23 22 23 27 30 32 31 30 31 32 31 29 28 27 28 29 31 33 34 34 33 31 29 28 27 26 24 24 24 24 24 25 26 26
22 23 22 20 19 20 22 22 23 22 22 26 31 32 33 34 33 30 28 28 28 28 26 26 30 34 35 34 34 32 29 27 26 25 25 25 25 25 26 26 27 27
19 20 20 19 18 19 21 24 25 24 22 26 31 33 36 39 37 31 28 28 30 29 26 26 29 32 33 33 33 30 27 26 26 25 25 25 26 26 26 27 28 28
18 18 17 17 19 21 22 24 25 25 26 30 32 35 39 43 39 32 30 29 31 30 27 26 28 31 33 33 30 28 26 25 25 25 25 26 26 26 27 28 29 30
20 20 19 19 20 21 22 24 24 27 32 36 36 39 43 44 37 30 29 30 32 31 28 27 30 32 32 30 27 26 26 25 25 25 25 25 26 26 27 29 30 31
17 18 19 21 21 19 23 28 28 28 34 40 41 41 44 42 33 29 29 31 32 31 29 28 29 30 29 27 26 26 25 25 25 24 24 25 26 26 26 27 29 29
14 13 15 19 22 19 20 26 23 21 28 38 40 39 40 39 34 30 29 28 27 27 27 27 28 28 28 27 26 26 25 24 24 24 25 26 26 26 25 25 25 26
16 14 12 16 21 21 19 20 18 17 22 31 36 36 36 35 32 28 26 25 24 25 26 27 28 28 28 27 26 26 25 25 25 26 26 26 26 25 24 24 24 24

ECMWFNIL_500_spd_072.txt.gz
Wind_Speed
28 28 29 27 26 27 27 26 26 26 28 28 26 27 29 29 28 28 29 32 33 31 29 28 27 26 26 25 25 27 27 26 26 26 23 23 23 23 22 22 22 22
27 28 29 27 25 25 25 25 27 29 30 31 28 27 29 31 29 30 32 33 31 31 31 30 29 27 26 25 26 28 29 27 27 26 25 25 25 24 23 23 22 22
28 29 30 28 25 24 25 25 28 30 31 32 30 28 28 30 30 31 33 32 30 31 30 30 29 28 27 27 28 28 28 28 28 27 26 26 26 25 24 23 23 22
29 31 31 30 27 26 26 26 27 30 31 31 31 29 27 27 28 30 31 31 30 30 29 29 29 29 29 29 29 28 27 28 28 28 27 27 26 26 25 24 23 22
29 33 35 31 27 27 28 27 29 31 31 30 30 28 28 27 27 29 29 28 28 28 28 28 28 28 29 30 30 29 27 27 28 28 27 27 27 27 25 24 24 23
26 29 34 32 27 26 29 30 31 32 31 32 30 26 26 27 27 27 28 26 26 27 28 28 27 28 30 31 31 29 27 27 28 29 28 28 28 27 26 25 24 23
20 21 27 28 25 26 29 30 31 30 29 31 30 25 23 25 26 27 27 27 26 27 28 27 27 27 30 32 32 30 28 26 28 29 29 29 28 27 26 26 25 24
15 18 21 23 23 25 27 28 28 27 25 26 28 26 24 24 26 27 27 26 25 26 27 28 27 27 30 31 31 30 27 26 28 30 30 29 29 28 27 27 26 25
14 16 19 20 22 24 26 28 28 25 22 21 23 26 25 25 27 28 27 26 25 25 26 27 27 28 29 30 30 30 26 26 30 32 31 30 30 29 28 27 26 25
15 15 17 19 22 23 24 25 26 24 22 20 21 23 25 26 27 29 28 27 26 27 26 27 27 28 29 29 29 29 27 27 31 33 32 31 31 30 29 27 27 26
18 18 18 19 22 24 25 26 26 25 23 22 22 23 24 25 26 27 28 28 28 29 28 27 27 28 28 29 29 29 28 29 33 34 33 32 32 31 30 28 27 26
21 21 21 21 23 25 26 28 27 25 23 24 25 25 24 25 25 26 27 28 29 30 29 27 28 29 30 31 30 28 28 31 34 35 34 33 33 32 30 29 28 26
23 23 24 24 25 26 27 28 27 25 25 27 28 27 26 26 27 27 28 28 29 31 30 28 28 30 30 29 27 27 28 32 35 36 34 33 33 33 32 30 29 27
23 25 26 26 27 28 28 28 28 27 27 28 29 29 29 29 29 29 29 30 30 31 31 29 28 28 29 27 26 27 29 31 34 36 36 34 34 34 32 30 28 26
23 25 26 28 29 29 29 29 28 28 28 28 28 29 30 31 31 31 30 30 31 31 31 30 28 28 28 27 28 29 29 30 33 36 36 35 34 33 32 30 28 27
24 25 26 28 29 30 30 29 29 29 30 29 28 28 29 31 32 32 31 32 32 31 31 30 29 28 26 26 27 30 31 31 33 37 37 35 34 33 32 31 29 28
26 26 27 28 29 30 30 30 30 29 30 30 30 29 29 30 31 32 34 33 32 31 31 30 30 30 25 25 27 30 31 31 32 36 37 36 33 32 32 31 29 28
26 27 28 28 28 29 29 30 30 29 28 28 29 29 28 30 31 32 33 33 32 32 32 30 33 33 27 26 29 31 31 31 32 35 36 34 33 32 31 31 30 29
26 26 27 28 28 28 29 29 30 29 27 27 28 28 28 31 32 31 32 33 32 32 31 32 36 37 30 29 29 31 31 31 32 34 34 33 32 31 31 31 31 29
24 24 26 27 27 27 27 27 28 28 27 27 27 27 29 32 32 31 32 33 32 32 32 33 37 38 33 30 29 29 29 30 31 33 32 32 32 32 32 31 30 29
24 24 24 26 27 26 25 26 26 26 27 26 26 27 30 32 30 31 33 32 31 32 32 33 37 38 33 29 28 29 28 28 31 32 32 31 32 32 32 31 30 30
25 24 24 25 26 25 25 25 26 27 26 25 27 30 32 31 30 31 33 32 29 29 30 34 37 35 31 28 28 29 28 28 31 34 34 33 33 33 32 30 29 30
25 25 24 23 23 22 22 23 24 26 26 25 28 33 32 28 27 30 32 32 30 29 31 36 35 32 30 29 28 27 27 28 31 35 35 34 33 32 30 29 29 30
25 24 24 22 20 19 20 23 22 22 24 25 27 29 26 22 25 33 35 34 33 34 36 38 36 31 30 31 28 26 26 28 31 34 34 33 32 31 29 29 29 30
25 24 23 21 17 16 17 20 21 20 22 26 27 25 25 25 33 39 40 40 40 39 39 38 34 31 30 31 29 26 27 29 32 33 32 31 30 29 28 28 29 30
24 24 23 21 19 17 14 12 14 15 17 20 20 19 22 30 40 43 42 44 46 42 36 32 30 29 29 30 29 28 28 30 32 32 31 31 30 29 29 29 29 31

ECMWFNIL_500_spd_078.txt.gz
Wind_Speed
34 35 35 35 36 37 40 41 40 38 37 36 36 38 38 35 35 34 31 29 29 29 30 31 32 33 33 34 31 27 26 26 26 26 28 28 29 29 27 25 26 26
35 37 38 38 38 38 40 41 39 37 37 36 36 38 39 37 36 36 34 32 32 31 31 31 32 33 32 32 33 30 28 28 28 28 30 30 29 29 28 26 26 26
35 36 37 38 38 38 38 39 39 36 34 35 36 36 36 37 36 36 35 34 35 36 34 33 32 33 32 32 33 32 31 32 32 32 32 32 30 29 29 28 27 27
31 32 33 34 35 35 35 35 36 34 31 32 35 35 34 34 35 35 34 35 36 38 38 36 34 34 34 33 33 33 33 34 34 33 33 33 31 30 30 29 28 28
27 27 27 28 29 30 30 31 32 32 31 32 35 36 34 32 32 33 33 34 36 38 39 39 37 36 36 35 33 33 33 34 34 34 33 32 31 31 31 30 28 29
24 24 24 24 25 26 26 27 30 32 33 33 36 38 36 33 32 33 33 34 35 36 38 39 39 37 37 36 35 33 33 33 34 35 33 32 32 32 31 30 29 29
24 24 24 24 24 25 25 25 27 30 33 34 35 36 36 35 33 33 34 33 34 35 36 38 39 38 37 36 35 33 34 34 34 34 33 32 33 33 31 30 30 30
23 24 25 25 25 26 25 26 26 28 30 31 31 32 34 36 34 33 34 33 33 34 35 36 37 37 36 36 34 32 32 33 33 33 33 33 34 33 32 32 32 31
22 23 24 25 26 26 26 26 26 27 27 26 26 27 30 33 32 31 32 32 32 33 33 33 34 34 34 35 34 32 30 30 30 32 33 33 33 32 32 33 33 32
21 22 23 24 25 25 25 24 24 24 23 22 23 24 26 28 29 29 30 31 31 32 33 33 33 34 34 34 33 32 29 28 29 32 32 32 32 32 33 33 33 33
22 22 23 24 24 24 24 24 23 23 21 21 21 23 24 25 27 28 30 30 30 31 32 33 33 34 34 33 33 31 30 29 30 31 30 30 32 33 33 33 33 33
22 22 23 23 24 24 24 24 24 23 22 22 22 22 23 24 25 27 28 29 29 29 30 31 32 34 34 32 31 30 30 30 30 30 29 30 33 33 33 34 34 33
23 24 24 23 23 23 23 24 24 24 24 23 23 23 24 24 24 25 26 28 28 28 29 29 30 32 32 31 30 30 31 31 30 29 30 31 32 33 33 34 34 35
24 24 24 24 23 23 22 23 23 24 25 24 24 24 25 25 25 25 26 28 29 29 29 30 29 29 30 30 31 31 32 32 31 30 30 31 32 33 34 34 34 35
24 24 25 25 24 24 23 23 23 24 25 25 25 25 26 26 26 27 27 28 30 31 31 31 30 29 29 30 30 31 33 33 33 33 32 32 32 33 34 34 34 34
24 24 25 25 26 25 25 25 24 24 24 25 26 26 27 27 28 28 28 28 30 32 33 32 32 31 29 29 30 31 32 33 34 34 33 33 33 33 33 34 33 34
24 25 26 26 27 26 26 27 27 26 26 26 26 27 27 28 29 29 29 30 30 32 33 33 33 31 30 30 30 31 32 33 34 34 34 33 33 34 33 33 33 34
27 27 28 28 28 28 28 28 28 28 28 27 28 28 28 29 30 30 30 31 31 32 33 34 33 32 32 32 32 32 34 36 35 34 34 34 34 34 32 32 33 34
30 30 30 30 30 31 31 30 29 29 29 29 29 30 30 30 31 31 31 31 32 33 33 34 34 33 34 34 33 34 36 37 37 35 35 34 35 36 34 33 34 36
32 32 32 32 32 32 32 32 31 30 30 30 30 30 30 31 31 32 32 31 32 33 33 34 35 35 36 36 35 36 37 38 39 38 36 35 36 37 37 36 36 37
33 32 31 32 32 32 32 33 33 32 31 30 30 30 30 31 31 31 32 32 32 33 34 35 36 37 38 37 36 37 37 38 40 39 37 37 38 38 38 39 39 39
33 32 32 32 32 32 32 33 34 34 32 31 31 30 30 30 30 30 30 31 32 32 33 35 37 39 38 37 37 38 38 38 40 39 39 39 39 39 39 38 39 38
35 34 34 33 32 32 32 33 35 36 35 33 31 31 30 29 30 29 28 29 30 30 31 34 36 38 38 37 37 37 37 37 37 37 38 39 39 39 39 38 36 34
37 37 36 35 34 33 33 33 34 36 37 35 32 31 30 30 30 29 26 26 28 29 30 32 35 36 36 37 38 38 37 37 36 37 39 39 39 40 39 38 36 34
40 40 40 38 37 35 34 33 33 35 38 37 35 33 31 30 31 29 25 23 25 27 29 31 33 34 35 37 38 38 38 36 35 38 40 40 39 40 40 39 37 35
43 43 42 41 39 36 35 34 33 33 35 37 37 36 33 31 32 32 29 25 24 26 28 30 32 34 38 41 41 41 41 39 38 41 41 39 39 40 40 40 38 35

ECMWFNIL_500_spd_081.txt.gz
Wind_Speed
31 32 32 33 34 36 36 37 40 42 41 38 37 38 39 40 40 37 36 36 37 38 37 36 34 32 32 32 31 31 32 32 31 31 30 29 29 29 29 28 27 26
33 33 34 35 36 37 37 38 40 42 43 40 38 39 41 41 40 37 35 35 36 37 37 37 36 35 33 32 31 31 32 32 30 31 31 30 29 29 29 29 29 28
35 36 37 37 37 37 37 38 40 40 41 39 38 40 41 41 40 39 37 35 33 34 36 37 37 38 36 34 32 31 30 31 30 29 31 32 31 29 29 30 30 28
37 37 36 35 34 34 34 35 35 36 35 35 35 37 38 37 37 38 37 37 34 32 34 36 37 38 39 37 35 33 31 31 31 29 30 32 32 30 30 31 31 29
36 33 30 30 29 30 31 30 31 32 31 30 31 33 33 33 33 34 36 36 35 33 33 35 37 38 39 38 37 36 34 32 33 32 31 32 32 31 32 32 32 31
32 29 27 27 27 28 29 29 29 30 31 29 29 30 30 30 30 33 35 35 35 35 33 35 37 37 37 38 37 36 35 34 34 33 33 33 32 33 32 32 33 33
30 29 27 26 26 26 27 28 29 30 31 31 30 30 30 30 29 30 33 34 35 35 32 33 37 37 35 35 36 36 35 34 34 33 33 33 34 34 32 32 33 33
30 29 27 25 25 25 26 27 28 30 31 30 30 30 30 30 29 29 31 32 34 35 34 31 32 34 33 32 33 35 35 34 34 34 33 33 34 34 33 33 34 33
29 27 26 25 25 25 25 25 26 28 29 29 28 28 28 28 28 28 28 29 30 32 34 31 28 30 33 31 31 33 33 33 34 34 34 33 34 34 34 34 34 33
27 26 25 25 25 25 25 25 25 26 28 29 28 27 27 26 26 26 26 26 26 28 31 31 29 30 33 33 32 33 33 33 33 33 34 34 34 34 34 34 32 32
27 26 26 26 26 26 26 26 26 26 27 28 28 27 27 26 25 25 25 25 26 26 27 29 31 32 33 33 33 33 33 33 31 32 32 32 33 34 34 32 31 32
27 27 27 27 28 27 27 27 27 27 27 28 28 28 28 27 26 25 26 26 26 26 26 27 30 34 34 32 32 32 32 32 32 32 31 31 32 34 34 32 31 32
28 28 28 28 28 28 28 28 27 27 27 28 28 28 29 28 27 26 26 27 27 27 27 26 28 32 32 30 29 30 31 32 32 32 31 30 31 33 34 33 32 32
29 29 29 29 29 29 29 28 28 27 27 27 28 28 29 29 29 28 28 28 28 27 27 28 29 30 30 29 29 30 31 31 30 31 32 31 31 32 33 34 33 33
31 31 30 30 29 29 29 29 28 27 26 26 27 27 28 29 30 30 30 29 29 29 29 30 31 31 29 29 29 29 31 32 30 32 33 31 32 33 32 33 33 33
34 33 32 31 30 30 30 29 29 29 28 27 27 27 28 29 30 31 31 31 31 31 31 32 33 32 30 30 30 30 31 32 32 33 32 31 32 33 31 31 33 32
34 34 33 33 32 32 32 32 32 32 31 30 29 28 29 29 29 30 31 32 33 33 33 34 35 34 32 31 31 32 33 33 33 34 33 31 31 31 31 32 32 32
35 35 34 34 34 34 34 34 34 34 34 33 31 30 30 30 30 30 31 32 33 34 35 35 36 35 33 32 32 34 35 35 35 35 35 33 30 30 31 32 32 32
36 36 36 35 35 35 35 36 36 36 36 35 34 32 31 30 31 31 31 32 33 34 35 36 36 36 34 33 35 35 36 36 36 36 36 34 31 31 32 32 33 34
39 39 38 37 37 37 37 37 37 36 36 35 35 34 32 31 31 31 32 32 33 33 34 35 36 36 35 34 36 37 37 37 36 36 36 35 33 33 32 32 34 35
40 41 41 40 39 39 38 38 37 37 36 35 35 34 33 32 31 31 32 32 33 33 33 34 35 36 36 35 35 37 37 36 36 36 36 36 36 34 32 33 36 36
41 41 42 42 41 40 40 39 38 38 37 36 35 34 34 34 32 32 32 32 32 32 32 33 34 35 36 35 36 37 37 35 36 36 36 37 37 36 35 36 37 35
43 43 44 44 44 43 42 41 40 39 39 39 38 36 36 36 34 33 32 32 32 32 31 32 33 34 35 35 35 36 36 35 35 36 37 38 37 37 37 37 36 34
45 45 45 45 45 45 44 43 42 41 41 42 41 38 37 37 37 35 34 33 32 32 31 31 32 32 32 33 33 34 34 33 34 36 36 37 37 36 36 36 36 36
47 47 46 46 45 45 45 45 44 43 43 43 43 40 38 38 38 38 36 35 34 32 31 31 32 32 31 30 30 31 31 31 33 35 36 38 38 36 36 36 36 36
46 47 47 47 47 46 47 47 47 46 45 43 41 40 39 38 39 39 38 37 36 34 32 32 32 31 31 30 29 29 30 31 32 34 35 36 37 36 38 40 37 37

ECMWFNIL_500_spd_084.txt.gz
Wind_Speed
26 27 28 29 31 32 32 33 34 35 37 37 37 38 39 40 40 39 37 35 35 37 36 35 34 32 28 27 27 28 28 27 25 24 24 23 24 24 25 26 26 26
27 28 29 30 31 32 33 34 34 34 35 35 35 35 35 36 36 34 33 32 32 34 35 35 35 34 31 27 27 29 29 27 26 25 23 23 24 23 24 26 27 26
27 28 29 30 31 32 32 33 33 33 32 32 33 33 33 33 33 31 30 29 30 32 32 33 33 32 32 29 27 28 30 28 27 26 25 24 24 23 23 25 26 26
27 28 29 30 31 31 32 32 33 32 32 32 32 32 32 32 32 31 30 29 28 29 29 30 30 29 30 31 28 27 29 30 28 27 27 26 25 25 24 24 25 26
28 28 29 30 30 31 32 32 33 33 33 33 33 32 30 30 31 31 31 30 28 27 26 27 28 29 30 30 29 26 27 30 30 28 27 26 27 28 27 26 26 26
28 28 28 29 30 31 31 32 32 32 32 32 31 31 29 28 29 30 30 30 29 27 26 25 25 26 28 29 29 26 26 28 30 29 27 27 27 28 29 29 28 27
28 28 28 29 30 30 31 30 30 29 30 29 29 29 28 28 28 28 28 28 28 27 27 26 25 24 25 27 28 27 27 28 29 28 26 26 26 28 29 29 29 29
29 28 29 29 30 30 30 29 28 28 28 28 27 26 26 26 26 26 26 27 27 27 26 26 26 25 24 25 26 26 26 27 28 26 24 25 26 27 28 29 29 30
29 29 29 30 30 31 30 30 28 27 26 27 27 25 24 24 24 24 25 25 26 27 26 25 25 25 24 24 25 25 24 25 27 26 25 24 26 28 28 29 30 31
30 30 30 30 31 31 31 30 29 27 27 27 28 27 25 24 23 23 23 24 25 27 27 25 24 25 24 24 24 24 24 26 28 29 28 26 26 27 29 30 31 31
31 31 30 30 31 31 32 31 30 28 28 28 28 28 27 26 24 23 23 23 24 26 27 27 26 24 24 25 25 25 25 26 29 30 28 26 26 28 30 31 31 30
32 32 31 31 31 31 32 31 31 30 29 29 29 29 29 28 26 25 24 24 24 24 26 28 28 26 25 26 27 27 26 27 29 31 29 27 27 29 31 32 31 30
34 33 33 32 32 32 32 32 32 32 32 31 29 28 28 29 28 27 26 25 25 26 26 28 28 27 27 28 29 30 28 27 29 30 30 29 29 29 30 31 31 30
36 35 35 35 34 34 34 34 35 35 34 32 31 29 28 29 29 29 28 27 27 27 28 28 28 27 27 28 30 32 32 30 30 30 30 31 31 29 29 31 32 30
37 37 37 36 36 36 36 36 36 36 35 34 32 31 30 30 31 31 30 29 29 29 29 29 28 27 27 27 29 31 33 33 33 32 32 32 31 30 30 31 31 31
39 38 38 38 38 38 38 38 38 37 36 35 35 34 33 32 32 32 32 32 31 30 31 31 30 27 26 27 29 31 31 32 34 35 35 33 32 31 31 31 31 31
40 40 40 40 39 39 39 39 39 38 38 37 36 36 35 34 33 33 33 34 34 33 32 32 31 29 27 28 30 32 31 31 32 34 35 34 34 32 31 31 32 32
41 41 41 41 42 41 41 41 40 40 39 38 38 37 37 36 35 34 34 35 35 35 35 34 32 30 28 27 29 32 33 32 31 33 34 33 34 34 33 32 33 33
43 43 43 44 44 44 43 43 42 42 41 40 40 39 39 39 38 36 35 35 36 36 36 36 35 33 31 29 28 31 33 33 31 33 34 33 33 36 35 33 34 34
44 45 45 45 45 45 45 44 44 44 43 43 43 42 42 41 40 39 37 36 36 36 37 37 36 35 33 31 30 29 32 33 33 33 34 33 32 35 36 35 35 34
45 45 46 46 46 46 45 45 44 44 44 44 44 43 43 43 42 41 39 37 36 36 37 37 37 37 36 34 32 30 31 33 33 33 34 34 32 33 35 36 35 34
44 45 46 46 47 47 47 46 45 45 44 44 44 44 44 44 43 43 42 40 38 37 37 38 38 38 37 35 34 32 31 32 33 32 33 34 33 32 33 35 36 35
45 46 46 47 48 48 48 48 48 48 47 47 46 46 46 46 45 45 44 43 41 39 38 38 39 39 38 37 35 33 32 31 32 32 32 33 32 32 32 34 35 35
46 46 47 48 49 49 50 50 50 50 50 49 49 48 47 46 46 46 45 44 43 41 39 38 39 40 39 37 36 35 33 31 31 31 31 31 31 31 32 32 33 34
46 46 47 47 48 49 49 50 51 51 51 51 50 49 48 47 46 46 46 45 44 43 40 38 38 40 41 38 36 35 34 32 31 30 30 29 29 30 30 31 32 34
48 48 48 48 49 49 49 50 50 50 51 51 50 49 48 47 46 46 46 46 45 43 41 38 37 39 41 40 37 36 35 33 31 30 29 28 27 27 28 30 33 35

ECMWFNIL_500_spd_087.txt.gz
Wind_Speed
25 26 27 27 28 28 28 28 28 28 28 28 27 28 28 28 29 29 29 29 29 28 27 26 26 26 25 24 23 22 23 22 22 22 22 24 25 24 22 22 22 24
26 27 27 28 28 28 28 28 29 29 28 28 27 27 27 28 28 28 28 28 28 27 25 25 25 26 25 24 23 22 22 22 21 22 22 23 25 25 23 23 23 23
27 27 28 28 29 29 29 29 30 29 28 27 26 26 26 27 27 27 26 26 26 26 24 23 24 25 25 24 22 21 21 21 21 22 23 24 26 26 25 26 25 24
28 28 29 29 29 29 29 30 30 30 29 27 25 24 24 25 26 26 25 24 24 24 24 23 23 23 24 25 23 21 21 20 21 22 22 23 27 28 27 27 27 25
29 29 29 30 30 30 30 30 31 31 29 27 24 23 23 23 24 24 23 23 23 24 24 23 23 23 23 25 24 22 22 21 21 22 21 22 25 28 29 29 28 26
30 30 30 30 31 30 30 30 31 31 30 27 24 23 22 21 22 22 22 23 23 24 23 23 23 23 22 23 24 22 22 22 22 22 22 21 23 25 28 30 30 28
31 31 31 31 32 31 31 31 31 31 30 28 25 23 22 21 21 22 22 23 24 24 23 23 23 24 22 22 22 22 22 22 22 22 22 22 23 24 28 30 30 30
32 32 32 33 33 32 32 32 31 31 30 28 25 24 22 21 21 22 23 23 24 24 24 23 23 23 23 22 22 22 22 22 22 22 22 22 22 24 26 28 29 29
33 33 34 34 34 34 33 33 32 31 30 29 27 25 23 22 21 22 23 24 24 24 24 24 23 23 23 23 22 22 22 22 22 22 22 22 22 22 24 25 26 28
34 35 35 35 35 34 34 33 33 32 32 30 28 26 25 24 24 23 24 25 25 25 25 25 24 23 23 23 23 23 22 23 22 22 23 23 22 23 24 25 26 28
35 36 37 36 36 36 35 35 34 34 34 33 31 29 28 27 27 26 26 26 27 27 27 27 26 24 23 23 24 24 23 22 22 22 23 24 24 24 25 25 26 29
36 37 38 38 37 37 36 36 36 36 36 35 35 33 32 31 30 29 28 27 28 28 29 30 28 25 23 23 24 25 25 24 23 23 24 25 25 26 27 26 25 29
37 38 39 39 39 38 38 38 38 38 38 38 37 36 35 34 33 32 30 29 29 29 30 31 30 27 25 25 24 25 26 25 24 24 24 24 24 26 27 27 25 28
38 38 39 40 40 40 40 40 40 40 40 39 39 38 38 36 35 34 33 32 31 30 30 31 31 29 28 27 27 26 26 26 26 25 24 24 24 25 27 27 27 27
38 39 39 40 41 41 41 41 42 42 42 41 41 40 40 39 38 36 35 34 33 32 31 31 32 31 30 29 29 28 27 27 27 26 25 25 25 25 26 28 29 29
38 39 40 40 41 42 42 43 43 43 43 42 42 42 42 42 41 39 38 36 34 34 33 32 32 33 32 31 31 29 29 29 29 28 27 26 26 26 26 27 29 30
38 40 40 41 42 43 43 44 44 44 44 44 43 44 44 44 43 43 41 39 37 36 36 35 34 34 34 34 34 32 30 29 30 30 29 28 27 27 27 27 29 31
38 39 40 41 42 43 44 45 45 45 45 45 45 45 45 46 45 45 44 43 41 39 38 38 37 36 36 36 36 36 34 31 30 31 31 30 29 28 28 28 29 31
39 39 40 41 42 43 44 45 46 46 47 47 47 47 47 47 47 46 45 44 43 41 40 39 39 38 37 36 36 36 36 34 32 31 32 32 31 30 30 29 29 30
40 41 41 42 43 44 45 46 46 47 48 48 49 49 49 49 48 48 47 46 45 43 42 40 40 39 38 37 36 36 36 36 35 33 33 33 33 33 32 31 30 30
42 42 43 43 44 45 46 46 47 48 48 49 49 50 50 50 50 49 49 49 48 47 46 44 42 41 40 39 38 37 37 37 37 36 35 34 34 34 34 33 31 30
43 44 44 45 45 46 46 47 48 49 49 50 50 51 51 51 51 51 51 51 50 50 49 48 46 44 43 42 40 38 37 37 37 38 37 36 35 35 35 34 33 31
43 43 44 45 46 47 48 48 49 50 50 51 51 52 52 52 52 52 52 52 52 52 51 50 48 47 45 44 43 40 37 37 38 38 38 38 37 36 35 35 34 32
43 43 43 44 45 46 47 48 49 50 51 51 52 52 52 52 52 53 53 53 52 52 51 50 49 48 46 45 44 42 39 36 37 38 39 39 38 36 35 35 35 33
45 45 46 46 46 47 48 49 50 51 51 52 53 53 53 53 53 54 53 53 53 53 52 51 50 49 48 46 44 43 40 37 36 37 38 39 38 36 35 35 34 33
47 47 48 48 49 49 50 51 51 52 53 53 54 54 55 55 56 56 56 56 55 55 54 54 53 52 51 49 47 45 42 39 36 36 37 38 38 36 35 34 33 33

ECMWFNIL_500_spd_090.txt.gz
Wind_Speed
25 25 25 25 25 26 27 27 28 28 29 29 28 27 26 24 22 21 20 20 20 21 21 21 21 22 23 24 26 25 23 22 23 24 25 26 28 29 28 27 29 29
26 26 27 27 27 27 28 28 29 29 30 30 29 28 26 24 22 20 19 19 19 19 20 20 21 21 22 23 24 24 23 23 24 25 25 25 27 29 28 27 28 29
26 27 28 28 28 29 29 29 29 30 30 30 30 28 26 24 22 20 19 19 19 18 18 19 20 20 21 22 23 24 24 23 24 24 23 24 27 29 28 28 28 28
27 27 28 29 30 30 31 31 31 31 31 31 31 29 26 24 21 20 20 19 18 18 18 19 20 20 20 21 22 23 23 23 23 23 21 22 25 28 29 29 29 29
27 28 29 30 30 31 32 33 33 33 32 32 32 30 27 24 22 21 20 19 18 18 19 19 20 20 21 21 21 21 21 21 21 21 20 20 23 27 29 29 30 31
28 29 29 30 31 32 34 34 35 34 34 33 33 31 29 25 23 21 21 20 20 19 19 19 20 21 21 21 21 21 21 20 19 19 19 19 20 24 27 29 31 32
29 29 30 31 32 33 34 36 36 36 35 34 34 33 31 28 25 23 22 21 21 21 21 20 20 21 21 21 21 21 22 21 20 20 20 20 20 21 24 27 30 31
31 31 31 32 33 34 35 36 37 37 36 36 36 35 33 31 28 26 24 23 22 23 23 22 22 22 23 23 22 22 22 22 22 21 21 21 22 22 23 25 27 30
33 33 32 33 34 34 35 37 38 38 37 37 36 36 35 33 32 29 27 25 25 25 25 25 24 25 26 26 26 24 23 23 23 22 22 22 22 22 23 24 25 27
35 34 34 34 35 36 36 37 38 38 38 37 37 37 36 35 34 33 31 29 28 28 28 27 27 27 27 28 28 26 24 23 23 23 23 23 23 23 24 25 24 25
37 36 36 36 36 37 38 38 39 39 39 39 38 38 38 37 36 36 35 34 32 31 31 30 29 28 28 29 29 28 26 25 24 24 24 24 24 25 25 25 25 25
38 38 37 38 38 39 39 39 40 41 41 41 40 39 39 39 38 38 37 37 36 35 34 33 32 30 28 28 29 30 29 27 25 25 26 26 26 26 27 26 26 26
39 39 38 39 39 40 40 41 41 42 42 42 42 41 40 40 40 40 40 39 38 38 38 37 36 33 31 29 29 30 30 29 27 27 27 27 27 28 28 28 28 27
40 39 39 40 40 41 41 42 42 43 43 43 43 43 42 42 42 42 42 41 41 40 40 39 39 37 35 32 30 29 30 30 29 28 28 28 29 29 29 29 30 29
40 40 40 40 41 41 42 42 43 43 43 44 44 44 44 44 43 43 43 43 43 43 42 42 41 41 40 37 34 31 31 31 31 31 30 30 30 30 30 30 31 31
41 41 41 41 41 42 42 42 43 43 43 44 44 45 45 45 45 45 45 45 45 44 44 44 43 43 43 42 40 36 33 32 33 33 33 32 32 32 32 32 31 31
42 41 41 41 41 42 42 42 43 43 43 44 44 45 46 46 46 46 46 46 46 46 46 46 46 45 45 45 44 42 38 35 34 34 35 34 34 33 33 33 33 32
42 41 41 42 42 42 42 43 43 43 44 45 45 46 46 47 47 48 48 47 47 47 47 47 47 47 47 46 46 45 43 40 37 35 35 35 35 34 34 34 34 34
41 41 41 42 42 42 42 43 43 44 45 45 46 47 47 48 48 49 49 49 49 49 49 49 49 48 48 48 47 47 45 43 41 39 37 36 36 36 35 35 35 35
41 41 41 41 42 42 43 43 44 44 45 45 46 47 48 48 49 50 50 51 51 51 51 51 50 50 49 49 49 49 48 46 45 43 41 40 39 38 37 36 36 36
41 41 42 43 43 44 44 44 44 44 45 45 46 47 47 48 49 50 51 52 52 53 53 53 53 52 52 51 51 51 50 49 47 46 44 43 41 40 39 38 37 37
43 44 44 44 45 44 45 45 45 45 46 46 47 48 48 49 50 50 51 52 53 53 54 55 55 54 54 53 53 52 52 51 50 48 46 44 42 41 41 40 39 38
44 44 44 44 45 45 46 46 47 48 49 50 50 51 52 52 53 53 53 53 54 54 55 55 56 56 56 55 54 53 52 52 51 49 48 46 44 42 40 40 40 39
43 43 44 45 46 47 48 49 50 52 53 54 55 56 56 57 57 58 58 57 57 57 57 57 57 57 57 57 56 55 54 53 52 50 49 47 45 43 41 40 40 40
43 44 46 47 48 50 51 52 54 55 56 57 58 58 59 60 61 61 62 62 62 62 61 61 60 59 58 58 57 57 56 55 54 52 51 49 47 45 43 40 39 40
45 46 48 49 50 51 52 53 54 55 56 57 58 59 60 61 61 62 63 64 64 64 64 64 63 63 62 61 60 59 58 57 55 54 52 51 49 48 45 42 40 39

ECMWFNIL_500_spd_093.txt.gz
Wind_Speed
27 26 26 26 26 26 26 26 26 26 26 26 27 27 26 26 26 26 25 25 24 22 21 20 19 19 19 18 18 18 19 20 22 24 26 26 27 27 27 27 28 28
28 27 27 26 26 27 26 27 27 27 28 28 28 28 28 28 27 27 26 25 24 23 22 20 20 19 19 19 19 18 19 20 21 23 24 25 26 27 27 27 27 27
29 28 28 27 27 27 27 27 28 28 28 29 29 29 29 29 29 28 27 26 25 25 23 22 21 20 20 20 20 20 20 20 21 22 23 24 25 26 27 28 27 27
30 30 29 29 29 29 28 28 28 28 29 29 30 30 30 30 30 30 29 28 27 26 25 24 23 22 21 21 21 21 21 21 21 22 23 24 24 25 26 27 28 28
32 31 31 31 31 30 29 29 29 30 30 30 30 31 31 31 31 31 31 30 29 27 26 26 25 25 23 23 22 23 23 22 22 22 23 23 24 24 25 26 27 28
34 33 32 33 33 32 31 31 31 31 31 31 31 32 32 32 32 32 32 32 31 30 28 27 28 27 26 25 25 24 24 24 25 25 25 24 24 24 24 25 25 27
35 34 34 34 34 34 33 33 33 32 32 32 33 33 33 33 33 33 33 33 33 33 31 30 30 29 29 28 27 27 27 27 27 27 27 27 26 25 25 25 25 25
36 35 35 35 35 35 34 34 34 34 34 34 35 35 35 35 35 35 35 35 35 35 34 33 32 31 31 31 30 30 30 30 30 30 29 29 28 28 27 26 25 25
37 37 36 36 35 35 35 35 34 35 35 36 36 36 36 37 37 37 37 37 37 37 37 36 35 33 33 33 33 32 32 32 32 32 31 31 30 30 29 28 27 26
39 38 37 37 36 36 36 35 35 36 36 37 37 37 37 37 38 38 38 39 39 39 38 38 37 36 35 34 34 34 34 34 33 33 33 33 32 31 31 30 29 27
40 40 39 38 37 37 37 36 37 37 38 39 39 39 39 39 39 40 40 41 41 41 41 40 39 38 37 37 36 35 35 34 34 34 34 34 34 33 33 32 31 30
42 41 40 39 38 38 38 38 38 38 39 40 40 40 40 40 41 41 42 43 43 44 44 43 42 41 40 39 38 38 37 36 35 34 34 35 35 35 35 34 33 32
42 42 41 40 39 40 40 39 39 40 40 41 41 41 41 41 42 42 43 44 45 45 46 46 45 44 43 42 41 40 39 39 38 36 35 35 36 37 37 36 36 35
42 42 42 41 41 41 40 40 40 41 41 41 42 42 42 42 43 43 44 45 46 47 47 48 48 47 46 45 44 43 42 41 40 39 38 37 36 37 38 38 38 37
43 43 43 43 42 42 41 41 41 42 42 42 43 43 43 43 44 44 45 46 47 48 49 49 49 49 49 48 46 45 44 44 43 42 41 40 38 37 38 40 40 40
43 43 43 43 43 42 42 42 43 43 43 43 43 44 44 44 45 45 46 47 48 49 50 50 50 50 50 50 49 48 47 46 45 45 44 43 42 40 39 39 41 41
44 44 44 43 42 42 42 42 43 43 44 44 44 44 45 45 46 46 47 47 48 49 50 50 51 51 51 51 52 51 50 49 48 47 47 46 45 44 42 41 40 41
44 43 43 42 41 41 41 42 43 43 44 45 45 46 46 47 47 47 47 47 48 49 49 50 50 50 51 51 52 52 52 52 51 50 49 49 48 47 46 44 42 41
42 41 41 40 40 41 41 43 44 44 45 45 46 46 46 46 46 47 47 48 48 49 50 50 50 51 51 51 52 52 53 53 53 52 51 51 50 50 49 47 46 44
40 40 40 40 41 42 43 44 45 45 45 45 45 46 46 47 48 49 50 51 52 52 53 53 54 54 54 54 53 53 54 54 54 54 53 53 52 52 51 50 49 47
39 39 40 41 43 44 45 44 44 45 45 46 48 49 50 51 53 54 55 56 56 57 58 58 59 59 59 59 59 58 57 57 56 55 55 54 54 54 53 53 51 50
39 40 41 43 44 44 44 45 46 47 49 50 51 52 53 54 55 56 56 57 58 59 59 60 61 62 62 62 63 63 63 62 61 60 58 57 55 54 54 54 53 52
40 41 43 43 43 44 45 47 48 49 50 51 51 52 52 53 54 54 55 55 56 57 58 59 60 61 62 63 64 65 65 65 65 65 64 62 60 58 56 55 54 53
41 42 42 42 43 45 46 47 48 48 48 49 49 50 50 51 51 52 52 53 54 55 56 57 58 59 60 62 63 64 66 67 67 67 66 65 64 63 61 58 55 54
40 41 41 43 43 44 45 45 45 45 45 46 46 46 47 47 48 49 50 50 51 52 53 54 56 57 58 59 60 62 63 65 66 67 67 67 66 64 64 62 60 56
39 40 40 41 41 41 41 41 42 42 42 42 43 43 44 45 46 47 48 49 50 51 51 52 53 54 54 55 57 58 59 61 62 64 65 66 66 65 64 63 62 60

ECMWFNIL_500_spd_096.txt.gz
Wind_Speed
29 30 30 30 30 30 29 29 29 29 29 29 29 29 29 29 28 28 28 27 27 27 27 27 26 26 26 26 26 26 26 26 26 25 25 25 25 26 27 27 25 24
31 31 32 32 32 32 31 31 30 30 30 30 30 30 30 30 30 29 29 28 28 28 28 28 28 28 27 27 28 28 28 27 27 27 26 26 26 26 27 27 27 26
32 32 33 34 35 34 34 33 32 32 31 31 31 31 31 31 31 31 30 29 29 28 29 29 29 29 29 28 28 29 29 29 29 29 29 28 27 27 27 27 28 27
33 33 34 35 36 36 35 35 34 34 33 33 33 33 32 32 32 32 32 31 30 30 29 30 30 30 30 29 29 29 30 31 31 31 31 31 30 29 29 29 28 29
34 35 36 37 38 38 37 36 36 35 35 35 35 35 35 34 34 33 33 32 32 31 31 31 31 31 31 31 30 31 31 32 33 33 34 34 34 33 32 31 31 30
35 36 37 38 38 38 38 38 38 37 37 37 37 37 37 37 36 35 35 34 34 34 33 33 33 33 32 32 32 32 32 33 34 35 36 36 36 36 36 35 33 33
35 36 37 38 39 40 40 40 39 38 38 38 38 39 39 39 39 38 37 36 36 36 35 35 35 35 35 34 34 34 34 34 35 36 37 38 38 39 39 38 37 36
36 37 38 40 41 42 42 41 40 39 39 39 39 39 40 40 40 39 39 38 37 37 37 37 37 37 37 37 36 36 36 36 36 37 38 39 40 40 40 40 39 39
37 38 39 40 41 42 42 42 41 40 40 40 40 41 41 41 40 40 40 40 39 39 38 38 38 38 38 38 38 38 38 38 38 38 39 40 41 41 41 41 41 41
38 39 40 41 42 43 43 42 41 41 41 41 41 42 42 42 42 41 41 41 41 40 40 39 39 39 39 39 39 39 39 40 40 40 41 41 41 42 42 43 42 42
39 40 41 42 43 43 43 43 42 42 42 42 42 43 43 43 43 43 42 42 42 42 42 41 41 41 41 41 41 41 41 41 41 41 42 43 43 43 43 43 44 43
40 41 42 43 44 44 44 43 43 43 42 43 43 44 44 44 44 43 43 43 43 43 43 43 43 43 43 43 44 44 44 44 43 43 43 44 44 44 44 45 45 45
40 42 43 44 45 45 44 44 44 43 43 43 44 44 44 44 44 44 43 44 44 44 44 44 45 45 45 46 46 46 46 46 46 46 45 45 46 46 46 46 46 46
41 42 43 45 45 45 45 45 44 44 44 44 44 44 43 43 43 43 43 44 44 45 45 46 46 47 47 48 48 48 49 49 48 48 48 48 48 48 47 47 47 47
43 44 45 46 46 46 46 45 44 44 45 45 44 43 42 42 42 43 44 44 45 45 46 47 47 48 48 49 49 49 49 50 50 50 50 50 50 50 50 49 49 49
43 45 46 46 46 46 45 45 44 45 44 44 42 42 41 42 43 43 44 44 45 45 46 47 47 48 49 49 50 50 49 50 50 51 51 52 52 52 52 52 51 51
43 44 45 45 45 44 44 44 44 44 43 42 41 41 42 43 44 44 44 45 45 46 47 48 48 49 50 51 52 53 53 53 53 53 53 54 54 54 54 53 53 53
41 42 43 42 42 42 42 42 42 41 40 40 41 42 43 44 45 45 46 47 47 48 48 49 49 50 51 52 53 54 55 55 56 56 56 56 57 57 57 57 56 55
39 40 40 40 40 41 40 40 39 39 40 41 42 43 44 45 46 47 47 47 48 48 48 48 48 49 50 51 52 53 54 55 56 57 57 58 58 59 59 60 59 58
38 38 39 39 39 38 38 38 38 39 41 42 44 44 45 46 46 46 46 46 46 46 46 46 47 48 49 50 51 53 54 55 56 57 58 59 59 60 60 61 61 61
36 37 37 37 36 36 37 38 39 40 42 43 44 44 44 44 44 44 44 44 44 45 45 46 47 48 49 50 51 53 54 56 57 58 59 60 61 62 62 62 62 62
35 35 35 35 35 36 37 38 39 40 41 42 42 42 41 41 41 41 41 42 43 44 45 46 46 47 48 49 50 51 52 54 56 57 59 60 61 61 62 63 64 64
33 33 34 34 35 35 36 38 39 40 40 39 39 39 39 39 39 40 41 42 43 43 44 44 45 46 46 47 48 49 50 51 53 55 56 58 60 60 61 62 63 63
32 33 33 33 34 35 36 37 37 37 36 36 36 36 37 38 39 40 41 42 42 42 43 43 44 45 46 46 47 48 48 49 51 52 54 55 57 59 60 60 61 61
31 31 32 32 33 34 34 34 34 33 34 34 35 36 37 38 40 40 41 41 41 42 43 43 44 45 46 46 47 48 48 49 50 51 52 53 54 55 56 58 59 60
30 30 31 32 32 32 31 31 31 32 33 34 35 36 38 39 39 40 40 40 41 42 43 44 45 45 46 47 48 48 49 50 50 51 52 53 52 52 52 53 54 56

ECMWFNIL_500_spd_099.txt.gz
Wind_Speed
25 26 26 27 27 28 28 29 29 30 30 30 30 30 30 30 30 30 30 30 30 31 31 31 32 32 32 32 32 32 31 31 31 31 31 31 32 33 33 33 33 33
27 27 28 28 29 29 30 31 31 31 32 32 32 32 32 32 32 32 32 32 32 33 33 33 33 33 33 33 33 33 33 32 32 32 32 32 32 33 34 35 35 36
28 29 29 30 30 31 32 33 33 34 34 34 34 33 33 33 34 34 34 34 34 35 35 35 35 35 35 35 35 34 34 34 33 33 33 33 33 33 34 35 36 37
30 30 31 31 32 32 33 34 35 35 36 36 35 35 35 35 35 35 35 35 36 36 37 37 37 37 37 37 37 36 36 36 35 35 35 35 35 35 35 36 37 38
31 32 32 33 33 34 35 36 37 37 37 37 37 37 37 37 37 36 36 36 37 37 38 39 39 39 39 39 39 38 38 37 37 37 37 36 36 36 36 37 37 38
33 33 33 34 35 35 36 37 38 38 38 38 38 38 38 38 38 37 37 37 38 38 39 40 41 41 41 41 41 40 40 39 39 39 38 38 38 38 38 38 38 39
33 34 34 35 36 37 38 38 38 39 39 39 40 40 39 39 38 39 39 39 39 39 40 40 41 42 43 42 42 42 42 41 40 40 40 40 40 40 40 40 40 40
32 33 34 36 37 38 38 39 40 40 40 41 42 41 40 40 40 40 40 40 40 40 40 41 41 42 43 43 44 44 43 43 42 41 41 41 41 41 41 41 41 42
31 32 34 36 37 38 38 39 41 41 42 43 43 43 42 41 42 42 41 41 41 41 41 41 42 42 42 43 43 44 43 43 43 43 42 42 42 42 42 42 43 43
32 33 34 35 36 37 39 40 41 42 43 44 44 44 43 43 44 44 43 42 42 42 42 42 42 42 42 42 43 43 43 43 43 43 43 43 43 43 43 43 44 44
35 35 35 35 36 37 39 40 42 43 44 45 45 45 45 45 45 44 43 43 43 43 42 42 42 42 42 42 42 43 43 43 43 44 44 44 45 45 45 45 45 46
36 36 35 36 37 38 39 41 43 44 45 45 46 46 46 46 45 44 43 43 43 42 42 42 41 41 42 42 42 43 43 44 44 45 45 46 46 47 47 47 47 47
36 36 35 36 37 38 40 42 43 45 45 46 46 47 46 45 44 44 44 43 43 42 42 42 42 42 42 43 43 44 44 45 45 46 46 47 47 48 49 49 49 49
35 35 35 36 38 39 41 43 44 44 45 46 46 45 45 44 44 44 44 43 42 42 42 42 43 43 44 44 45 45 46 46 47 47 48 48 49 49 50 51 51 51
34 34 35 37 38 40 42 42 43 44 44 44 43 43 43 43 44 44 43 42 42 42 43 44 44 45 45 45 45 45 46 46 46 47 47 48 49 49 50 51 52 53
35 35 36 38 39 41 41 42 42 42 41 41 41 41 42 43 42 42 41 42 42 43 44 44 44 45 45 45 45 44 44 44 45 45 46 46 47 48 49 50 51 52
36 36 37 38 39 39 39 39 39 38 39 39 40 41 41 41 40 40 41 41 42 42 43 43 43 43 43 43 44 44 44 44 45 45 46 46 47 48 49 49 50 51
37 37 36 36 36 36 36 36 36 37 38 39 39 39 39 39 39 40 41 41 41 41 41 41 41 42 42 43 43 44 45 45 46 47 48 48 49 50 50 51 51 52
33 32 32 32 32 32 33 34 35 36 37 37 37 37 37 38 39 39 40 39 39 39 39 39 40 41 42 43 43 44 45 46 47 48 49 50 51 51 52 53 53 54
27 28 29 29 30 30 31 33 34 34 35 35 36 36 37 38 38 38 38 37 37 37 38 38 39 40 41 42 42 43 44 46 47 48 49 50 51 52 53 54 55 55
25 26 27 27 28 29 30 31 32 33 33 34 35 36 36 36 36 35 35 35 36 36 37 38 38 39 39 40 42 43 44 45 46 47 48 50 51 52 54 55 56 57
23 24 25 26 27 28 29 30 31 32 32 33 34 34 34 33 33 34 34 34 35 36 36 37 37 38 39 40 41 42 43 44 45 46 47 48 50 52 53 55 56 56
23 24 25 26 27 28 29 30 31 31 32 32 32 32 32 32 32 32 33 34 34 35 35 36 37 38 39 39 40 41 42 42 43 44 46 47 49 51 52 53 55 56
24 25 26 26 27 28 29 30 30 30 30 30 30 30 30 30 31 31 32 33 34 34 35 36 37 38 38 39 39 40 41 42 43 44 45 47 48 49 50 52 54 55
25 25 26 27 27 28 29 29 29 29 28 28 28 29 29 30 30 31 32 33 33 34 35 36 37 37 38 39 40 41 41 42 43 44 46 47 48 49 50 51 53 55
25 25 26 27 27 28 28 27 27 26 27 27 28 28 28 29 30 30 31 32 34 35 36 36 37 38 39 40 40 41 42 43 43 45 46 48 48 49 50 52 54 57

ECMWFNIL_500_spd_102.txt.gz
Wind_Speed
20 21 21 22 23 24 25 26 27 27 27 27 28 29 29 29 29 29 29 29 29 30 30 31 31 32 33 33 34 35 35 35 35 35 36 36 37 38 38 38 37 37
22 22 23 23 24 26 27 27 28 29 29 30 30 31 32 32 32 31 31 31 32 32 32 32 32 33 33 34 34 35 36 36 37 37 37 37 38 38 39 39 39 39
23 24 25 26 27 28 28 29 30 31 31 32 33 33 34 34 34 34 33 33 34 34 35 35 34 34 34 35 35 36 36 37 38 38 38 38 38 39 39 40 40 40
25 26 28 28 29 30 30 31 32 32 33 34 34 35 35 35 35 35 35 35 35 36 36 36 36 36 36 36 37 37 37 38 38 39 40 40 40 40 40 41 41 42
26 27 28 29 31 32 32 32 33 33 34 35 35 36 36 36 36 36 36 36 37 37 38 38 38 38 38 38 38 38 38 39 39 40 40 41 41 41 41 42 43 43
26 27 28 30 30 31 33 33 34 34 35 35 36 37 37 37 37 37 38 38 38 39 40 40 40 40 40 39 39 39 39 39 40 40 40 41 41 41 41 42 43 44
25 26 27 28 29 29 31 32 33 34 35 36 37 37 38 38 38 38 39 40 40 40 41 42 42 41 40 40 39 39 39 39 39 40 40 40 41 41 41 42 42 43
25 27 28 28 28 29 30 31 33 34 35 36 37 37 38 38 39 40 41 41 41 42 43 43 42 41 40 40 39 39 39 39 39 39 39 40 41 41 42 42 42 43
29 29 30 31 31 31 32 32 33 34 35 36 37 37 38 39 40 41 42 42 43 43 44 44 42 41 41 40 40 39 39 39 39 39 40 40 41 41 42 43 43 44
30 31 32 32 33 33 33 33 34 35 35 36 37 37 39 40 42 43 43 43 44 44 44 43 42 41 41 41 41 40 40 40 41 41 41 42 42 42 43 43 44 44
31 32 32 32 32 33 33 34 34 35 35 36 37 38 40 42 43 43 44 44 44 44 43 42 41 41 41 41 41 41 42 42 43 43 43 44 44 44 44 45 45 46
32 33 33 33 32 32 33 34 34 35 35 36 38 40 41 42 43 44 44 44 43 42 41 41 41 42 42 42 42 43 43 44 45 45 45 45 45 45 45 45 46 46
33 33 33 33 33 33 33 33 34 35 36 37 39 40 41 42 43 43 43 42 41 41 41 41 41 42 42 43 43 44 45 45 45 45 45 45 45 45 45 46 46 47
33 33 32 32 33 33 33 33 34 35 37 38 39 40 42 42 42 42 41 40 40 40 41 41 41 42 43 44 44 45 45 45 45 44 44 45 45 45 45 46 46 47
34 33 33 33 34 34 34 34 35 36 37 38 40 40 41 40 40 39 39 39 40 40 40 41 42 42 43 43 43 44 44 44 44 43 43 43 44 44 44 45 46 47
34 34 34 35 35 35 35 35 36 37 38 38 39 38 38 38 38 38 38 39 39 40 41 41 42 43 43 43 43 43 43 43 43 43 43 43 43 43 44 45 46 47
34 35 36 36 35 35 36 36 37 37 37 36 35 35 36 36 37 37 37 38 39 40 41 41 42 42 42 42 42 42 42 42 42 42 43 43 44 44 45 45 46 47
33 34 34 34 35 36 36 35 34 33 32 32 33 34 35 35 36 36 37 38 39 39 40 40 41 41 41 41 41 41 42 42 42 43 43 44 45 45 45 46 46 47
30 27 26 27 30 31 30 29 29 29 30 31 32 33 34 34 35 35 36 37 38 39 39 39 40 40 40 40 40 41 41 42 42 43 43 44 44 45 45 46 46 47
28 23 22 23 24 25 26 26 27 28 29 30 31 32 33 33 34 35 36 36 37 37 38 38 38 39 39 39 40 40 41 42 42 42 43 43 44 44 45 46 47 48
25 22 21 22 22 23 24 25 26 28 29 30 30 31 32 33 34 34 35 35 36 36 36 37 37 37 38 38 39 40 40 41 41 42 42 43 43 44 46 47 48 49
23 20 20 20 21 23 24 25 26 27 28 29 30 31 32 33 33 33 33 34 34 35 35 35 35 36 37 38 38 39 39 40 40 41 42 42 43 44 45 46 48 49
21 20 19 20 21 22 24 24 25 26 27 28 30 31 32 32 32 32 32 33 33 33 34 34 35 35 36 37 37 38 39 39 40 40 41 42 43 43 44 45 47 49
19 19 20 21 22 22 23 24 24 26 27 29 29 30 30 30 31 31 31 32 32 32 33 33 34 35 35 36 37 37 38 39 39 40 40 41 41 42 43 45 47 49
19 19 20 21 22 22 23 23 25 26 27 28 29 29 29 30 30 30 31 31 31 32 33 33 34 34 35 35 36 37 38 39 39 39 39 40 40 41 42 44 46 49
19 20 20 21 21 22 23 24 25 27 27 28 28 28 29 29 30 30 30 31 31 32 33 33 34 34 35 35 36 37 38 38 38 39 39 40 40 41 42 44 47 48

ECMWFNIL_500_spd_105.txt.gz
Wind_Speed
21 22 22 22 23 23 24 24 25 26 27 28 28 28 29 29 29 29 29 30 30 30 29 29 29 30 31 31 32 33 33 34 35 35 36 37 38 39 39 40 41 41
22 23 23 24 24 24 25 25 26 28 29 30 31 31 31 31 32 31 32 32 32 32 32 32 32 32 33 33 34 35 36 37 37 38 38 39 39 39 40 40 41 41
23 23 24 24 24 25 26 26 27 28 30 31 32 33 33 33 33 33 34 34 34 34 34 34 34 35 35 35 36 37 38 39 40 41 41 41 41 41 41 41 42 42
23 24 24 24 25 26 26 27 28 28 30 31 32 33 33 34 34 34 34 35 35 35 36 36 36 36 36 37 38 39 40 41 41 42 42 42 41 41 42 42 42 43
23 24 24 25 25 26 27 27 28 29 29 30 31 31 32 33 33 34 35 36 37 37 38 38 38 38 38 39 40 41 42 42 42 42 42 41 41 42 42 42 42 42
22 23 24 24 25 26 26 27 28 29 30 30 31 31 31 32 33 35 36 37 38 38 39 39 39 39 40 41 42 43 43 43 43 42 42 42 42 41 41 41 41 42
20 22 23 24 25 26 27 28 29 30 31 32 33 33 34 34 35 36 37 38 39 39 39 40 40 41 42 43 43 44 44 43 43 42 41 41 41 41 41 41 41 41
21 22 24 25 26 28 29 30 31 33 34 35 36 36 37 37 37 38 39 39 40 40 40 40 41 42 43 44 44 44 43 43 42 42 42 41 41 41 41 41 42 42
24 25 27 28 29 30 32 33 34 35 36 36 37 37 37 37 38 38 39 40 40 40 41 41 42 44 45 44 44 43 43 42 42 42 42 42 42 42 43 43 44 44
27 28 29 31 32 33 34 35 36 36 36 37 37 36 36 37 38 38 39 40 40 41 42 42 44 45 45 44 43 42 42 42 42 42 42 43 44 44 45 45 45 46
29 30 31 33 34 34 35 36 36 37 37 36 36 35 36 36 37 38 39 40 41 41 42 44 45 45 44 43 42 43 43 42 43 43 44 45 45 46 46 46 46 46
30 32 33 34 35 36 36 37 37 37 36 35 35 35 36 36 37 38 39 40 41 42 44 44 44 43 42 42 42 43 43 43 44 45 45 46 46 46 46 46 46 46
31 33 34 35 36 36 37 38 38 37 36 35 35 35 35 36 38 39 39 40 41 43 43 43 42 42 42 42 42 43 44 44 45 45 46 46 46 46 46 46 46 47
32 33 34 35 37 37 38 38 38 37 36 36 36 36 36 37 38 39 40 41 41 42 41 41 41 41 42 42 43 44 44 45 45 45 45 45 45 46 46 46 46 47
33 34 35 36 37 37 37 37 37 37 37 37 37 36 36 37 38 39 40 40 39 39 39 39 40 41 42 43 44 44 44 45 45 45 45 44 45 45 45 46 46 47
34 35 36 36 35 35 34 35 36 37 38 38 38 38 37 38 38 38 37 36 36 37 38 39 40 41 42 43 43 44 44 44 44 44 44 44 44 45 45 46 47 47
34 35 35 34 33 32 32 33 33 33 34 37 38 38 37 35 35 34 33 34 35 36 38 39 40 41 42 42 43 43 43 43 43 43 43 44 44 45 45 46 47 48
34 34 33 32 31 31 32 32 30 29 30 33 33 32 31 31 31 32 33 34 35 36 38 39 40 41 41 41 42 42 42 42 42 43 43 44 44 45 46 46 47 47
33 33 33 32 31 30 29 28 28 27 28 28 28 28 29 30 31 32 33 34 35 36 37 38 39 40 40 41 41 41 41 42 42 43 43 44 45 45 46 46 46 47
33 32 32 30 30 29 27 26 26 26 26 26 27 28 29 30 31 32 33 34 35 36 37 38 39 39 39 40 40 40 41 42 42 43 44 44 45 45 45 46 46 46
31 30 30 29 28 27 25 25 25 25 25 26 26 27 29 30 31 32 33 34 35 36 37 38 38 38 39 39 40 40 41 42 43 43 44 44 44 45 45 45 46 47
28 28 27 27 26 25 24 23 23 24 25 25 26 27 29 30 31 32 33 34 35 36 36 37 37 37 38 39 39 40 41 42 43 43 44 44 44 45 45 45 46 46
26 26 25 25 24 23 23 23 23 24 24 25 26 27 28 30 31 32 33 33 34 35 35 36 36 37 38 38 39 40 41 42 42 43 43 43 43 44 44 44 44 45
25 24 23 23 23 23 23 23 23 24 24 25 26 27 29 30 31 31 32 33 33 34 34 35 36 37 38 38 39 40 41 41 42 42 42 42 42 42 42 42 42 43
24 23 23 22 22 22 22 23 23 24 25 25 26 28 29 30 30 31 31 32 33 33 34 35 36 36 37 38 39 39 40 41 41 41 41 40 40 40 40 41 41 42
24 23 22 22 22 22 22 23 24 24 25 26 27 28 29 29 30 31 31 32 32 33 34 35 35 36 37 38 38 39 39 39 40 39 39 39 38 38 39 40 41 42

ECMWFNIL_500_spd_108.txt.gz
Wind_Speed
15 15 16 16 17 17 18 19 21 22 23 24 26 27 28 29 30 31 32 32 33 33 33 33 33 32 32 33 33 34 35 36 36 37 38 39 40 41 41 42 43 43
16 17 17 17 18 19 19 21 22 23 25 26 27 29 30 31 32 33 34 34 34 34 34 34 34 34 34 35 36 37 37 38 39 39 40 40 41 42 43 44 44 44
17 17 18 18 20 20 22 23 24 26 27 28 30 31 32 33 34 34 34 35 35 35 35 35 36 36 36 37 38 39 40 40 41 41 42 42 43 44 45 45 45 44
18 19 19 20 22 23 24 25 27 28 29 31 32 33 34 34 35 35 35 35 36 36 37 37 38 38 39 40 40 41 42 42 42 42 43 44 45 46 46 45 45 44
20 21 22 23 24 25 26 27 29 30 31 32 33 33 34 34 35 36 36 37 38 39 40 40 41 41 42 42 43 43 43 43 43 43 44 45 46 46 45 45 44 44
21 23 24 25 25 26 27 28 29 30 31 32 33 34 35 36 37 38 39 40 41 42 43 43 44 44 44 44 44 44 44 43 43 44 45 46 45 45 45 44 43 43
22 23 24 25 25 26 27 28 30 31 32 33 35 36 37 39 40 41 42 43 43 44 45 45 45 45 45 45 44 44 43 43 43 45 45 45 45 45 44 44 44 44
23 23 24 25 26 27 29 30 31 33 34 36 37 38 40 41 42 42 43 44 45 45 45 45 45 44 44 44 44 43 42 43 44 45 45 45 45 44 44 44 44 45
24 25 25 26 28 29 31 32 33 35 36 37 38 39 41 42 42 43 44 45 45 45 44 44 44 44 44 44 43 43 43 44 45 45 44 44 44 44 44 45 46 46
25 26 26 27 29 31 32 33 35 36 37 38 39 41 42 43 43 44 44 44 44 43 43 43 43 44 44 43 43 43 44 44 45 44 44 44 44 45 45 46 46 47
25 25 26 28 29 31 33 34 36 37 38 40 41 42 43 44 44 45 45 44 43 43 43 44 44 44 44 43 43 44 44 44 44 44 44 44 45 46 46 47 47 47
25 26 28 29 30 32 33 35 37 38 39 40 41 42 43 44 45 45 45 44 44 44 45 45 45 44 43 43 43 43 43 43 43 44 44 45 46 46 47 47 47 47
27 28 29 30 32 33 35 37 38 39 40 40 41 42 43 44 44 44 44 44 44 45 46 46 45 43 42 42 42 42 42 42 43 44 45 46 46 46 47 47 47 47
29 29 31 32 33 35 36 37 38 38 39 40 41 41 42 42 42 42 43 43 43 44 46 46 44 42 41 40 40 40 41 42 43 44 45 46 46 46 46 46 46 46
30 31 32 33 34 35 36 36 37 38 38 39 40 40 40 40 40 39 38 39 40 42 43 42 40 38 38 38 39 40 41 42 43 44 45 45 45 45 45 46 46 46
31 32 33 34 34 35 35 35 36 37 38 39 38 38 39 40 39 37 36 35 36 37 37 36 36 36 37 38 39 40 41 42 43 43 44 44 44 45 45 46 47 47
32 32 33 34 34 34 34 35 36 37 38 38 37 38 38 38 36 35 34 33 33 34 34 34 35 36 36 37 38 40 41 41 42 42 42 43 43 44 46 47 47 48
32 33 33 33 34 34 34 36 37 38 37 37 37 36 37 36 34 33 33 32 32 33 33 34 34 35 36 38 39 40 40 40 41 41 41 42 44 45 46 47 48 49
33 33 33 33 33 34 35 37 37 37 36 35 35 34 34 34 33 32 32 31 31 32 32 33 34 36 37 38 38 39 39 40 40 41 42 43 44 45 46 47 48 49
33 33 33 33 33 35 35 36 35 34 33 32 32 32 32 31 31 30 30 30 31 32 32 33 35 36 36 37 38 38 39 39 40 41 42 43 44 46 47 47 48 48
32 31 32 32 33 34 33 32 31 31 30 30 30 30 30 30 29 29 30 30 31 32 33 34 34 35 36 36 37 37 38 39 40 42 43 44 45 46 47 47 47 47
30 31 31 32 32 31 30 29 28 28 29 29 29 29 28 28 28 29 30 30 31 32 32 33 34 35 35 36 36 37 38 40 41 42 44 45 45 46 46 46 45 45
30 30 31 30 29 29 28 28 27 28 28 28 28 27 27 28 29 29 30 30 31 32 32 33 34 34 35 36 36 38 39 40 42 43 44 44 45 45 44 44 43 43
30 30 30 29 28 28 28 27 27 27 27 27 27 27 27 28 29 29 30 30 31 31 32 33 34 34 35 36 37 38 40 41 42 43 44 44 44 43 43 42 41 41
30 30 29 28 28 28 27 27 27 27 26 26 26 27 27 28 29 29 30 30 31 32 33 33 34 34 35 36 37 39 40 41 42 42 43 43 42 42 41 40 39 40
30 29 29 28 28 27 27 27 26 26 26 26 26 27 28 28 29 29 30 30 31 32 33 33 33 34 35 36 38 39 40 41 41 41 41 41 40 39 38 38 38 40

ECMWFNIL_500_spd_111.txt.gz
Wind_Speed
12 12 11 12 12 13 13 14 14 16 17 18 19 20 21 22 24 25 27 28 29 30 31 31 32 33 33 34 35 37 38 39 40 41 41 42 43 44 45 45 45 45
12 12 12 13 13 14 15 16 16 17 18 19 20 21 22 24 26 27 28 29 30 30 31 32 33 34 36 37 38 39 41 42 43 44 44 45 45 46 46 46 46 45
13 13 14 14 15 15 16 17 18 19 19 20 21 23 24 25 27 28 29 29 30 31 32 34 35 37 38 39 41 42 43 44 44 45 45 46 46 46 46 46 45 45
14 15 15 16 16 17 18 18 19 20 21 22 23 24 25 26 27 28 29 30 32 33 35 36 38 39 40 41 43 44 45 45 45 45 46 46 46 46 46 45 45 45
15 16 17 17 18 18 19 20 21 22 22 23 24 24 26 27 28 29 31 32 34 36 37 39 40 41 43 44 45 45 46 46 46 45 46 45 45 45 45 45 44 44
17 17 18 19 19 19 20 20 21 22 23 24 24 26 27 29 30 32 33 35 36 38 39 41 42 43 44 45 46 46 46 46 46 46 46 46 46 45 45 44 44 44
18 18 19 19 19 20 20 21 22 23 24 25 26 28 29 31 32 34 35 37 38 40 41 42 44 45 45 46 46 46 45 45 46 46 46 46 45 45 44 44 44 44
18 19 20 20 21 22 23 24 25 25 26 27 28 29 31 32 34 35 37 38 40 41 42 43 44 45 45 45 45 45 45 45 45 46 46 45 44 44 44 45 45 46
19 21 22 23 23 24 25 25 26 26 27 28 29 31 32 34 36 37 39 40 41 42 43 44 44 44 44 44 44 44 44 45 45 45 45 44 44 44 45 46 46 47
22 23 24 25 25 25 26 26 27 27 28 29 31 33 34 36 37 39 40 40 41 42 43 43 43 43 43 43 43 43 43 43 43 44 43 43 44 44 45 46 47 47
24 25 25 25 25 25 27 28 28 28 29 30 32 34 35 37 38 39 39 40 41 42 42 42 43 43 42 42 41 41 41 42 41 42 42 42 43 44 45 46 47 47
25 25 25 25 26 27 28 29 29 30 30 31 33 34 36 37 37 38 39 40 41 41 41 42 42 41 40 40 40 40 41 40 40 41 41 42 43 44 45 46 47 47
25 26 26 26 27 28 29 30 30 31 31 32 33 35 36 36 37 38 39 40 40 40 40 41 40 39 39 39 40 40 40 40 40 41 41 42 43 44 45 45 46 46
26 26 27 27 28 29 30 30 31 31 32 33 34 35 36 37 38 39 40 40 39 39 39 39 38 37 38 39 39 39 39 40 40 41 41 42 43 44 44 44 44 45
26 27 28 28 29 30 31 31 32 32 33 33 34 35 36 37 38 39 39 38 38 37 37 37 37 37 37 38 38 38 39 39 40 41 42 42 43 43 43 43 43 44
27 28 29 29 30 31 32 32 32 33 33 34 35 36 36 37 38 38 37 37 36 36 36 36 37 37 37 37 38 38 39 40 41 41 42 42 42 42 42 43 43 44
28 29 30 30 31 32 32 33 33 33 34 34 35 36 36 37 37 36 35 34 34 34 35 35 36 36 36 37 37 38 39 40 40 40 40 41 41 41 42 42 43 44
29 30 31 32 33 33 33 33 33 33 34 34 35 35 36 35 34 33 32 32 32 33 34 34 35 35 36 37 38 39 39 39 39 39 39 39 40 41 42 43 44 45
30 31 32 33 34 34 33 33 33 33 33 34 34 34 33 32 31 30 30 31 32 32 33 33 34 35 36 37 38 38 38 38 38 38 38 39 40 41 42 43 44 45
31 32 34 34 34 33 33 32 32 33 33 33 33 32 31 30 29 29 30 31 31 31 31 33 34 35 36 36 37 37 37 37 37 38 38 39 41 42 43 44 45 45
32 34 35 34 33 32 31 31 32 32 32 32 31 30 29 28 29 29 30 30 30 30 31 33 34 35 35 36 36 36 36 36 37 37 38 40 41 42 44 44 44 44
34 35 34 33 32 31 31 31 32 32 31 30 29 29 28 28 29 29 28 29 29 30 32 33 34 34 35 35 35 36 36 36 37 38 39 40 42 42 43 43 42 42
35 34 33 32 31 30 30 31 31 31 30 30 29 28 28 28 28 27 28 28 30 31 32 33 34 34 34 35 35 35 36 36 37 38 40 41 42 42 41 41 40 39
34 32 31 30 30 30 31 31 31 30 30 29 29 28 28 27 27 27 27 29 30 31 32 33 33 34 34 34 35 35 36 37 38 39 40 41 41 40 39 39 38 37
32 31 30 29 29 30 30 30 30 29 29 29 28 28 27 26 26 27 28 30 30 31 32 33 33 33 34 34 35 35 36 37 38 40 40 40 39 38 37 37 36 35
31 29 29 29 29 30 29 29 29 29 29 28 28 27 26 26 26 27 29 30 30 31 32 33 33 33 33 34 34 35 36 38 39 39 38 38 37 36 35 35 34 34

ECMWFNIL_500_spd_114.txt.gz
Wind_Speed
13 14 13 13 12 12 13 14 15 15 14 15 17 17 17 18 18 20 20 21 23 24 25 26 28 29 31 32 33 34 35 36 37 38 39 39 39 40 40 40 40 41
12 12 12 12 11 12 13 15 15 15 16 17 17 18 18 19 20 20 21 22 24 25 27 28 29 31 32 33 34 36 37 38 38 39 40 40 41 41 41 41 41 42
10 10 11 11 12 13 14 15 16 16 17 17 18 18 19 19 20 21 22 24 25 27 28 30 31 32 34 35 36 37 38 39 39 40 41 41 41 41 42 42 42 43
10 11 12 13 14 15 15 15 16 16 17 18 18 18 18 19 21 23 24 26 27 28 29 31 32 34 35 36 38 39 39 40 41 41 41 41 42 42 43 43 43 43
11 12 14 15 15 15 16 16 15 16 17 17 17 18 19 21 23 25 26 27 28 29 31 32 34 35 37 38 39 40 40 41 41 41 42 42 43 43 43 43 43 43
13 14 15 15 15 16 16 15 15 16 17 17 18 20 22 24 25 26 27 29 30 31 32 34 35 37 38 39 40 40 41 41 42 42 42 43 43 43 42 42 42 42
14 15 15 15 16 16 16 16 16 17 18 19 20 22 24 25 26 28 29 30 31 32 34 35 37 38 39 40 40 41 42 42 42 42 42 42 42 41 41 40 41 41
15 15 16 16 16 17 17 18 18 19 19 21 22 24 25 26 28 29 30 31 32 33 35 36 37 39 40 40 41 42 42 42 41 41 40 41 41 41 41 41 42 43
15 16 16 17 18 19 20 20 20 20 21 22 24 25 27 28 29 30 31 32 33 35 36 37 39 40 41 41 42 42 41 41 40 39 40 40 41 41 42 43 43 44
16 16 17 19 20 21 21 22 22 22 23 24 26 27 28 29 30 31 32 33 34 35 37 38 40 41 41 41 41 41 40 39 39 39 40 41 41 42 43 44 44 45
18 18 19 20 21 22 23 23 23 24 25 26 27 28 29 30 31 32 33 34 35 36 38 39 40 41 41 40 40 39 38 38 38 39 40 40 41 42 43 44 45 46
20 20 21 22 23 24 24 25 26 26 27 27 28 29 30 31 32 33 34 35 36 37 38 39 40 40 39 38 37 37 37 38 38 39 40 41 42 43 44 45 46 46
23 23 23 24 25 25 26 27 27 27 27 28 29 30 32 33 34 34 35 35 37 38 38 39 39 38 37 35 35 35 37 38 39 39 40 41 42 44 45 45 46 46
25 24 25 25 26 26 27 28 28 28 28 29 30 32 33 34 34 35 35 36 37 37 38 37 37 35 34 33 34 35 36 37 38 39 41 42 43 44 44 45 45 45
25 25 25 25 26 27 28 29 29 29 29 30 32 33 34 34 35 35 36 36 36 36 36 35 33 32 32 33 34 34 36 37 39 40 41 42 43 43 43 44 44 45
26 26 26 26 26 28 30 30 30 30 30 31 33 34 35 35 35 35 35 35 35 34 33 32 31 31 31 32 33 34 36 38 40 41 41 42 42 42 42 43 44 45
27 27 27 27 28 30 31 30 31 31 32 33 35 35 35 35 35 35 34 34 33 32 31 30 31 31 31 31 33 35 37 38 40 41 41 41 41 41 42 43 44 45
27 28 28 29 30 30 31 31 31 32 34 35 35 35 35 35 35 34 33 32 31 30 30 30 30 30 30 32 34 36 37 39 39 40 40 40 40 41 42 43 44 45
28 29 30 30 30 31 31 32 33 34 35 35 35 35 34 35 34 33 32 31 31 30 31 31 30 30 31 33 35 36 38 39 39 39 39 40 41 41 42 43 44 45
29 30 30 31 31 31 32 33 34 35 35 35 34 34 34 34 33 32 31 31 31 31 31 30 30 30 32 34 36 37 38 38 38 38 39 40 41 42 43 44 45 44
29 30 30 31 31 32 32 33 34 35 35 34 34 34 34 33 32 31 31 31 31 31 30 30 30 31 33 35 36 37 37 37 37 38 39 40 41 42 43 44 43 42
28 29 30 31 31 31 32 33 33 33 33 33 33 33 33 32 31 31 31 31 31 30 30 30 31 32 34 35 36 37 37 36 37 38 39 40 41 42 43 42 41 40
27 28 28 29 30 31 32 32 32 32 32 33 32 32 31 31 30 30 31 31 30 29 29 30 32 33 34 35 36 36 36 36 36 37 39 40 42 42 42 40 39 37
27 28 28 28 30 30 31 31 32 32 31 31 31 31 30 30 30 30 30 30 29 29 29 31 32 34 34 35 35 35 35 36 36 38 39 40 41 41 39 38 36 35
28 28 29 29 30 30 30 31 31 31 31 30 30 30 30 30 29 29 29 29 28 29 30 32 33 34 34 35 34 34 35 36 37 38 39 40 40 39 37 35 34 33
29 29 29 29 29 29 30 31 31 31 30 30 30 30 30 29 29 29 29 28 28 29 31 32 33 34 34 34 33 34 34 36 37 38 39 39 38 36 34 33 33 32

ECMWFNIL_500_spd_117.txt.gz
Wind_Speed
13 13 12 10 9 10 10 10 10 10 11 12 14 16 17 18 19 20 21 21 21 21 21 22 24 26 27 28 29 30 31 32 34 36 38 40 42 42 43 44 45 45
12 12 10 9 9 10 10 11 11 11 12 14 15 17 18 19 20 20 20 20 20 21 23 24 26 28 28 29 30 31 32 34 36 38 40 42 42 43 44 44 45 44
11 10 9 9 9 10 11 12 12 13 14 15 16 18 19 19 19 18 18 19 21 23 25 26 28 29 29 30 31 32 34 36 38 40 41 42 43 43 44 44 44 43
11 10 9 10 10 11 13 13 14 15 15 16 17 18 18 18 17 17 19 21 23 25 27 28 29 30 31 31 32 34 35 37 39 41 42 42 43 43 43 43 43 42
11 10 10 11 11 12 13 14 15 15 16 17 17 17 17 16 17 19 21 23 25 27 28 30 31 31 32 33 34 35 37 39 41 41 42 43 43 43 43 42 42 41
12 11 11 12 12 12 13 14 15 16 16 17 16 16 16 17 19 20 22 24 26 28 30 31 32 32 33 34 35 36 38 40 41 41 42 43 43 42 42 41 41 41
13 12 12 12 12 12 13 14 15 16 16 16 16 16 17 18 20 22 24 26 28 29 31 32 33 33 34 35 36 38 39 41 41 42 42 42 41 40 40 40 40 41
14 13 13 12 12 13 14 14 15 15 16 16 16 17 18 20 22 23 25 27 29 31 32 33 33 34 35 36 37 39 40 41 41 42 42 40 39 39 39 39 40 41
15 14 14 14 14 14 14 14 15 15 16 17 18 19 20 22 23 25 27 28 30 32 33 34 34 35 36 37 38 39 40 41 41 40 39 38 38 37 38 39 41 42
16 16 15 15 15 15 15 15 16 17 18 19 19 21 22 24 25 26 28 30 31 33 34 34 35 36 37 37 39 40 40 40 39 38 37 36 36 37 38 40 42 43
17 17 17 17 16 16 16 16 17 19 20 20 21 23 24 26 27 28 30 31 33 34 35 35 36 36 37 38 39 39 39 38 37 36 35 34 35 37 39 41 43 44
19 18 19 19 18 18 18 18 19 20 21 22 23 25 26 27 29 30 31 33 34 35 36 36 36 37 38 38 38 38 37 36 35 34 34 34 37 39 41 42 43 45
19 19 21 21 20 20 20 20 21 22 23 24 25 27 28 29 30 31 32 34 35 36 36 36 37 37 37 37 37 36 35 35 34 33 34 36 39 40 42 43 44 45
21 21 23 23 23 22 22 22 23 23 24 26 27 29 30 31 32 33 34 35 36 37 37 37 37 37 37 36 35 35 34 34 33 33 35 38 40 42 43 44 44 45
22 23 24 24 25 24 24 24 24 25 26 28 29 30 31 33 33 34 35 36 37 37 37 37 36 36 35 35 34 34 34 34 33 34 37 39 41 43 44 44 44 45
24 24 25 25 26 26 25 26 26 26 27 29 31 32 33 34 34 35 36 37 37 37 36 36 35 35 34 34 34 34 34 34 34 36 38 40 42 43 43 44 44 45
25 25 25 26 27 27 26 26 27 28 29 31 32 33 34 35 35 36 37 37 37 36 36 35 34 33 33 33 33 33 33 34 35 37 39 41 42 43 43 43 44 45
26 26 26 28 29 28 27 27 28 29 31 32 34 34 35 35 36 37 37 36 36 35 34 34 33 33 33 33 33 33 33 34 36 38 40 41 42 42 42 43 44 45
28 27 28 30 31 29 28 29 30 31 33 34 35 35 35 35 36 36 36 35 35 34 33 32 32 31 32 32 32 33 34 35 37 39 40 41 42 42 42 43 45 46
31 30 30 30 30 30 30 31 32 33 34 34 35 35 35 35 36 35 35 34 33 32 31 31 30 30 31 31 32 33 34 36 38 39 40 41 41 42 42 43 45 45
32 31 30 30 30 30 32 33 33 33 33 34 34 35 35 35 34 33 33 32 31 31 30 29 29 30 30 31 32 33 35 37 38 39 40 40 41 41 42 44 45 45
32 31 29 28 28 29 30 31 31 31 32 33 33 34 33 33 33 32 31 30 30 30 29 29 29 29 30 31 32 34 36 37 38 39 40 40 40 41 42 44 44 43
31 31 30 28 28 28 29 30 30 31 31 32 32 31 31 31 31 31 30 30 30 29 29 28 28 29 29 31 33 35 36 37 38 39 39 39 40 41 43 43 43 41
30 31 31 29 29 29 29 29 30 30 30 30 30 30 30 31 31 30 30 30 29 29 28 28 28 28 29 31 33 35 36 37 38 38 38 39 40 42 42 42 40 38
30 29 28 28 28 28 28 28 28 29 29 28 28 29 31 31 31 30 30 30 29 28 28 28 28 28 29 31 33 34 36 37 37 37 38 39 40 41 41 40 38 36
30 28 26 26 26 27 27 28 28 28 27 27 28 30 31 31 31 30 30 29 29 28 28 28 28 28 30 31 33 34 35 36 36 37 38 39 40 40 39 38 36 35

ECMWFNIL_500_spd_123.txt.gz
Wind_Speed
17 19 20 19 19 20 20 19 19 18 17 15 14 13 12 11 11 11 11 12 13 15 16 17 18 19 19 19 20 20 21 23 24 26 27 28 29 30 31 32 33 34
16 17 17 17 16 16 17 18 17 15 14 14 14 13 12 12 11 12 13 14 14 16 17 17 18 18 18 19 20 21 22 24 25 27 28 29 30 31 32 33 34 35
14 14 13 13 13 14 15 15 14 14 14 14 13 12 12 12 12 13 13 14 15 16 16 17 17 17 18 19 20 22 23 25 26 27 29 30 31 32 33 34 35 36
13 12 12 12 12 13 14 15 15 14 14 13 12 12 12 12 12 13 14 15 15 16 16 16 16 17 18 19 21 22 24 25 27 28 30 31 32 33 34 35 36 37
16 15 14 14 14 14 14 15 15 15 14 13 12 12 12 12 13 14 15 15 15 15 15 16 16 17 19 20 22 24 25 27 29 30 31 32 33 34 35 36 37 37
17 17 16 15 14 14 15 15 16 15 14 14 13 13 13 13 14 15 15 15 15 15 15 16 17 18 19 21 23 25 27 29 31 32 33 33 34 35 36 36 37 36
16 17 16 15 15 16 16 17 17 16 15 14 13 13 14 14 15 15 15 15 15 16 16 17 17 19 21 23 25 27 29 30 32 33 34 34 35 35 36 36 36 35
16 16 17 17 17 17 17 18 17 16 15 14 14 15 15 16 16 16 16 16 17 17 17 18 19 20 23 25 27 28 30 32 33 34 34 34 35 36 36 36 35 34
16 17 17 18 18 18 18 18 17 16 16 15 15 16 17 17 17 17 17 18 18 18 18 19 20 22 24 26 28 30 32 33 33 34 34 35 35 36 36 35 35 34
16 17 18 19 19 20 20 19 18 17 17 17 17 18 18 19 18 18 18 19 19 19 20 21 22 24 26 28 29 31 32 33 34 34 34 35 36 36 36 35 34 34
16 18 19 20 21 21 21 20 19 19 18 18 19 19 19 19 19 19 20 20 21 21 22 22 24 25 27 28 30 32 33 34 34 35 35 36 36 36 36 35 34 34
16 18 19 20 22 22 22 21 20 20 20 20 20 20 21 21 21 21 22 22 22 23 23 24 25 27 28 30 32 33 34 34 35 35 36 36 36 36 35 34 33 33
16 17 19 20 22 22 22 22 21 21 21 22 22 21 22 23 23 23 23 24 24 24 25 26 27 28 29 31 33 34 34 35 35 35 36 36 36 36 34 33 33 33
17 18 19 20 22 22 23 23 22 22 23 23 23 23 23 24 25 25 25 25 25 26 26 27 28 29 30 32 34 34 34 35 35 36 36 36 36 34 33 32 32 33
16 18 19 21 22 23 24 24 24 24 24 25 24 24 25 25 26 26 27 27 27 27 27 28 28 30 31 33 34 35 35 35 35 36 36 36 35 33 32 31 32 34
16 17 19 20 22 23 24 25 25 26 26 26 26 26 26 27 27 28 28 27 27 27 28 28 29 30 32 33 34 35 35 35 35 35 35 35 33 32 31 31 32 34
17 18 19 21 22 23 24 25 26 27 27 28 28 28 29 29 29 29 29 28 27 28 28 28 29 30 32 34 34 34 34 34 34 35 35 34 32 31 31 31 33 34
19 20 21 22 23 24 25 26 26 26 28 29 30 30 32 33 32 31 30 29 28 28 28 28 29 31 33 34 34 33 33 33 34 34 34 33 32 31 31 31 33 34
21 22 23 24 25 26 26 27 27 27 29 29 30 32 35 36 36 35 34 31 28 27 27 27 29 31 32 33 32 32 32 33 34 34 33 32 31 30 30 31 33 34
22 24 25 26 27 28 29 29 29 30 30 31 32 35 37 39 40 39 35 30 26 25 26 27 29 31 31 31 31 31 32 33 34 33 32 31 30 30 30 31 32 34
24 25 26 26 27 29 30 31 32 32 33 34 35 35 38 41 40 34 27 23 22 23 25 26 28 29 30 30 30 31 32 33 33 32 31 30 29 29 29 30 32 34
25 26 26 27 28 29 31 32 33 34 34 35 35 33 34 33 30 25 20 20 22 23 24 26 27 29 29 30 30 31 32 32 31 30 30 29 29 28 29 30 32 34
25 26 27 27 29 30 32 32 32 31 30 30 31 31 28 23 21 21 21 21 21 22 24 26 27 28 29 30 30 31 31 31 30 29 29 29 28 28 28 29 31 34
27 29 29 29 30 31 31 30 28 27 27 27 25 24 22 20 20 21 21 20 21 22 24 26 27 28 28 29 29 30 30 29 29 29 29 28 27 27 28 29 31 33
30 31 31 30 31 31 29 28 27 27 28 27 25 23 22 21 20 19 19 20 21 23 25 26 27 27 28 28 28 29 29 29 29 29 28 27 27 27 28 29 31 33
31 32 32 31 30 29 28 28 28 28 28 27 26 24 21 18 18 19 19 20 22 24 26 26 26 27 28 27 28 28 28 28 28 28 27 27 27 27 28 29 31 32